[[{"header":{"parameterUnit":"m.s-1","parameterCategory":1,"la1":30.6,"la2":28.766,"lo1":-90.7593,"lo2":-88.6598,"dy":0.0162,"dx":0.0183,"nx":116,"ny":114,"refTime":"2023-11-15T06:00:00:Z","depth":0,"parameterNumber":2,"parameterNumberName":"U-component_of_WINDS"},"data":[0.0,0.0,0.0,0.0,0.0,0.0,0.0,0.0,0.0,0.0,0.0,0.0,0.0,0.0,0.0,0.0,0.0,0.0,0.0,0.0,0.0,0.0,0.0,0.0,0.0,0.0,0.0,0.0,0.0,0.0,0.0,0.0,0.0,0.0,0.0,0.0,0.0,0.0,0.0,0.0,0.0,0.0,0.0,0.0,0.0,0.0,0.0,0.0,0.0,0.0,0.0,0.0,0.0,0.0,0.0,0.0,0.0,0.0,0.0,0.0,0.0,0.0,0.0,0.0,0.0,0.0,0.0,0.0,0.0,0.0,0.0,0.0,0.0,0.0,0.0,0.0,0.0,0.0,0.0,0.0,0.0,0.0,0.0,0.0,0.0,0.0,0.0,0.0,0.0,0.0,0.0,0.0,0.0,0.0,0.0,0.0,0.0,0.0,0.0,0.0,0.0,0.0,0.0,0.0,0.0,0.0,0.0,0.0,0.0,0.0,0.0,0.0,0.0,0.0,0.0,0.0,0.0,0.0,0.0,0.0,0.0,0.0,0.0,0.0,0.0,0.0,0.0,0.0,0.0,0.0,0.0,0.0,0.0,0.0,0.0,0.0,0.0,0.0,0.0,0.0,0.0,0.0,0.0,0.0,0.0,0.0,0.0,0.0,0.0,0.0,0.0,0.0,0.0,0.0,0.0,0.0,0.0,0.0,0.0,0.0,0.0,0.0,0.0,0.0,0.0,0.0,0.0,0.0,0.0,0.0,0.0,0.0,0.0,0.0,0.0,0.0,0.0,0.0,0.0,0.0,0.0,0.0,0.0,0.0,0.0,0.0,0.0,0.0,0.0,0.0,0.0,0.0,0.0,0.0,0.0,0.0,0.0,0.0,0.0,0.0,0.0,0.0,0.0,0.0,0.0,0.0,0.0,0.0,0.0,0.0,0.0,0.0,0.0,0.0,0.0,0.0,0.0,0.0,0.0,0.0,0.0,0.0,0.0,0.0,0.0,0.0,0.0,0.0,0.0,0.0,0.0,0.0,0.0,0.0,0.0,0.0,0.0,0.0,0.0,0.0,0.0,0.0,0.0,0.0,0.0,0.0,0.0,0.0,0.0,0.0,0.0,0.0,0.0,0.0,0.0,0.0,0.0,0.0,0.0,0.0,0.0,0.0,0.0,0.0,0.0,0.0,0.0,0.0,0.0,0.0,0.0,0.0,0.0,0.0,0.0,0.0,0.0,0.0,0.0,0.0,0.0,0.0,0.0,0.0,0.0,0.0,0.0,0.0,0.0,0.0,0.0,0.0,0.0,0.0,0.0,0.0,0.0,0.0,0.0,0.0,0.0,0.0,0.0,0.0,0.0,0.0,0.0,0.0,0.0,0.0,0.0,0.0,0.0,0.0,0.0,0.0,0.0,0.0,0.0,0.0,0.0,0.0,0.0,0.0,0.0,0.0,0.0,0.0,0.0,0.0,0.0,0.0,0.0,0.0,0.0,0.0,0.0,0.0,0.0,0.0,0.0,0.0,0.0,0.0,0.0,0.0,0.0,0.0,0.0,0.0,0.0,0.0,0.0,0.0,0.0,0.0,0.0,0.0,0.0,0.0,0.0,0.0,0.0,0.0,0.0,0.0,0.0,0.0,0.0,0.0,0.0,0.0,0.0,0.0,0.0,0.0,0.0,0.0,0.0,0.0,0.0,0.0,0.0,0.0,0.0,0.0,0.0,0.0,0.0,0.0,0.0,0.0,0.0,0.0,0.0,0.0,0.0,0.0,0.0,0.0,0.0,0.0,0.0,0.0,0.0,0.0,0.0,0.0,0.0,0.0,0.0,0.0,0.0,0.0,0.0,0.0,0.0,0.0,0.0,0.0,0.0,0.0,0.0,0.0,0.0,0.0,0.0,0.0,0.0,0.0,0.0,0.0,0.0,0.0,0.0,0.0,0.0,0.0,0.0,0.0,0.0,0.0,0.0,0.0,0.0,0.0,0.0,0.0,0.0,0.0,0.0,0.0,0.0,0.0,0.0,0.0,0.0,0.0,0.0,0.0,0.0,0.0,0.0,0.0,0.0,0.0,0.0,0.0,0.0,0.0,0.0,0.0,0.0,0.0,0.0,0.0,0.0,0.0,0.0,0.0,0.0,0.0,0.0,0.0,0.0,0.0,0.0,0.0,0.0,0.0,0.0,0.0,0.0,0.0,0.0,0.0,0.0,0.0,0.0,0.0,0.0,0.0,0.0,0.0,0.0,0.0,0.0,0.0,0.0,0.0,0.0,0.0,0.0,0.0,0.0,0.0,0.0,0.0,0.0,0.0,0.0,0.0,0.0,0.0,0.0,0.0,0.0,0.0,0.0,0.0,0.0,0.0,0.0,0.0,0.0,0.0,0.0,0.0,0.0,0.0,0.0,0.0,0.0,0.0,0.0,0.0,0.0,0.0,0.0,0.0,0.0,0.0,0.0,0.0,0.0,0.0,0.0,0.0,0.0,0.0,0.0,0.0,0.0,0.0,0.0,0.0,0.0,0.0,0.0,0.0,0.0,0.0,0.0,0.0,0.0,0.0,0.0,0.0,0.0,0.0,0.0,0.0,0.0,0.0,0.0,0.0,0.0,0.0,0.0,0.0,0.0,0.0,0.0,0.0,0.0,0.0,0.0,0.0,0.0,0.0,0.0,0.0,0.0,0.0,0.0,0.0,0.0,0.0,0.0,0.0,0.0,0.0,0.0,0.0,0.0,0.0,0.0,0.0,0.0,0.0,0.0,0.0,0.0,0.0,0.0,0.0,0.0,0.0,0.0,0.0,0.0,0.0,0.0,0.0,0.0,0.0,0.0,0.0,0.0,0.0,0.0,0.0,0.0,0.0,0.0,0.0,0.0,0.0,0.0,0.0,0.0,0.0,0.0,0.0,0.0,0.0,0.0,0.0,0.0,0.0,0.0,0.0,0.0,0.0,0.0,0.0,0.0,0.0,0.0,0.0,0.0,0.0,0.0,0.0,0.0,0.0,0.0,0.0,0.0,0.0,0.0,0.0,0.0,0.0,0.0,0.0,0.0,0.0,0.0,0.0,0.0,0.0,0.0,0.0,0.0,0.0,0.0,0.0,0.0,0.0,0.0,0.0,0.0,0.0,0.0,0.0,0.0,0.0,0.0,0.0,0.0,0.0,0.0,0.0,0.0,0.0,0.0,0.0,0.0,0.0,0.0,0.0,0.0,0.0,0.0,0.0,0.0,0.0,0.0,0.0,0.0,0.0,0.0,0.0,0.0,0.0,0.0,0.0,0.0,0.0,0.0,0.0,0.0,0.0,0.0,0.0,0.0,0.0,0.0,0.0,0.0,0.0,0.0,0.0,0.0,0.0,0.0,0.0,0.0,0.0,0.0,0.0,0.0,0.0,0.0,0.0,0.0,0.0,0.0,0.0,0.0,0.0,0.0,0.0,0.0,0.0,0.0,0.0,0.0,0.0,0.0,0.0,0.0,0.0,0.0,0.0,0.0,0.0,0.0,0.0,0.0,0.0,0.0,0.0,0.0,0.0,0.0,0.0,0.0,0.0,0.0,0.0,0.0,0.0,0.0,0.0,0.0,0.0,0.0,0.0,0.0,0.0,0.0,0.0,0.0,0.0,0.0,0.0,0.0,0.0,0.0,0.0,0.0,0.0,0.0,0.0,0.0,0.0,0.0,0.0,0.0,0.0,0.0,0.0,0.0,0.0,0.0,0.0,0.0,0.0,0.0,0.0,0.0,0.0,0.0,0.0,0.0,0.0,0.0,0.0,0.0,0.0,0.0,0.0,0.0,0.0,0.0,0.0,0.0,0.0,0.0,0.0,0.0,0.0,0.0,0.0,0.0,0.0,0.0,0.0,0.0,0.0,0.0,0.0,0.0,0.0,0.0,0.0,0.0,0.0,0.0,0.0,0.0,0.0,0.0,0.0,0.0,0.0,0.0,0.0,0.0,0.0,0.0,0.0,0.0,0.0,0.0,0.0,0.0,0.0,0.0,0.0,0.0,0.0,0.0,0.0,0.0,0.0,0.0,0.0,0.0,0.0,0.0,0.0,0.0,0.0,0.0,0.0,0.0,0.0,0.0,0.0,0.0,0.0,0.0,0.0,0.0,0.0,0.0,0.0,0.0,0.0,0.0,0.0,0.0,0.0,0.0,0.0,0.0,0.0,0.0,0.0,0.0,0.0,0.0,0.0,0.0,0.0,0.0,0.0,0.0,0.0,0.0,0.0,0.0,0.0,0.0,0.0,0.0,0.0,0.0,0.0,0.0,0.0,0.0,0.0,0.0,0.0,0.0,0.0,0.0,0.0,0.0,0.0,0.0,0.0,0.0,0.0,0.0,0.0,0.0,0.0,0.0,0.0,0.0,0.0,0.0,0.0,0.0,0.0,0.0,0.0,0.0,0.0,0.0,0.0,0.0,0.0,0.0,0.0,0.0,0.0,0.0,0.0,0.0,0.0,0.0,0.0,0.0,0.0,0.0,0.0,0.0,0.0,0.0,0.0,0.0,0.0,0.0,0.0,0.0,0.0,0.0,0.0,0.0,0.0,0.0,0.0,0.0,0.0,0.0,0.0,0.0,0.0,0.0,0.0,0.0,0.0,0.0,0.0,0.0,0.0,0.0,0.0,0.0,0.0,0.0,0.0,0.0,0.0,0.0,0.0,0.0,0.0,0.0,0.0,0.0,0.0,0.0,0.0,0.0,0.0,0.0,0.0,0.0,0.0,0.0,0.0,0.0,0.0,0.0,0.0,0.0,0.0,0.0,0.0,0.0,0.0,0.0,0.0,0.0,0.0,0.0,0.0,0.0,0.0,0.0,0.0,0.0,0.0,0.0,0.0,0.0,0.0,0.0,0.0,0.0,0.0,0.0,0.0,0.0,0.0,0.0,0.0,0.0,0.0,0.0,0.0,0.0,0.0,0.0,0.0,0.0,0.0,0.0,0.0,0.0,0.0,0.0,0.0,0.0,0.0,0.0,0.0,0.0,0.0,0.0,0.0,0.0,0.0,0.0,0.0,0.0,0.0,0.0,0.0,0.0,0.0,0.0,0.0,0.0,0.0,0.0,0.0,0.0,0.0,0.0,0.0,0.0,0.0,0.0,0.0,0.0,0.0,0.0,0.0,0.0,0.0,0.0,0.0,0.0,0.0,0.0,0.0,0.0,0.0,0.0,0.0,0.0,0.0,0.0,0.0,0.0,0.0,0.0,0.0,0.0,0.0,0.0,0.0,0.0,0.0,0.0,0.0,0.0,0.0,0.0,0.0,0.0,0.0,0.0,0.0,0.0,0.0,0.0,0.0,0.0,0.0,0.0,0.0,0.0,0.0,0.0,0.0,0.0,0.0,0.0,0.0,0.0,0.0,0.0,0.0,0.0,0.0,0.0,0.0,0.0,0.0,0.0,0.0,0.0,0.0,0.0,0.0,0.0,0.0,0.0,0.0,0.0,0.0,0.0,0.0,0.0,0.0,0.0,0.0,0.0,0.0,0.0,0.0,0.0,0.0,0.0,0.0,0.0,0.0,0.0,0.0,0.0,0.0,0.0,0.0,0.0,0.0,0.0,0.0,0.0,0.0,0.0,0.0,0.0,0.0,0.0,0.0,0.0,0.0,0.0,0.0,0.0,0.0,0.0,0.0,0.0,0.0,0.0,0.0,0.0,0.0,0.0,0.0,0.0,0.0,0.0,0.0,0.0,0.0,0.0,0.0,0.0,0.0,0.0,0.0,0.0,0.0,0.0,0.0,0.0,0.0,0.0,0.0,0.0,0.0,0.0,0.0,0.0,0.0,0.0,0.0,0.0,0.0,0.0,0.0,0.0,0.0,0.0,0.0,0.0,0.0,0.0,0.0,0.0,0.0,0.0,0.0,0.0,0.0,0.0,0.0,0.0,0.0,0.0,0.0,0.0,0.0,0.0,0.0,0.0,0.0,0.0,0.0,0.0,0.0,0.0,0.0,0.0,0.0,0.0,0.0,0.0,0.0,0.0,0.0,0.0,0.0,0.0,0.0,0.0,0.0,0.0,0.0,0.0,0.0,0.0,0.0,0.0,0.0,0.0,0.0,0.0,0.0,0.0,0.0,0.0,0.0,0.0,0.0,0.0,0.0,0.0,0.0,3.5312,0.0,0.0,0.0,0.0,0.0,0.0,0.0,0.0,0.0,0.0,0.0,0.0,0.0,0.0,0.0,0.0,0.0,0.0,0.0,0.0,0.0,0.0,0.0,0.0,0.0,0.0,0.0,0.0,0.0,0.0,0.0,0.0,0.0,0.0,0.0,0.0,0.0,0.0,2.5351,2.5802,2.6678,2.7903,2.7827,2.7354,2.6545,0.0,0.0,0.0,0.0,0.0,0.0,0.0,0.0,0.0,0.0,0.0,0.0,0.0,0.0,0.0,0.0,0.0,0.0,0.0,0.0,0.0,0.0,0.0,0.0,0.0,0.0,0.0,0.0,0.0,0.0,0.0,0.0,0.0,0.0,0.0,0.0,0.0,0.0,0.0,0.0,0.0,0.0,0.0,0.0,0.0,0.0,0.0,0.0,0.0,0.0,0.0,0.0,0.0,0.0,0.0,0.0,0.0,0.0,0.0,0.0,0.0,0.0,0.0,0.0,0.0,0.0,0.0,0.0,0.0,0.0,0.0,3.6348,0.0,0.0,0.0,0.0,0.0,0.0,0.0,0.0,0.0,0.0,0.0,0.0,0.0,0.0,0.0,0.0,0.0,0.0,0.0,0.0,0.0,0.0,0.0,2.4428,2.5524,2.5524,2.5669,2.5688,2.5543,0.0,0.0,0.0,0.0,0.0,2.5303,2.5447,2.5621,2.586,2.7187,2.8576,3.0006,3.0955,3.0625,2.9224,2.8604,0.0,0.0,0.0,0.0,0.0,0.0,0.0,0.0,0.0,0.0,0.0,0.0,0.0,0.0,0.0,0.0,0.0,0.0,0.0,0.0,0.0,0.0,0.0,0.0,0.0,0.0,0.0,0.0,0.0,0.0,0.0,0.0,0.0,0.0,0.0,0.0,0.0,0.0,0.0,0.0,0.0,0.0,0.0,0.0,0.0,0.0,0.0,0.0,0.0,0.0,0.0,0.0,0.0,0.0,0.0,0.0,0.0,0.0,0.0,0.0,0.0,0.0,0.0,4.1211,4.1641,4.1641,4.1641,4.1992,4.2519,4.0391,3.8906,3.791,3.7031,0.0,0.0,0.0,0.0,0.0,0.0,0.0,0.0,0.0,0.0,0.0,0.0,0.0,0.0,0.0,0.0,0.0,0.0,0.0,2.2804,2.2793,2.4975,2.6429,2.6429,2.7123,2.7239,2.6468,2.6429,0.0,0.0,0.0,2.5303,2.5303,2.6054,2.6824,2.766,3.0806,3.246,3.2723,3.4214,3.4817,3.4453,3.1415,2.9583,2.8775,0.0,0.0,0.0,0.0,0.0,0.0,0.0,0.0,0.0,0.0,0.0,0.0,0.0,0.0,0.0,0.0,0.0,0.0,0.0,0.0,0.0,0.0,0.0,0.0,0.0,0.0,0.0,0.0,0.0,0.0,0.0,0.0,0.0,0.0,0.0,0.0,0.0,0.0,0.0,0.0,0.0,3.3755,3.3186,0.0,0.0,0.0,0.0,0.0,0.0,0.0,0.0,0.0,0.0,0.0,0.0,0.0,3.8498,3.9376,4.1053,4.1953,4.207,4.2949,4.3379,4.3379,4.3379,4.3437,4.3516,4.3164,0.0,4.0625,3.9746,0.0,0.0,0.0,0.0,0.0,0.0,0.0,0.0,0.0,0.0,0.0,0.0,0.0,0.0,0.0,0.0,0.0,0.0,0.0,0.0,0.0,2.612,2.7575,2.8075,2.8472,2.8317,2.7437,2.6927,0.0,0.0,2.536,2.5582,2.6092,2.6948,2.8565,3.0979,3.2967,3.4415,3.5359,3.6519,3.7018,3.6883,3.5361,3.3391,3.1198,3.0756,0.0,0.0,0.0,0.0,0.0,0.0,0.0,0.0,0.0,0.0,0.0,0.0,0.0,0.0,0.0,0.0,0.0,0.0,0.0,0.0,0.0,0.0,0.0,0.0,0.0,0.0,0.0,0.0,0.0,0.0,0.0,0.0,0.0,0.0,0.0,0.0,0.0,0.0,0.0,3.2815,3.3887,3.4018,3.4086,3.3441,0.0,0.0,0.0,0.0,0.0,0.0,0.0,0.0,0.0,3.8155,3.9847,4.0918,4.1309,4.3005,4.3867,4.3867,4.4746,4.5156,4.5156,4.5156,4.5156,4.5156,4.5156,4.4473,4.3223,4.1875,4.0078,3.8105,0.0,0.0,0.0,0.0,3.6152,3.6289,0.0,0.0,0.0,0.0,0.0,0.0,0.0,0.0,0.0,0.0,0.0,0.0,2.5537,2.7495,2.9018,2.9908,2.999,2.9536,2.8434,2.7544,2.6575,2.5476,2.5421,2.5818,2.6715,2.8446,3.0863,3.3939,3.5201,3.6451,3.7667,3.8454,3.8775,3.8662,3.8657,3.6757,3.3526,3.2929,3.1429,2.9294,0.0,0.0,0.0,0.0,0.0,0.0,0.0,0.0,0.0,0.0,0.0,0.0,0.0,0.0,0.0,0.0,0.0,0.0,0.0,0.0,0.0,0.0,0.0,0.0,0.0,0.0,0.0,0.0,0.0,0.0,0.0,0.0,0.0,0.0,0.0,0.0,0.0,3.3653,3.4291,3.5197,3.533,3.4853,0.0,0.0,0.0,0.0,0.0,0.0,3.7841,3.8995,3.9877,4.0526,4.2184,4.3079,4.3079,4.4569,4.5332,4.5332,4.5996,4.6308,4.6308,4.6308,4.6308,4.6308,4.6308,4.5937,4.5215,4.3691,4.207,4.0488,3.9824,3.8652,3.7422,3.8281,3.8594,3.8691,0.0,0.0,0.0,0.0,0.0,0.0,0.0,0.0,0.0,0.0,0.0,2.4695,2.6444,2.8943,3.0855,3.178,3.1863,3.1137,2.9434,2.8514,2.7263,2.5573,2.5495,2.5909,2.6769,3.0892,3.39,3.5663,3.8202,3.9422,3.9381,4.021,4.0544,4.0472,4.0389,3.8507,3.5372,3.5334,3.3378,3.0256,2.9333,0.0,0.0,0.0,0.0,0.0,0.0,0.0,0.0,0.0,0.0,0.0,0.0,0.0,0.0,0.0,0.0,0.0,0.0,0.0,0.0,0.0,0.0,0.0,0.0,0.0,0.0,0.0,0.0,0.0,0.0,0.0,0.0,0.0,0.0,0.0,0.0,0.0,0.0,3.7051,3.7178,0.0,0.0,0.0,0.0,3.7031,3.7864,3.8768,3.9726,4.1328,4.2226,4.2261,4.396,4.4877,4.4877,4.5781,4.623,4.623,4.6289,4.6308,4.6308,4.6308,4.6308,4.6308,4.6308,4.6289,4.6152,4.5254,4.3848,4.2266,4.2226,4.1699,4.1035,4.1855,4.2148,4.2148,0.0,0.0,0.0,0.0,0.0,0.0,0.0,0.0,2.1378,2.2304,2.3941,2.587,2.8184,3.0277,3.2098,3.354,3.3159,3.2127,3.0404,2.8963,2.7398,2.5646,2.61,2.7582,3.0089,3.3323,3.5781,3.7467,3.8933,3.9859,4.0285,4.0507,4.0612,4.0539,4.0504,3.9546,3.7873,3.6757,3.5276,3.3455,3.0948,2.9583,0.0,0.0,0.0,0.0,0.0,0.0,0.0,0.0,0.0,0.0,0.0,0.0,0.0,0.0,0.0,0.0,0.0,0.0,0.0,0.0,0.0,0.0,0.0,0.0,0.0,0.0,0.0,0.0,0.0,0.0,0.0,0.0,0.0,0.0,0.0,0.0,0.0,3.8723,3.8473,0.0,3.9647,3.899,3.909,4.0489,4.0875,4.1422,4.2295,4.3407,4.4007,4.4002,4.5153,4.5777,4.5763,4.6119,4.6303,4.6308,4.6308,4.6308,4.6308,4.6308,4.6308,4.6308,4.6308,4.6308,4.6289,4.5957,4.5137,4.4062,4.4062,4.3555,4.2832,4.3125,4.3242,4.3164,0.0,0.0,0.0,0.0,0.0,0.0,0.0,2.0949,2.1979,2.3184,2.512,2.7375,2.9985,3.1824,3.3351,3.4534,3.3847,3.2498,3.0521,2.9043,2.7468,2.5702,2.7002,2.9377,3.2789,3.5145,3.7001,3.8366,3.9198,3.9682,3.9818,3.9772,3.9716,3.9662,3.995,3.9796,3.9219,3.8065,3.6776,3.5295,3.2718,3.1352,3.0602,0.0,0.0,0.0,0.0,0.0,0.0,0.0,0.0,0.0,0.0,0.0,0.0,0.0,0.0,0.0,0.0,0.0,0.0,0.0,0.0,0.0,0.0,0.0,0.0,0.0,0.0,0.0,0.0,0.0,0.0,0.0,0.0,0.0,0.0,0.0,3.8135,4.0467,4.0491,4.0765,4.1875,4.149,4.1634,4.2752,4.31,4.3521,4.4079,4.489,4.5331,4.5317,4.5896,4.6183,4.6162,4.6234,4.6276,4.6307,4.6308,4.6308,4.6308,4.6308,4.6308,4.6308,4.6308,4.6308,4.6308,4.6308,4.5957,4.5449,4.5449,4.5098,4.457,4.457,4.4394,4.3965,0.0,0.0,0.0,0.0,0.0,0.0,2.0203,2.1012,2.2254,2.3987,2.6474,2.9097,3.1727,3.3507,3.4564,3.4693,3.3848,3.2267,2.9757,2.8756,2.7537,2.5889,2.8232,3.1153,3.4535,3.6298,3.7553,3.8266,3.9131,3.9065,3.8099,3.8111,3.805,3.8046,3.8873,3.9258,3.9258,3.9258,3.7834,3.5507,3.4622,3.3295,3.1641,0.0,0.0,0.0,0.0,0.0,0.0,0.0,0.0,0.0,0.0,0.0,0.0,0.0,0.0,0.0,0.0,0.0,0.0,0.0,0.0,0.0,0.0,0.0,0.0,0.0,0.0,0.0,0.0,0.0,0.0,0.0,0.0,0.0,3.7136,3.8795,4.0496,4.2265,4.3193,4.3722,4.3788,4.3769,4.3746,4.3785,4.4551,4.5014,4.4935,4.5735,4.6181,4.6093,4.6154,4.6176,4.6098,4.6162,4.6231,4.6301,4.6307,4.6308,4.6308,4.6308,4.6308,4.6308,4.6308,4.6308,4.6308,4.6308,4.6308,4.6308,4.6308,4.6308,4.6308,4.6308,4.5723,4.4707,0.0,0.0,0.0,0.0,0.0,0.0,2.0277,2.152,2.2887,2.405,2.6469,2.9116,3.1787,3.2506,3.3301,3.4585,3.2748,3.0972,2.9687,2.8184,2.7691,2.8424,3.0349,3.2428,3.4623,3.6331,3.726,3.7356,3.8188,3.8419,3.8111,3.805,3.8022,3.8007,3.8257,3.8354,3.8354,3.8354,3.795,3.7238,3.6353,3.5391,3.4257,0.0,0.0,0.0,0.0,0.0,0.0,0.0,0.0,0.0,0.0,0.0,0.0,0.0,0.0,0.0,0.0,0.0,0.0,0.0,0.0,0.0,0.0,0.0,0.0,0.0,0.0,0.0,0.0,0.0,0.0,0.0,0.0,3.7926,3.9039,4.0081,4.1629,4.4003,4.3947,4.4208,4.5467,4.5018,4.4902,4.5542,4.5766,4.5857,4.5842,4.6033,4.6095,4.6027,4.6095,4.613,4.6176,4.6181,4.6238,4.6301,4.6307,4.6308,4.6308,4.6308,4.6308,4.6308,4.6308,4.6308,4.6308,4.6308,4.6308,4.6308,4.6308,4.6308,4.6308,4.6308,4.5351,4.3906,0.0,0.0,0.0,0.0,0.0,0.0,2.0285,2.1748,2.318,2.4083,2.6825,2.943,3.1352,3.2205,3.2765,3.3046,3.168,3.0157,2.8617,2.7893,2.8459,3.0504,3.1903,3.361,3.5704,3.6663,3.7109,3.7007,3.7072,3.6883,3.6471,3.6425,3.6411,3.643,3.7142,3.7469,3.7488,3.7853,3.8007,3.7969,3.745,3.6969,3.6411,3.5026,3.4199,3.368,3.2852,3.2083,3.1371,3.0852,0.0,0.0,0.0,0.0,0.0,0.0,0.0,0.0,0.0,0.0,0.0,0.0,0.0,0.0,0.0,0.0,0.0,0.0,0.0,0.0,0.0,0.0,0.0,0.0,3.7636,4.0213,4.1813,4.2446,4.3427,4.5325,4.5091,4.5191,4.6191,4.584,4.574,4.6254,4.6245,4.6189,4.6158,4.6123,4.6056,4.5964,4.6047,4.6113,4.6166,4.619,4.6236,4.6295,4.6307,4.6308,4.6308,4.6308,4.6308,4.6308,4.6308,4.6308,4.6308,4.6308,4.6308,0.0,0.0,0.0,0.0,0.0,4.4336,4.3027,0.0,0.0,0.0,0.0,0.0,0.0,2.0292,2.1772,2.3222,2.409,2.7134,2.9581,3.0552,3.1952,3.2238,3.078,3.0489,2.9455,2.729,2.8049,2.9689,3.2148,3.3085,3.4658,3.7019,3.6994,3.6888,3.6707,3.5869,3.4967,3.4045,3.4045,3.4045,3.4122,3.5718,3.643,3.6488,3.7353,3.7777,3.7853,3.7853,3.7853,3.7777,3.6988,3.6699,3.6622,3.5892,3.4699,3.3449,3.3256,0.0,0.0,0.0,0.0,0.0,0.0,0.0,0.0,0.0,0.0,0.0,0.0,0.0,0.0,0.0,0.0,0.0,0.0,0.0,0.0,0.0,0.0,0.0,0.0,3.9649,4.2129,4.4647,4.5079,4.544,4.6211,4.6308,4.6308,4.6308,4.6308,4.6308,4.6301,4.6231,4.6169,4.6088,0.0,0.0,0.0,0.0,4.6093,4.6104,4.6181,4.624,4.63,4.6306,4.6308,4.6308,4.6308,4.6308,4.6308,4.6308,4.6308,4.6308,4.6308,4.623,4.6152,4.6152,4.6152,4.5937,4.4199,4.3066,4.2285,0.0,0.0,0.0,0.0,0.0,0.0,2.0289,2.1787,2.3236,2.416,2.6101,2.7994,2.9585,2.9464,2.9433,2.9806,2.8557,2.7815,2.803,2.9474,3.1153,3.3066,3.3983,3.5009,3.622,3.6162,3.5728,3.4894,3.4659,3.4067,3.3141,3.3141,3.3141,3.3199,3.4218,3.468,3.4737,3.5622,3.6372,3.6949,3.6949,3.6949,3.693,3.6757,3.6699,3.668,3.6526,3.6699,3.6815,3.5449,3.4795,3.4141,3.191,3.0621,0.0,0.0,0.0,0.0,0.0,0.0,0.0,0.0,0.0,0.0,0.0,0.0,0.0,0.0,0.0,0.0,0.0,0.0,0.0,3.8851,4.0957,4.2812,4.4725,4.5618,4.6113,4.6289,4.6308,4.6308,4.6308,4.6308,4.6308,4.6301,4.6231,4.6169,4.6088,4.6047,4.6025,4.6056,4.6095,4.6127,4.617,4.625,4.6292,4.63,0.0,0.0,4.6308,4.6308,4.6308,4.6308,4.6308,4.6308,4.6308,4.6308,4.5898,4.5254,4.5254,4.5254,4.5039,4.3281,4.2539,4.2285,0.0,0.0,0.0,0.0,0.0,0.0,2.0296,2.1789,2.3089,2.3576,2.5556,2.7231,2.8148,2.8279,2.8303,2.8305,2.7505,2.7563,2.8869,3.0528,3.2226,3.3964,3.4881,3.5555,3.5986,3.5938,3.5626,3.5048,3.4138,3.3434,3.2935,3.2499,3.2295,3.2352,3.3622,3.4199,3.4257,3.5141,3.5738,3.6103,3.6103,3.6103,3.6199,3.7026,3.7353,3.7353,3.7353,3.7353,3.7219,3.6392,3.5834,3.5199,3.3487,3.2083,3.0794,0.0,0.0,0.0,0.0,0.0,0.0,0.0,0.0,0.0,0.0,0.0,0.0,0.0,0.0,3.3324,3.5048,0.0,3.7502,4.0137,4.1582,4.2856,4.4173,4.4726,4.5312,4.6191,4.6308,4.6308,4.6308,4.6308,4.6307,4.6295,4.6245,4.6169,4.6099,4.6066,4.6065,4.6113,4.613,4.6164,4.6196,4.6269,4.6293,4.6301,4.6307,4.6308,4.6308,4.6308,4.6308,4.6308,4.6308,4.6308,4.6269,4.582,4.5391,4.4902,4.4043,4.3691,4.3594,4.2715,4.1875,4.1094,0.0,0.0,0.0,0.0,0.0,0.0,2.0304,2.1655,2.2687,2.2731,2.4736,2.6169,2.6242,2.6874,2.7073,2.6546,2.6802,2.7817,2.9708,3.1407,3.3124,3.4881,3.5623,3.6004,3.6009,3.5929,3.5762,3.5491,3.4042,3.3227,3.2983,3.2281,3.1948,3.2006,3.3526,3.4199,3.4257,3.5141,3.5493,3.5493,3.5493,3.5493,3.5641,3.6815,3.7373,3.7507,3.7507,3.7065,3.6449,3.6276,3.5776,3.5103,3.4218,3.291,3.1525,3.066,2.9313,0.0,0.0,0.0,0.0,0.0,0.0,0.0,0.0,3.1487,3.306,3.3768,3.4727,3.5942,3.7512,3.8371,3.9422,4.116,4.198,4.2707,4.3574,4.3691,4.4219,4.5625,4.5937,4.6055,4.6055,4.6191,4.6225,4.6069,4.5981,4.5857,4.5632,4.5616,4.5697,4.5861,4.5916,4.6033,4.6196,4.6245,4.6278,4.6288,4.6289,4.6289,4.6308,4.6308,4.6308,4.6308,4.6308,4.6308,4.6211,4.5176,4.4746,4.457,4.2832,4.2168,4.2168,4.2168,4.1191,3.9902,0.0,0.0,0.0,0.0,0.0,0.0,0.0,0.0,2.1834,2.1843,2.2828,2.3536,2.3532,2.3615,2.395,2.4631,2.6117,2.803,3.0509,3.2285,3.4022,3.5779,3.5952,3.6007,3.5997,3.5938,3.5519,3.4711,3.4415,3.3819,3.3001,3.2906,3.282,3.2814,3.3776,3.4199,3.4257,3.5141,3.5493,3.5493,3.5493,3.5493,3.5449,3.4853,3.5103,3.5795,3.5795,3.5718,3.5526,3.4737,3.441,3.418,3.3314,3.2429,3.1525,3.066,2.9717,2.8978,2.9038,3.0231,3.1271,3.0581,3.1656,3.2688,0.0,3.3757,3.5594,3.5681,3.7011,3.8456,3.9435,3.9683,4.0312,4.1992,4.2343,4.2695,4.3574,4.3691,4.3769,4.3965,4.4668,4.5156,4.5156,4.585,4.5975,4.5194,4.5089,4.4702,4.391,4.3892,4.4234,4.5001,4.5033,4.5417,4.6196,4.6209,4.6221,4.6209,4.6208,4.623,4.6308,4.6308,4.6308,4.6308,4.6308,4.6308,4.6172,4.4512,4.3848,4.3672,4.1992,4.1328,4.1328,4.1328,4.0723,3.9902,0.0,0.0,0.0,0.0,0.0,0.0,0.0,0.0,2.1715,2.1749,2.2546,2.3096,2.3107,2.309,2.3443,2.4319,2.598,2.7876,2.9962,3.2168,3.3944,3.5193,3.574,3.6007,3.6001,3.5974,3.5753,3.5353,3.4761,3.4242,3.3799,3.3261,3.2991,3.2993,3.3827,3.4199,3.4257,3.5141,3.5493,3.5493,3.5493,3.5199,3.4699,3.4334,3.3506,3.259,3.3122,3.3295,0.0,3.2275,3.1987,3.2006,3.216,3.1275,3.0314,3.0968,3.0179,2.9239,2.9794,3.0897,3.1825,3.1521,3.2795,3.4038,3.3692,3.4853,3.6144,3.6657,3.734,3.8107,3.898,3.9569,4.0137,0.0,4.1367,4.1836,4.2187,4.1816,4.1484,4.1484,4.2266,4.3164,4.4141,4.4562,4.4641,4.4278,4.4231,4.4027,4.361,4.3649,4.3831,4.4182,4.4197,4.4592,4.5436,4.5442,4.5708,4.6201,4.6209,4.6246,4.6308,4.6308,4.6308,4.6308,4.6308,4.6308,4.6152,4.4414,4.3691,4.3535,4.1855,4.1191,4.1191,4.1191,4.0332,3.9141,0.0,0.0,0.0,0.0,0.0,0.0,0.0,0.0,0.0,0.0,2.199,2.2396,2.2408,2.2408,2.2857,2.3948,2.5414,2.7229,2.9457,3.1543,3.33,3.4647,3.5291,3.5757,3.5985,3.6001,3.5986,3.5933,3.5236,3.4851,3.4768,3.4049,3.3732,3.3742,3.4321,3.4564,3.4603,3.5238,3.5493,3.5493,3.5493,3.4988,3.4141,3.368,3.2218,3.0475,3.1121,3.0891,3.0237,2.9852,2.9563,2.9506,3.039,2.9794,2.9025,3.0275,2.9921,2.9377,3.053,3.1543,3.2329,3.2635,3.3912,3.5069,3.5061,3.5737,3.6545,3.7165,3.7482,3.7844,3.8476,3.9121,3.9629,3.9863,4.043,4.0937,4.1172,4.0449,3.9902,3.9902,4.0234,4.1055,4.2519,4.3294,4.3609,4.3357,4.3339,4.3226,4.2935,4.2953,4.31,4.3337,4.3344,4.3826,4.4871,4.4871,4.5312,4.6162,4.6181,4.6248,4.6308,4.6308,4.6172,4.5937,4.5937,4.5801,4.5469,4.3965,4.334,4.3203,4.1758,4.1191,4.1172,4.0937,3.9883,3.8574,0.0,0.0,0.0,0.0,0.0,0.0,0.0,0.0,0.0,0.0,2.057,2.0601,2.0671,2.0671,2.1335,2.2994,2.397,2.5941,2.9377,3.0392,3.2012,3.4588,3.4725,3.5135,3.5971,3.6004,3.5997,3.5997,3.5894,3.5827,3.5753,3.5592,3.5516,3.5514,3.5476,3.5468,3.5468,3.5488,3.5493,3.5493,3.5493,3.4988,3.4007,3.2391,3.1198,3.0398,3.0417,2.8852,2.689,2.7698,2.7409,2.6871,2.7736,2.7986,2.7948,2.8005,2.8587,2.9564,3.1284,3.2441,3.3381,3.43,3.5247,3.5951,3.5968,3.6628,3.7278,3.7285,3.7963,3.8574,3.8594,3.8613,3.8926,3.9766,3.9922,4.0234,4.1074,4.0449,3.9902,3.9902,3.918,3.9023,0.0,4.2243,4.3349,4.2497,4.2448,4.2069,4.1226,4.1179,4.1576,4.2415,4.2432,4.3199,4.4783,4.4803,4.5239,4.6102,4.6162,4.6231,4.6301,4.6308,4.584,4.5039,4.5039,4.4551,4.3711,4.2812,4.2441,4.2363,4.1523,4.1191,4.1094,4.0254,3.9375,3.8476,0.0,0.0,0.0,0.0,0.0,0.0,0.0,0.0,0.0,0.0,0.0,0.0,0.0,0.0,0.0,0.0,2.3597,2.5139,2.6898,2.9396,3.1192,3.207,3.3222,3.3964,3.4276,3.4839,3.5149,3.5142,3.5641,3.5878,3.5794,3.5717,3.5648,3.5608,3.5534,3.5515,3.5493,3.5493,3.518,3.4641,3.4641,3.3449,3.1621,3.1064,2.9621,2.7813,0.0,2.6456,2.562,2.4793,2.4312,2.4235,2.5111,2.538,2.5707,2.739,2.851,2.9574,3.1333,3.248,3.3432,3.4367,3.4871,3.5139,3.5132,3.4915,3.4706,3.4705,3.4941,3.5156,3.5156,3.6094,3.6973,3.7266,3.8281,3.9141,3.9434,3.9219,3.9043,3.9043,3.9297,0.0,0.0,0.0,0.0,4.1521,4.1537,4.1406,4.1114,4.1091,4.1232,4.1535,4.148,4.1999,4.3063,4.3636,4.4365,4.525,4.5884,4.6234,4.6288,4.5703,4.5273,4.4961,4.4394,4.3965,4.3633,4.2754,4.2402,4.2324,4.1504,4.1191,4.1016,3.957,3.8848,3.8476,0.0,0.0,0.0,0.0,0.0,0.0,0.0,0.0,0.0,0.0,0.0,0.0,0.0,0.0,0.0,0.0,0.0,2.4124,2.5609,2.7756,2.9396,3.0333,3.1446,3.2187,3.2461,3.3027,3.3453,3.3763,3.4293,3.4832,3.5379,3.5294,3.5398,3.5635,3.5553,3.5509,3.5488,3.518,3.4526,3.3699,3.341,3.1948,2.991,2.9621,2.8294,0.0,2.5293,2.487,2.4716,2.362,2.3071,2.3004,2.4159,2.4745,2.537,2.7334,2.8742,3.0047,3.1797,3.2723,3.3421,3.4333,3.4372,3.4203,3.4202,3.3541,3.2947,3.2949,3.2715,3.2598,3.291,3.3887,3.4941,3.5859,3.6934,3.8008,3.8926,3.8809,3.8711,3.9023,3.9277,3.9551,0.0,0.0,0.0,4.1045,4.1097,4.1101,4.1095,4.11,4.1095,4.1065,4.0996,4.1343,4.216,4.3025,4.4074,4.5279,4.5898,4.6066,4.578,4.5234,4.4668,4.4043,4.3476,4.3066,4.2754,4.2207,4.1973,4.1914,4.1406,4.1016,4.0566,3.9121,3.8398,3.8008,0.0,0.0,0.0,0.0,0.0,0.0,0.0,0.0,0.0,0.0,0.0,0.0,0.0,0.0,0.0,0.0,0.0,0.0,2.5356,2.5629,2.68,2.9298,2.9494,2.9884,3.0665,3.0723,3.1133,3.1973,3.2004,3.2869,3.4462,3.4406,3.4805,3.5572,3.543,3.5374,3.5315,3.443,3.3564,3.2699,3.1891,3.0525,2.889,2.8121,2.7294,2.6313,2.4687,2.411,2.4091,2.4052,2.3514,2.3158,2.4851,2.5929,2.6786,2.7749,2.9197,3.0907,3.2687,3.318,3.34,3.4276,3.3854,3.3218,3.318,3.256,3.1955,3.1913,3.1309,3.1016,3.1855,3.207,3.2949,3.541,3.5879,3.6836,3.9414,3.9082,3.8926,0.0,0.0,0.0,0.0,0.0,0.0,4.1035,0.0,4.1094,4.1109,4.1096,4.1056,4.1006,4.0929,4.1257,4.2028,4.2939,4.4295,4.6027,4.6099,4.5707,4.4895,4.4882,4.3965,4.2402,4.2363,4.1914,4.1191,4.1191,4.1191,4.1191,4.1191,4.0664,3.9785,3.8926,3.8047,3.7187,0.0,0.0,0.0,0.0,0.0,0.0,0.0,0.0,0.0,0.0,0.0,0.0,0.0,0.0,0.0,0.0,0.0,0.0,2.2839,2.4653,2.6,2.6663,2.7932,2.8732,2.8928,2.9572,3.0001,3.0235,3.0833,3.1679,3.2747,3.2674,3.3045,3.3761,3.3727,3.3658,3.3506,3.2699,3.1833,3.0968,3.0102,2.8756,2.7217,2.7005,2.639,2.5505,2.4476,2.411,2.3995,2.336,2.3426,2.406,2.5736,2.6458,2.7092,2.9217,3.0182,3.1099,3.348,3.3682,3.3417,3.4276,3.34,3.2174,3.1563,3.0774,2.9994,2.9389,2.9101,2.9023,2.9258,3.0351,3.166,3.2969,3.4219,0.0,3.7695,3.832,0.0,3.9805,0.0,4.0625,4.0859,4.0879,0.0,0.0,4.1103,4.1097,4.11,4.1056,4.0981,4.0929,4.0917,4.0974,4.1141,4.2637,4.3973,4.5123,4.5204,4.5117,4.4862,4.3612,4.2812,4.2363,4.1777,4.1387,4.1191,4.1191,4.1191,4.1191,4.1191,4.0664,3.9785,3.8926,3.8045,3.7172,0.0,0.0,0.0,0.0,0.0,0.0,0.0,0.0,0.0,0.0,0.0,0.0,0.0,0.0,0.0,0.0,0.0,0.0,0.0,2.4331,2.5304,2.5687,2.6644,2.7151,2.7151,2.7268,2.7698,2.8461,2.8533,2.938,3.0962,3.0881,3.1268,3.1997,3.198,3.1907,3.1761,3.0922,3.0063,0.0,0.0,2.7217,2.6024,2.6024,2.5726,2.5245,2.4793,2.487,2.5236,2.5466,2.5909,2.6574,2.7885,2.8627,2.9253,3.0694,3.1668,3.2551,3.3619,3.3596,3.3262,3.3374,3.215,3.0773,3.0326,2.8983,2.771,2.7249,2.6853,2.6719,2.709,2.8574,3.0293,3.1934,3.3613,0.0,3.7578,3.8613,3.9492,0.0,4.0898,0.0,4.1191,4.117,4.114,0.0,4.1108,4.1108,4.11,4.1033,4.0972,4.0897,4.0868,4.102,4.1381,4.2346,4.3294,4.4229,4.43,4.4137,4.3773,4.2822,4.2207,4.1855,0.0,4.1191,4.1191,4.1191,4.1191,4.1152,4.0781,4.0098,3.9219,3.8357,3.7477,3.6665,0.0,0.0,0.0,0.0,0.0,0.0,0.0,0.0,0.0,0.0,0.0,0.0,0.0,0.0,0.0,0.0,0.0,0.0,0.0,0.0,2.4745,2.5497,2.5633,2.5709,2.5707,2.4963,2.5317,2.6822,2.6078,2.6891,2.9179,2.9104,2.9505,3.0273,3.0201,3.0123,3.0012,2.9143,2.8371,2.764,2.6774,2.5967,2.5303,0.0,2.5303,2.5303,2.5303,2.5928,2.7005,2.8574,2.9231,2.9543,3.0539,3.142,3.2103,3.2216,3.3332,3.434,3.3582,3.3343,3.3083,3.224,3.0748,2.9479,2.9357,2.7459,2.5671,2.5556,2.4839,2.4492,2.5371,2.6953,2.8945,3.1445,0.0,3.5449,3.8066,3.918,4.0098,4.1074,4.1191,4.1191,4.1191,4.1138,4.1105,4.1097,4.1096,4.11,4.1091,4.1013,4.096,4.0897,4.0826,4.1153,4.1911,4.2036,4.2507,4.3335,4.3393,4.3078,4.239,4.2279,4.1853,4.1191,4.1191,4.1191,4.1191,4.1191,4.1191,4.1113,4.0351,3.9452,3.8513,3.7736,3.6821,3.5978,0.0,0.0,0.0,0.0,0.0,0.0,0.0,0.0,0.0,0.0,0.0,0.0,0.0,0.0,0.0,0.0,0.0,0.0,0.0,0.0,0.0,2.4628,2.5311,2.5696,2.5707,2.5551,2.5629,2.5922,2.5765,2.6288,2.7432,2.7351,2.7766,2.8541,2.847,2.8394,2.828,2.7411,2.6948,2.6755,2.589,2.5418,2.5303,2.5303,0.0,0.0,2.5303,2.6332,2.7843,2.8846,2.9678,3.054,3.2154,3.2839,3.3191,3.3922,3.434,3.4555,3.4411,3.3846,3.3092,3.2288,3.0789,2.9309,2.8593,2.7006,2.5492,2.4762,2.3981,2.3652,2.4473,2.6055,2.7851,2.9746,3.2051,3.4531,3.7168,3.8281,3.9414,0.0,4.1191,4.1171,4.1119,4.11,0.0,0.0,4.1059,4.1018,4.1025,4.0957,4.0897,4.0812,4.0808,4.0873,4.1033,4.1745,4.2216,4.2422,4.2498,4.2487,4.237,4.1654,4.1287,4.1191,4.1191,0.0,4.1191,4.1191,4.1191,4.1172,4.0967,3.995,3.858,3.8374,3.7279,3.5905,0.0,0.0,0.0,0.0,0.0,0.0,0.0,0.0,0.0,0.0,0.0,0.0,0.0,0.0,0.0,0.0,0.0,0.0,0.0,0.0,0.0,2.5053,2.5038,2.5233,2.5696,2.526,2.5258,2.5707,0.0,2.5469,2.6323,2.6286,2.6455,2.6806,2.6728,2.6672,2.6625,2.6167,2.5976,2.5948,2.5515,2.5322,2.5303,2.5303,0.0,0.0,2.5303,2.612,2.7353,2.8231,2.9429,3.0864,3.2589,3.3211,3.3465,3.4341,3.4617,3.4554,3.4109,3.3668,3.3054,3.1786,3.0164,2.8642,2.7764,2.5899,2.4118,2.3261,2.2789,2.2773,2.3574,2.5527,2.7578,2.9316,3.2129,3.4824,3.6992,3.8437,3.9766,4.1055,4.1169,4.1138,4.11,4.11,4.1084,4.1052,4.0984,4.096,4.0957,4.0888,4.0837,4.08,4.0815,4.0796,4.0804,4.1214,4.147,4.1576,4.1614,4.163,4.1649,4.1264,4.1126,4.1151,4.1151,4.1151,4.1151,4.1151,4.1149,4.1105,4.0606,3.9934,3.9168,3.8672,3.7955,3.7203,0.0,0.0,0.0,0.0,0.0,0.0,0.0,0.0,0.0,0.0,0.0,0.0,0.0,0.0,0.0,0.0,0.0,0.0,0.0,0.0,0.0,0.0,2.5032,2.4999,2.5683,0.0,0.0,2.5707,2.5004,0.0,0.0,0.0,0.0,0.0,2.5554,2.5518,2.5525,2.5441,2.5421,0.0,0.0,2.5485,2.5592,0.0,0.0,0.0,0.0,2.5871,2.6728,2.7412,2.8728,3.0307,3.1693,3.2674,3.3414,3.3921,3.4367,3.4507,3.3634,3.341,3.3044,3.154,2.9724,2.8064,2.7204,2.4974,2.288,2.2078,2.1755,2.1914,2.293,2.4922,2.7012,2.8769,3.1777,3.4492,3.6211,3.8125,3.9746,4.08,4.1033,0.0,4.1097,4.1097,0.0,4.0972,4.0924,4.0878,4.0878,4.0826,4.0788,4.0808,4.0803,4.0808,4.0796,4.0796,4.0858,4.0974,4.0976,4.1,4.0992,4.1055,4.1072,4.1077,4.1077,4.1077,4.1077,4.1077,4.1072,4.1019,4.0313,3.995,3.9701,3.9,3.8599,3.8384,0.0,0.0,0.0,0.0,0.0,0.0,0.0,0.0,0.0,0.0,0.0,0.0,0.0,0.0,0.0,0.0,0.0,0.0,0.0,0.0,0.0,0.0,0.0,0.0,0.0,0.0,0.0,2.5707,2.5629,0.0,0.0,0.0,0.0,0.0,0.0,2.5587,2.5595,2.5517,0.0,0.0,0.0,0.0,0.0,0.0,0.0,0.0,0.0,2.59,2.6708,2.6782,2.7481,2.8359,2.8598,3.0843,3.3258,3.2541,3.3467,3.4513,3.3631,3.3398,3.3183,3.2305,3.0176,2.8066,2.7207,2.498,2.2871,2.207,2.1269,2.1211,2.2812,2.3945,2.5215,2.6953,2.9492,3.1836,3.3516,3.5937,3.8163,3.9828,0.0,0.0,4.1095,4.1042,4.0974,4.0913,4.0839,4.0812,4.0812,4.08,4.0808,4.0803,4.079,4.0796,4.08,4.08,4.0834,4.0907,4.0906,4.0937,4.1006,4.1013,4.1006,4.1006,4.1006,4.1006,0.0,4.1006,4.1006,4.1,4.0922,4.0412,3.9693,3.9621,3.9052,3.8297,0.0,0.0,0.0,0.0,0.0,0.0,0.0,0.0,0.0,0.0,0.0,0.0,0.0,0.0,0.0,0.0,0.0,0.0,0.0,0.0,0.0,0.0,0.0,0.0,0.0,0.0,2.5956,2.6477,2.647,0.0,0.0,0.0,0.0,0.0,0.0,2.5667,2.5658,2.5579,0.0,0.0,0.0,0.0,0.0,0.0,0.0,0.0,0.0,0.0,2.592,2.5948,2.6592,2.7298,2.6833,2.8376,3.0479,3.1177,3.1867,3.2556,3.3223,3.3047,3.2598,3.2285,3.0234,2.8066,2.7207,2.498,2.2871,2.207,2.1621,2.1738,2.2891,2.4238,2.5586,2.6797,2.9199,3.1484,3.3156,3.5193,3.7347,3.9587,4.0117,0.0,0.0,0.0,4.0907,4.0839,4.0823,4.0808,4.0796,4.0796,4.0803,4.079,4.079,4.0803,4.08,4.08,4.0823,4.0848,4.0878,4.0907,4.0945,4.0949,4.0945,4.0945,4.0933,4.094,0.0,4.094,4.0933,4.0945,4.0937,4.0721,4.0413,4.0432,4.016,3.9796,0.0,0.0,0.0,0.0,0.0,0.0,0.0,0.0,0.0,0.0,0.0,0.0,0.0,0.0,0.0,0.0,0.0,0.0,0.0,0.0,0.0,0.0,0.0,0.0,0.0,0.0,2.6503,2.738,2.737,2.7386,0.0,0.0,2.6927,2.6088,0.0,0.0,0.0,0.0,0.0,0.0,0.0,0.0,0.0,0.0,0.0,0.0,0.0,0.0,0.0,0.0,0.0,2.6451,2.5876,2.6535,2.7876,2.962,3.0506,3.1211,3.2656,3.2637,3.2207,3.2207,3.0234,2.8066,2.7207,2.5176,2.3242,2.2422,2.2246,2.2519,2.332,2.4492,2.5684,2.6816,2.8769,3.0717,3.241,3.435,3.6362,3.841,0.0,3.9996,0.0,4.0771,4.0849,4.0788,4.0808,4.0796,4.079,4.079,4.079,4.079,4.079,4.0803,4.0808,4.0808,4.08,4.0804,4.0846,4.0876,4.0856,4.0869,4.0878,4.0878,4.0867,4.0876,0.0,4.0876,4.0867,4.0878,4.0878,4.0869,4.0876,4.0876,4.0843,4.0808,0.0,0.0,0.0,0.0,0.0,0.0,0.0,0.0,0.0,0.0,0.0,0.0,0.0,0.0,0.0,0.0,0.0,0.0,0.0,0.0,0.0,0.0,0.0,0.0,0.0,0.0,0.0,2.8299,2.8291,2.8283,2.8283,2.8298,2.7825,2.6986,0.0,0.0,0.0,0.0,0.0,0.0,0.0,0.0,2.809,0.0,0.0,0.0,0.0,0.0,0.0,0.0,0.0,0.0,0.0,2.5701,2.6078,2.7817,2.9547,3.1094,3.1973,3.2207,3.2207,3.2207,3.0234,2.8066,2.7207,2.5644,2.4141,2.3262,2.3086,2.3359,2.4238,2.4394,2.498,2.6719,2.7747,2.8915,3.0594,3.3078,3.5026,0.0,0.0,3.9704,3.9719,4.0363,4.0808,4.0803,4.079,0.0,4.079,4.079,4.079,4.079,4.079,4.079,4.079,4.079,4.079,4.079,4.0808,4.08,4.08,4.0796,4.0807,4.0807,4.0807,4.0787,0.0,4.0787,4.0807,4.0807,4.0807,4.0804,4.08,4.08,4.0796,4.079,0.0,0.0,0.0,0.0,0.0,0.0,0.0,0.0,0.0,0.0,0.0,0.0,0.0,0.0,0.0,0.0,0.0,0.0,0.0,0.0,0.0,0.0,0.0,0.0,0.0,0.0,0.0,0.0,2.9189,2.9181,2.9181,2.9181,2.8711,2.7852,2.7264,2.6854,0.0,0.0,0.0,0.0,0.0,2.9624,2.9817,0.0,0.0,0.0,0.0,0.0,0.0,0.0,0.0,0.0,0.0,0.0,0.0,2.7075,2.7808,2.8555,3.0019,3.043,3.043,3.043,2.9355,2.8066,2.7207,2.5644,2.4316,2.4043,2.3984,2.4062,2.4355,2.5368,2.6351,2.6916,2.8688,3.0396,3.1539,3.3388,0.0,3.7369,3.9287,4.0447,0.0,0.0,4.0803,4.079,4.079,4.079,4.079,4.079,4.079,4.079,4.079,4.079,4.079,4.079,4.079,4.079,4.0803,4.0803,4.0803,4.0796,4.0808,4.0808,4.0808,4.0808,4.0808,4.0808,4.0808,4.0808,4.0808,4.0796,4.0803,4.0803,4.0803,4.079,0.0,0.0,0.0,0.0,0.0,0.0,0.0,0.0,0.0,0.0,0.0,0.0,0.0,0.0,0.0,0.0,0.0,0.0,0.0,0.0,0.0,0.0,0.0,0.0,0.0,0.0,0.0,0.0,0.0,0.0,3.004,3.004,2.9591,2.8771,2.8225,2.7798,0.0,0.0,0.0,0.0,2.9858,3.0291,3.0647,0.0,0.0,0.0,0.0,0.0,0.0,0.0,0.0,0.0,0.0,0.0,0.0,0.0,2.6502,2.6894,2.8633,2.9101,2.9101,2.9101,2.8457,2.7676,2.7129,2.5918,2.4883,2.4883,2.5156,2.5371,2.5388,2.6542,2.7585,2.7887,2.9552,3.1091,3.1935,3.3782,0.0,3.851,0.0,0.0,0.0,4.0803,4.079,4.079,4.079,4.079,4.079,4.079,4.079,4.079,4.079,4.079,4.079,4.079,4.079,4.079,4.079,4.079,4.079,4.079,4.079,4.079,4.079,4.079,0.0,4.079,4.079,4.079,4.079,4.079,4.079,4.079,4.079,4.079,0.0,0.0,0.0,0.0,0.0,0.0,0.0,0.0,0.0,0.0,0.0,0.0,0.0,0.0,0.0,0.0,0.0,0.0,0.0,0.0,0.0,0.0,0.0,0.0,0.0,0.0,0.0,3.0801,3.087,3.088,3.0801,0.0,3.0392,2.9669,2.9632,2.9142,0.0,0.0,0.0,0.0,3.0462,3.0801,0.0,0.0,0.0,0.0,0.0,0.0,0.0,0.0,0.0,0.0,0.0,0.0,0.0,0.0,0.0,0.0,0.0,2.8242,2.8281,2.8223,2.7656,2.707,2.7012,2.6328,0.0,2.5781,2.6445,2.703,2.7086,2.7796,2.8647,2.9445,3.038,3.1254,3.2062,3.4381,0.0,0.0,3.9561,0.0,4.0725,4.0848,4.0848,4.079,4.0848,4.0848,4.079,4.079,4.079,4.079,4.079,4.079,4.079,4.079,4.079,4.079,4.079,4.079,4.079,4.079,4.079,0.0,4.079,4.079,4.079,4.079,4.079,4.079,4.079,4.079,4.079,4.079,4.079,4.079,0.0,0.0,0.0,0.0,0.0,0.0,0.0,0.0,0.0,0.0,0.0,0.0,0.0,0.0,0.0,0.0,0.0,0.0,0.0,0.0,0.0,0.0,0.0,0.0,0.0,0.0,0.0,3.0877,3.0892,3.0899,3.088,3.0821,0.0,0.0,0.0,0.0,0.0,0.0,0.0,0.0,3.0721,3.0794,0.0,0.0,0.0,0.0,2.8262,2.7426,0.0,0.0,0.0,0.0,0.0,0.0,0.0,0.0,2.6172,2.6777,2.7187,0.0,2.8144,2.7461,2.7656,2.7812,0.0,2.6328,2.5898,2.6562,2.6851,2.7198,2.7876,2.8661,2.9469,3.0296,3.1702,3.2985,3.3794,3.6067,0.0,3.9344,4.0087,4.0571,4.0771,4.1351,4.1448,4.0848,4.1371,4.1448,4.0829,4.079,4.079,4.079,4.079,4.079,4.079,4.079,4.079,4.079,4.079,4.079,4.079,4.079,4.079,4.079,4.079,4.079,4.079,4.079,4.079,4.079,4.079,4.079,4.079,4.079,4.079,4.079,0.0,0.0,0.0,0.0,0.0,0.0,0.0,0.0,0.0,0.0,0.0,0.0,0.0,0.0,0.0,0.0,0.0,0.0,0.0,0.0,0.0,0.0,0.0,0.0,0.0,0.0,0.0,0.0,0.0,3.0903,0.0,0.0,0.0,0.0,0.0,0.0,0.0,0.0,0.0,3.0801,3.0801,0.0,0.0,0.0,0.0,0.0,2.8605,2.7747,0.0,2.5998,2.5693,2.5699,0.0,0.0,0.0,0.0,2.6621,2.709,2.748,2.7949,2.8184,2.7715,2.7949,2.8184,2.7695,2.7226,2.7031,2.7497,2.7908,2.8322,2.8763,2.9839,3.0787,3.1222,3.2722,3.4395,3.598,0.0,3.9131,3.999,4.05,4.079,0.0,4.1177,4.1274,4.0829,4.1197,4.1255,4.081,4.079,4.079,4.079,4.079,4.079,4.079,4.079,4.079,4.079,4.079,4.079,4.079,4.079,4.079,4.079,4.079,4.079,4.079,4.079,4.079,4.079,4.079,4.079,4.0829,4.1216,4.1351,4.1409,0.0,0.0,0.0,0.0,0.0,0.0,0.0,0.0,0.0,0.0,0.0,0.0,0.0,0.0,0.0,0.0,0.0,0.0,0.0,0.0,0.0,0.0,0.0,0.0,0.0,0.0,0.0,0.0,0.0,0.0,0.0,0.0,3.0901,0.0,0.0,0.0,0.0,0.0,3.0821,3.0821,3.0821,0.0,0.0,0.0,0.0,0.0,0.0,0.0,0.0,2.5984,2.5699,2.5703,2.5703,0.0,0.0,0.0,0.0,0.0,2.8301,2.8691,2.8867,2.873,2.8789,2.8847,2.871,2.8593,2.8495,2.85,2.9074,2.9649,2.9829,3.104,3.211,3.2504,3.396,3.5863,3.8078,3.9023,3.9816,4.0694,4.079,0.0,4.079,4.0906,4.0926,4.081,4.0906,4.0926,4.081,4.079,4.079,4.079,4.079,4.079,4.079,4.079,4.079,4.079,4.079,4.079,4.079,4.079,4.079,4.079,4.079,0.0,4.079,4.079,4.079,4.081,4.0945,4.0984,4.1081,4.1893,4.2202,4.2318,0.0,0.0,0.0,0.0,0.0,0.0,0.0,0.0,0.0,0.0,0.0,0.0,0.0,0.0,0.0,0.0,0.0,0.0,0.0,0.0,0.0,0.0,0.0,0.0,0.0,0.0,0.0,0.0,0.0,0.0,3.0892,3.0892,3.0909,3.0899,0.0,0.0,0.0,0.0,3.088,3.088,3.088,0.0,0.0,0.0,0.0,0.0,0.0,0.0,0.0,2.5994,2.5703,2.5703,2.5703,0.0,0.0,0.0,0.0,0.0,2.9355,3.0488,3.1426,3.0684,3.1011,3.1348,3.0669,2.9934,2.9408,2.9396,2.9455,2.9942,3.1352,3.1838,3.2698,3.4797,3.6529,3.8017,0.0,0.0,3.9816,4.0694,0.0,4.079,4.079,4.1409,4.1525,4.0848,4.1429,4.1525,4.0829,4.079,4.079,4.079,4.079,4.079,4.079,4.079,4.079,4.079,4.079,4.079,4.079,4.079,4.079,4.079,0.0,4.079,4.079,4.079,4.079,4.0868,4.1545,4.1816,4.1912,4.2783,4.3092,4.3227,0.0,0.0,0.0,0.0,0.0,0.0,0.0,0.0,0.0,0.0,0.0,0.0,0.0,0.0,0.0,0.0,0.0,0.0,0.0,0.0,0.0,0.0,0.0,0.0,0.0,0.0,0.0,0.0,0.0,3.0859,3.0898,3.0898,3.0896,3.0907,0.0,0.0,0.0,0.0,3.0907,3.0907,0.0,0.0,0.0,0.0,0.0,0.0,0.0,0.0,0.0,0.0,2.6016,2.6406,2.6406,0.0,0.0,0.0,0.0,0.0,3.0176,3.1543,3.2754,3.2344,3.2533,3.2703,3.2335,3.1936,3.1652,3.1648,3.1607,3.1791,3.255,3.3441,3.4708,3.6723,3.8094,3.903,3.9449,3.9913,4.0346,0.0,0.0,4.079,4.079,4.1119,4.1197,4.0829,4.1139,4.1177,4.081,4.079,4.079,4.079,4.079,4.079,4.079,4.079,4.079,4.079,4.079,4.079,4.079,4.079,4.079,4.079,4.079,4.079,4.079,4.079,4.1061,4.1487,4.1854,4.2299,4.2802,4.3692,4.4272,4.4717,0.0,0.0,0.0,0.0,0.0,0.0,0.0,0.0,0.0,0.0,0.0,0.0,0.0,0.0,0.0,0.0,0.0,0.0,0.0,0.0,0.0,0.0,0.0,0.0,0.0,0.0,3.0735,3.0798,3.0795,3.084,3.0898,3.0898,3.0898,3.0896,0.0,0.0,0.0,0.0,3.0896,3.0896,0.0,0.0,0.0,0.0,0.0,0.0,0.0,0.0,0.0,0.0,0.0,0.0,0.0,0.0,0.0,2.9394,2.9746,3.0059,3.0723,3.1992,3.3164,3.3359,3.3706,3.3994,3.3979,3.3989,3.3925,3.3716,3.3634,3.3569,3.3553,3.5096,3.6832,3.8268,3.9243,3.9797,3.9797,4.0365,4.079,4.079,4.079,4.079,4.079,4.079,4.079,4.079,4.079,4.079,4.079,4.079,4.079,4.079,4.079,4.079,4.079,4.079,4.079,4.079,4.079,4.079,4.079,4.079,4.079,4.079,4.079,4.0906,4.1081,4.1081,4.1564,4.2318,4.2531,4.3131,4.3962,4.4639,4.5278,4.58,0.0,0.0,0.0,0.0,0.0,0.0,0.0,0.0,0.0,0.0,0.0,0.0,0.0,0.0,0.0,0.0,0.0,0.0,0.0,0.0,0.0,0.0,0.0,0.0,0.0,3.0697,3.0734,3.0806,3.0808,3.0838,3.0898,3.0898,3.0898,3.0898,0.0,0.0,0.0,0.0,3.0898,3.0898,3.0898,0.0,0.0,0.0,0.0,0.0,0.0,0.0,0.0,0.0,0.0,0.0,0.0,0.0,2.9512,2.957,3.0176,3.082,3.0879,3.1582,3.2461,3.3203,3.4628,3.5806,3.5738,3.5724,3.55,3.4685,3.4457,3.4389,3.4322,3.6346,3.8334,3.9274,4.0133,4.0713,4.0713,0.0,4.079,4.079,4.079,4.079,4.079,4.079,4.079,4.079,4.079,4.079,4.079,4.079,4.079,4.079,4.079,4.079,4.079,4.079,4.079,4.079,4.079,4.079,4.079,4.079,4.079,4.079,4.079,4.1216,4.1912,4.1912,4.2415,4.3285,4.4098,4.491,4.5626,4.5684,4.5742,4.58,0.0,0.0,0.0,0.0,0.0,0.0,0.0,0.0,0.0,0.0,0.0,0.0,0.0,0.0,0.0,0.0,0.0,0.0,0.0,0.0,0.0,0.0,0.0,3.0616,3.064,3.068,3.0711,3.0739,3.0786,3.0839,3.0898,3.0898,0.0,0.0,0.0,0.0,0.0,3.0898,3.0898,3.0898,3.0898,3.0371,0.0,0.0,0.0,0.0,0.0,0.0,0.0,0.0,2.7715,2.8672,2.9004,2.9707,3.041,3.041,3.0643,3.0891,3.0891,3.152,3.2342,3.3182,3.4306,3.5461,3.648,3.6709,3.6757,3.6922,3.695,3.7063,3.7491,3.7912,3.8663,4.0075,4.0578,4.079,4.079,4.079,4.079,4.079,4.079,4.079,4.079,4.079,4.079,4.079,4.079,4.079,4.079,4.079,4.079,4.079,4.079,4.079,4.079,4.079,4.079,4.079,4.079,4.079,4.079,4.079,4.079,4.079,4.079,4.1255,4.2009,4.2009,4.2841,4.4194,4.5026,4.5529,4.58,4.58,4.58,4.58,0.0,0.0,0.0,0.0,0.0,0.0,0.0,0.0,0.0,0.0,0.0,0.0,0.0,0.0,0.0,0.0,0.0,0.0,0.0,0.0,0.0,0.0,0.0,3.0607,3.0606,3.064,3.0688,3.0698,3.0777,3.0839,3.0898,0.0,0.0,0.0,0.0,0.0,0.0,3.0898,3.0898,3.0898,3.0898,3.0371,0.0,0.0,0.0,0.0,0.0,0.0,0.0,0.0,2.8398,2.9648,2.9922,3.043,3.0898,3.0897,3.0886,3.0924,3.1201,3.168,3.2389,3.3522,3.444,3.5529,3.723,3.759,3.7813,3.8613,3.853,3.8588,3.9367,3.9004,3.9088,0.0,4.079,4.079,4.079,4.079,4.079,4.079,4.079,4.079,4.079,4.0539,4.0384,4.0384,4.0133,4.0094,4.0365,4.0384,4.052,4.079,4.079,4.079,4.079,4.079,4.079,4.079,4.079,4.079,4.079,4.079,4.079,4.079,4.079,4.1409,4.2415,4.2415,4.344,4.5026,4.5568,4.58,4.58,4.58,4.58,4.58,0.0,0.0,0.0,0.0,0.0,0.0,0.0,0.0,0.0,0.0,0.0,0.0,0.0,0.0,0.0,0.0,0.0,0.0,0.0,0.0,0.0,0.0,0.0,3.0598,3.0598,3.0606,3.0618,3.0691,3.0771,3.0831,3.0898,3.0898,0.0,0.0,0.0,0.0,0.0,3.0898,3.0898,3.0898,3.0898,3.0371,2.9492,0.0,0.0,0.0,0.0,0.0,0.0,0.0,2.8887,2.9766,3.0625,3.0898,3.0898,3.0905,3.0856,3.0998,3.1878,3.2116,3.2549,3.4289,3.532,3.6378,3.8111,3.8466,3.8649,3.9451,3.8864,3.8489,3.934,3.9507,3.9797,4.0655,4.079,4.079,4.079,4.079,4.079,4.079,4.079,4.0771,4.0771,3.9978,3.9487,3.9487,3.8682,3.8586,3.9449,3.9487,3.9894,4.0752,4.0771,4.079,4.079,4.079,4.079,4.079,4.079,4.079,4.079,4.079,4.079,4.079,4.079,4.1738,4.3305,4.3324,4.4291,4.58,4.58,4.58,4.58,4.58,4.58,4.58,0.0,0.0,0.0,0.0,0.0,0.0,0.0,0.0,0.0,0.0,0.0,0.0,0.0,0.0,0.0,0.0,0.0,0.0,0.0,0.0,2.8025,0.0,0.0,0.0,0.0,0.0,3.0642,3.0691,3.0763,3.0801,0.0,0.0,0.0,3.0898,0.0,0.0,3.0898,3.0898,3.0898,3.0898,3.0898,3.0371,2.9492,0.0,0.0,0.0,0.0,0.0,0.0,0.0,0.0,0.0,3.0819,3.0894,3.1005,3.158,3.1734,3.1904,3.2776,3.3434,3.4135,3.5251,3.6144,3.7357,3.9668,3.9719,3.9537,4.0292,3.9743,3.9379,4.0249,3.9913,3.9797,4.0655,4.079,4.079,4.079,4.079,4.0558,3.9971,3.9894,3.963,3.903,3.874,3.8586,3.8586,3.8353,3.8315,3.8566,3.8586,3.8702,3.8953,3.9572,3.9894,3.9894,4.0481,4.079,4.079,4.079,4.079,4.079,4.079,4.079,4.079,4.079,4.1738,4.3382,4.4562,4.5355,4.58,4.58,4.58,4.58,4.58,4.58,4.58,0.0,0.0,0.0,0.0,0.0,0.0,0.0,0.0,0.0,0.0,2.5917,2.6218,0.0,0.0,0.0,0.0,0.0,0.0,0.0,0.0,2.7329,2.8722,2.9108,2.9708,3.0578,3.0595,3.0626,3.0691,0.0,0.0,0.0,0.0,3.0898,3.0898,0.0,3.0703,0.0,3.0371,3.0371,3.0371,3.0371,3.0273,2.998,0.0,0.0,0.0,0.0,0.0,0.0,0.0,0.0,0.0,3.085,3.1097,3.1471,3.1952,3.2322,3.2766,3.3646,3.4452,3.5282,3.6158,3.7238,3.8585,4.0432,4.0762,4.0683,4.0781,4.0377,4.0172,4.0694,4.0365,0.0,4.0713,4.079,4.079,4.079,4.079,4.0481,3.9603,3.9507,3.9146,3.8276,3.7889,3.7677,3.7677,3.7386,3.7348,3.7677,3.7677,3.7851,3.8199,3.8702,3.9146,3.9507,4.0017,4.0462,4.079,4.079,4.079,4.079,4.079,4.079,4.0829,4.1506,4.255,4.3924,4.5239,4.58,4.58,4.58,4.58,4.58,4.58,4.58,4.58,0.0,0.0,0.0,0.0,0.0,0.0,0.0,0.0,0.0,0.0,2.5511,2.5511,0.0,0.0,0.0,0.0,0.0,0.0,0.0,0.0,2.702,2.7956,2.8915,2.9785,3.0578,3.0606,3.064,3.0692,3.0761,0.0,0.0,0.0,3.0898,3.0898,0.0,3.043,2.9609,2.9609,2.9551,2.9492,2.957,3.0078,3.0605,2.9016,0.0,0.0,0.0,0.0,0.0,0.0,0.0,0.0,3.0794,3.1409,3.2108,3.2187,3.2789,3.3621,3.4561,3.5403,3.6242,3.712,3.8588,4.0023,4.0742,4.1524,4.1853,4.0977,4.079,4.079,4.079,4.079,4.079,4.079,4.079,4.0771,4.0694,4.0674,4.0326,3.9391,3.9274,3.8914,3.8063,3.727,3.6787,3.6787,3.611,3.6013,3.6748,3.6787,3.7154,3.7947,3.8044,3.8508,3.9359,3.9468,3.9952,4.079,4.079,4.079,4.079,4.079,4.0829,4.1003,4.2609,4.3788,4.4659,4.5471,4.58,4.58,4.58,4.58,4.58,4.58,4.58,4.58,0.0,0.0,0.0,0.0,0.0,0.0,0.0,0.0,0.0,0.0,0.0,0.0,0.0,0.0,0.0,0.0,0.0,0.0,0.0,0.0,2.6439,2.7937,2.9495,3.0404,3.0598,3.0606,3.0604,3.0613,3.0683,0.0,0.0,0.0,0.0,3.0818,0.0,3.043,2.9609,2.9609,2.9218,2.8644,2.9324,2.9719,2.9841,2.9468,2.9439,0.0,0.0,0.0,0.0,0.0,0.0,0.0,3.0793,3.1408,3.2224,3.2849,3.3615,3.4559,3.6082,3.7104,3.7977,3.884,4.0311,4.1594,4.1712,4.1886,4.179,4.0965,4.079,4.079,4.079,4.079,4.079,4.079,4.079,4.0558,3.9894,3.9777,3.9204,3.7638,3.7464,3.7135,3.6323,3.6071,3.5955,3.5955,3.58,3.5781,3.5955,3.5955,3.6033,3.6226,3.6845,3.7599,3.847,3.9146,3.9952,4.079,4.079,4.079,4.079,4.079,4.1139,4.1796,4.286,4.3788,4.4659,4.5471,4.58,4.58,4.58,4.58,4.58,4.58,4.58,4.58,0.0,0.0,0.0,0.0,0.0,0.0,0.0,0.0,0.0,0.0,0.0,0.0,0.0,0.0,0.0,0.0,0.0,0.0,0.0,0.0,0.0,0.0,2.9669,3.0598,3.0598,3.0597,3.0606,3.0595,0.0,0.0,0.0,0.0,0.0,3.0804,0.0,3.0385,2.9608,2.9608,2.9332,2.8955,2.9411,2.9835,3.0127,2.9718,2.9803,3.0111,2.9691,0.0,0.0,0.0,0.0,0.0,0.0,0.0,3.2168,3.3017,3.3845,3.4878,3.6532,3.7617,3.8565,3.9851,4.1117,4.1938,4.1506,4.1719,4.1777,4.0965,4.079,4.079,4.079,4.079,4.079,4.079,4.0442,4.0017,3.9565,3.9127,3.8392,3.7058,3.6903,3.6574,3.5781,3.6052,3.6265,3.6265,3.6651,3.6709,3.6303,3.6265,3.6265,3.6265,3.669,3.7522,3.8818,3.9262,3.9952,4.079,4.079,4.1003,4.1371,4.1371,4.2067,4.3266,4.373,4.4407,4.52,4.5626,4.58,4.58,4.58,4.58,4.58,4.58,4.58,4.58,0.0,0.0,0.0,0.0,0.0,0.0,0.0,0.0,0.0,0.0,0.0,0.0,0.0,0.0,0.0,0.0,0.0,0.0,0.0,0.0,0.0,0.0,2.966,3.0569,3.0569,3.0569,3.0588,3.0595,0.0,0.0,0.0,0.0,0.0,3.0786,0.0,3.0345,2.9583,2.9602,2.9505,2.9386,2.9523,2.9983,3.0507,2.9922,3.0146,3.0695,2.9966,3.0136,3.0684,3.0691,0.0,0.0,0.0,0.0,3.2023,3.2751,3.3691,3.4845,3.654,3.7807,3.9035,4.0609,4.139,4.1641,4.1119,4.1409,4.1603,4.0945,4.079,4.079,4.079,4.079,4.079,4.079,4.0191,3.9681,3.9526,3.874,3.7889,3.7,3.6787,3.6439,3.5762,3.6439,3.6903,3.6903,3.7715,3.7889,3.7154,3.7116,3.7116,3.7116,3.7116,3.7889,3.9487,3.9507,3.9952,4.079,4.0945,4.1429,4.2222,4.2376,4.3247,4.4601,4.4601,4.5065,4.58,4.58,4.58,4.58,4.58,4.58,4.58,4.58,4.58,4.58,0.0,0.0,0.0,0.0,0.0,0.0,0.0,0.0,0.0,0.0,2.5511,2.5511,0.0,0.0,0.0,0.0,0.0,0.0,2.5511,0.0,0.0,2.7999,2.9612,3.0501,3.0501,3.0501,3.054,3.0607,0.0,0.0,0.0,0.0,0.0,3.0714,0.0,0.0,2.9523,2.9589,2.9157,2.8525,2.923,2.9589,2.9747,3.0321,0.0,3.0698,3.0587,3.0574,3.0607,3.0607,3.0574,0.0,0.0,0.0,3.1835,3.1952,3.3131,3.4786,3.6455,3.8651,4.0687,4.1603,4.139,4.11,4.1699,4.1371,4.0926,4.081,4.079,4.079,4.079,4.079,4.079,4.079,4.0694,4.0346,3.9623,3.874,3.7889,3.7,3.6284,3.582,3.5704,3.6439,3.6903,3.6903,3.7715,3.816,3.8025,3.8025,3.8025,3.8025,3.8025,3.8508,3.9487,3.9507,3.9952,4.081,4.1506,4.2299,4.315,4.3904,4.4388,4.4601,4.4601,4.5065,4.58,4.58,4.58,4.58,4.58,4.58,4.58,4.58,4.58,4.58,0.0,0.0,0.0,0.0,0.0,0.0,0.0,0.0,0.0,0.0,0.0,2.5511,0.0,0.0,0.0,2.5511,2.5511,2.5484,2.5456,2.7061,2.798,2.7952,2.9593,3.05,3.05,3.05,3.051,0.0,0.0,0.0,0.0,3.198,3.1801,0.0,0.0,0.0,0.0,3.0204,3.0014,2.9725,3.0059,3.0175,3.0217,0.0,0.0,0.0,0.0,0.0,3.0549,3.0549,3.0492,3.0451,3.0491,0.0,0.0,0.0,3.2654,3.4191,3.6895,3.88,4.0224,4.1119,4.1061,4.0887,4.1255,4.1042,4.079,4.079,4.079,4.079,4.079,4.079,4.079,4.079,4.0384,3.9952,3.9565,3.874,3.8063,3.7677,3.7328,3.7096,3.7096,3.7851,3.8353,3.8353,3.9166,3.9437,3.8953,3.8934,3.8934,3.8934,3.8934,3.934,4.021,4.023,4.0423,4.081,4.2106,4.2937,4.3343,4.4678,4.5278,4.5278,4.5278,4.5471,4.58,4.58,4.58,4.58,4.58,4.58,4.58,4.58,4.58,4.58,0.0,0.0,0.0,0.0,0.0,0.0,0.0,0.0,0.0,0.0,0.0,0.0,0.0,0.0,0.0,0.0,2.5511,2.5464,2.5401,2.7015,2.7952,2.7904,2.9543,3.0469,3.0469,3.0469,0.0,0.0,0.0,0.0,3.1823,3.2673,3.2657,0.0,3.187,0.0,0.0,0.0,0.0,3.0784,3.095,3.0859,0.0,0.0,0.0,0.0,0.0,0.0,0.0,0.0,3.0612,3.0406,3.0447,3.0447,0.0,0.0,0.0,3.3952,3.6767,3.8305,3.9322,4.0249,4.0462,4.052,4.0752,4.079,4.079,4.079,4.079,4.079,4.079,4.079,4.079,4.079,4.0249,3.9835,3.9835,3.9069,3.8528,3.8528,3.8334,3.8199,3.8199,3.8992,3.9507,3.9507,4.0307,4.052,3.9874,3.9835,3.9835,3.9835,3.9835,4.0133,4.079,4.079,4.0887,4.1119,4.2609,4.3421,4.3692,4.5142,4.58,4.58,4.58,4.58,4.58,4.58,4.58,4.58,4.58,4.58,4.58,4.58,4.58,4.58,0.0,0.0,0.0,0.0,0.0,0.0,0.0,0.0,0.0,0.0,0.0,0.0,0.0,2.5511,2.5511,2.5511,2.5511,2.5464,2.5401,2.6968,2.7904,2.7893,2.9511,0.0,3.0417,3.0417,0.0,0.0,0.0,0.0,3.1821,3.2632,3.2574,3.1813,3.1806,3.1394,3.0756,0.0,0.0,0.0,0.0,0.0,0.0,0.0,0.0,0.0,0.0,0.0,0.0,0.0,0.0,0.0,0.0,3.041,3.041,0.0,0.0,0.0,3.5454,3.6972,3.8472,3.9359,3.9584,3.9777,4.0597,4.079,4.079,4.079,4.079,4.079,4.079,4.079,4.079,4.079,4.0752,4.0732,4.0732,3.9978,3.9429,3.9429,3.8702,3.8199,3.8199,3.8992,3.9507,3.9507,4.0307,4.0771,4.0732,4.0732,4.0732,4.0732,4.0732,4.0752,4.079,4.079,4.1177,4.1951,4.286,4.373,4.4562,4.5413,4.58,4.58,4.58,4.58,4.58,4.58,4.58,4.58,4.58,4.58,4.58,4.58,4.58,4.58,0.0,0.0,0.0,0.0,0.0,0.0,0.0,0.0,0.0,0.0,0.0,0.0,0.0,2.6613,2.6497,2.7058,2.7099,2.7073,2.7017,2.8087,2.8722,2.8681,2.9786,3.0402,3.0402,3.0402,0.0,0.0,0.0,3.175,3.175,3.2598,3.2559,3.175,3.1774,3.1652,3.1438,3.1738,0.0,0.0,0.0,0.0,0.0,0.0,0.0,0.0,0.0,0.0,0.0,0.0,0.0,0.0,0.0,0.0,3.0513,3.1083,3.2269,3.3718,3.5186,3.6426,3.752,3.8438,3.8663,3.8895,3.9765,3.9971,4.0113,4.0674,4.079,4.079,4.079,4.079,4.079,4.079,4.079,4.079,4.079,4.052,4.0326,4.0326,4.0055,3.9862,3.9862,4.0152,4.0326,4.0326,4.0616,4.079,4.079,4.079,4.079,4.079,4.079,4.079,4.079,4.1313,4.1699,4.2028,4.346,4.4311,4.4639,4.5432,4.58,4.58,4.58,4.58,4.58,4.58,4.58,4.58,4.58,4.58,4.58,4.58,4.58,4.58,0.0,0.0,0.0,0.0,0.0,0.0,0.0,0.0,0.0,0.0,0.0,0.0,0.0,0.0,2.7359,2.7959,2.7981,2.7943,2.7893,2.8692,2.9143,2.9113,2.9929,3.0398,3.0398,3.0398,0.0,0.0,0.0,0.0,0.0,3.1869,3.1831,3.1272,3.1314,3.1337,0.0,0.0,0.0,3.2684,0.0,0.0,3.2987,0.0,0.0,0.0,0.0,0.0,0.0,0.0,0.0,0.0,0.0,0.0,0.0,0.0,0.0,3.3231,3.475,3.5765,3.6619,3.7518,3.7754,3.8063,3.9224,3.9507,3.9758,4.0616,4.079,4.079,4.079,4.079,4.079,4.079,4.079,4.079,4.079,4.079,4.0887,4.1158,4.1197,4.1313,4.1603,4.1641,4.1641,4.1641,4.1641,4.1641,4.1641,4.1641,4.1641,4.1641,4.1641,4.1641,4.1641,4.2164,4.2589,4.2899,4.4059,4.4736,4.5026,4.5548,4.58,4.58,4.58,4.58,4.58,4.58,4.58,4.58,4.58,4.58,4.58,4.58,4.58,4.5844,0.0,0.0,0.0,0.0,0.0,0.0,0.0,0.0,0.0,0.0,0.0,0.0,0.0,0.0,0.0,2.8048,2.8,2.796,2.796,2.869,2.914,2.914,2.9948,3.0398,3.0398,3.0398,3.0398,0.0,0.0,0.0,0.0,0.0,3.0398,3.0398,3.0398,3.0444,3.0614,0.0,3.2505,3.1934,0.0,3.3749,3.3075,0.0,0.0,0.0,3.4257,3.4257,0.0,0.0,0.0,0.0,0.0,0.0,0.0,0.0,0.0,0.0,0.0,0.0,0.0,3.6659,3.6864,3.7309,3.903,3.9449,3.9719,4.0578,4.0771,4.079,4.079,4.079,4.079,4.079,4.079,4.079,4.079,4.081,4.1119,4.1912,4.2028,4.2376,4.3227,4.3305,4.3305,4.3305,4.3305,4.3305,4.3305,4.3305,4.3305,4.3305,4.3305,4.3305,4.3305,4.3324,4.3769,4.4601,4.462,4.5045,4.58,4.58,4.58,4.58,4.58,4.58,4.58,4.58,4.58,4.58,4.58,4.58,4.58,4.5819,4.5829,4.592,0.0,0.0,0.0,0.0,0.0,0.0,0.0,0.0,0.0,0.0,0.0,0.0,0.0,0.0,0.0,2.8916,2.9387,2.9712,2.9709,2.9929,3.0044,3.0044,3.0275,3.0398,3.0398,3.0398,3.0398,3.0398,3.0398,3.0398,3.0398,3.0398,3.0398,0.0,3.0398,3.041,3.051,3.1607,0.0,0.0,3.4013,3.4443,0.0,0.0,0.0,0.0,0.0,3.6007,3.6103,0.0,3.5988,3.4526,0.0,0.0,0.0,0.0,0.0,0.0,3.4166,0.0,0.0,0.0,0.0,0.0,3.7386,3.8102,3.8818,3.9669,4.0346,4.079,4.079,4.079,4.079,4.079,4.079,4.079,4.079,4.1293,4.1757,4.197,4.257,4.3034,4.3285,4.3305,4.3305,4.3305,4.3305,4.3305,4.3305,4.3305,4.3305,4.3305,4.3305,4.3305,4.3305,4.3924,4.4369,4.462,4.5181,4.5568,4.58,4.58,4.58,4.58,4.58,4.58,4.58,4.58,4.58,4.58,4.5791,4.581,4.5853,4.641,4.6557,4.6621,0.0,0.0,0.0,0.0,0.0,0.0,0.0,0.0,0.0,0.0,0.0,0.0,0.0,0.0,0.0,0.0,3.0675,3.0787,3.0429,3.0398,3.0398,3.0398,3.0398,3.0398,3.0398,3.0398,3.0398,3.0398,3.0398,3.0398,3.0398,3.0398,3.0398,3.0398,0.0,0.0,0.0,0.0,0.0,0.0,3.4045,0.0,0.0,3.5493,3.5493,0.0,0.0,0.0,3.6834,3.7719,3.6892,0.0,0.0,0.0,0.0,0.0,0.0,0.0,0.0,0.0,0.0,0.0,0.0,0.0,3.6675,3.7525,3.8414,3.9284,4.0147,4.0746,4.0746,4.079,4.079,4.079,4.1081,4.1293,4.1293,4.1699,4.228,4.2995,4.3537,4.3962,4.4311,4.433,4.433,4.433,4.433,4.433,4.433,4.433,4.433,4.433,4.433,4.433,4.433,4.4852,4.5104,4.5104,4.5568,4.58,4.58,4.58,4.58,4.58,4.58,4.58,4.58,4.5805,4.5805,4.5791,4.5781,4.5947,4.6265,4.6644,4.6954,4.7259,0.0,0.0,0.0,0.0,0.0,0.0,0.0,0.0,0.0,0.0,0.0,0.0,0.0,0.0,0.0,0.0,3.1826,3.1506,3.0737,3.059,0.0,0.0,0.0,3.0494,3.0398,3.0494,3.0494,3.0398,3.0398,3.0398,3.0398,3.0398,3.0398,3.0398,0.0,0.0,0.0,0.0,0.0,3.2987,3.3949,3.4853,0.0,0.0,3.5795,0.0,3.6699,3.6988,3.7123,3.7873,3.7084,0.0,0.0,0.0,0.0,0.0,3.4334,0.0,0.0,0.0,0.0,0.0,3.5591,0.0,3.6498,3.7328,3.8176,3.8948,3.9882,4.0552,4.0552,4.0688,4.079,4.079,4.1467,4.2009,4.2009,4.2164,4.286,4.4427,4.4678,4.5007,4.5722,4.58,4.58,4.58,4.58,4.58,4.58,4.58,4.58,4.58,4.58,4.58,4.58,4.58,4.58,4.58,4.58,4.58,4.58,4.58,4.58,4.58,4.58,4.58,4.58,4.581,4.58,4.5781,4.57,4.6119,4.6762,4.6703,4.7152,4.7876,0.0,0.0,0.0,0.0,0.0,0.0,0.0,0.0,0.0,0.0,0.0,0.0,0.0,0.0,0.0,0.0,0.0,3.2583,3.2429,0.0,0.0,0.0,0.0,3.1121,3.0417,3.1102,3.1102,3.0398,3.0398,3.0398,3.0398,3.0398,3.0398,3.0398,3.0398,0.0,0.0,0.0,0.0,3.3045,3.4622,0.0,3.6546,3.7257,3.7507,3.7623,3.8469,3.8796,3.8815,0.0,3.8354,3.7353,0.0,0.0,0.0,0.0,0.0,0.0,0.0,0.0,0.0,0.0,0.0,0.0,3.5804,3.646,3.7096,3.727,3.8556,3.9656,3.9656,4.0191,4.0668,4.07,4.1448,4.1989,4.2009,4.3208,4.4233,4.4562,4.5162,4.5626,4.578,4.58,4.58,4.58,4.58,4.58,4.58,4.58,4.58,4.58,4.58,4.58,4.58,4.58,4.58,4.58,4.58,4.58,4.58,4.58,4.58,4.58,4.58,4.58,4.58,4.581,4.5765,4.57,4.553,4.5918,4.6623,4.7006,4.7656,4.8424,0.0,0.0,0.0,0.0,0.0,0.0,0.0,0.0,0.0,0.0,0.0,0.0,0.0,0.0,0.0,0.0,0.0,0.0,0.0,0.0,0.0,0.0,0.0,3.2083,3.166,3.1679,3.1487,3.1064,3.0609,3.0398,3.0398,3.0398,3.0398,3.0398,3.0398,3.0398,0.0,0.0,3.2526,3.3045,3.4814,0.0,3.6796,3.768,3.8007,3.8104,3.8988,3.9546,3.9835,3.9431,3.9008,0.0,0.0,3.643,3.6026,0.0,3.5493,3.5493,0.0,0.0,0.0,3.5495,0.0,0.0,0.0,3.6177,3.6754,3.6754,3.7808,3.8877,3.9268,3.9706,4.0139,4.0577,4.1749,4.2607,4.2601,4.3755,4.4755,4.5142,4.5548,4.58,4.58,4.58,4.58,4.58,4.58,4.58,4.58,4.58,4.58,4.58,4.58,4.58,4.58,4.58,4.58,4.58,4.58,4.58,4.58,4.58,4.58,4.58,4.58,4.58,4.58,4.5727,4.5899,4.618,4.6014,4.6328,4.6963,4.7583,4.8268,4.8942,3.0613,0.0,0.0,0.0,0.0,0.0,0.0,0.0,0.0,0.0,0.0,0.0,0.0,0.0,0.0,0.0,0.0,0.0,0.0,0.0,0.0,0.0,3.3237,3.3141,3.3141,3.2506,3.2025,3.1698,3.1006,3.0552,3.0398,3.0398,3.0494,3.0648,3.0648,3.0737,0.0,0.0,0.0,3.3295,0.0,3.6122,3.6796,3.768,3.8104,3.8354,3.9219,3.9835,4.0162,3.9508,0.0,3.8796,3.7392,3.6853,0.0,0.0,0.0,0.0,0.0,0.0,0.0,0.0,0.0,3.5493,0.0,0.0,0.0,3.6469,3.7324,3.8276,3.8936,3.935,3.9822,4.0477,4.1928,4.296,4.296,4.3761,4.4717,4.5684,4.58,4.58,4.58,4.5664,4.5626,4.578,4.5664,4.5645,4.578,4.58,4.58,4.58,4.58,4.58,4.58,4.58,4.58,4.58,4.58,4.58,4.58,4.58,4.58,4.58,4.58,4.58,4.5805,4.5838,4.6182,4.6647,4.6485,4.6872,4.7583,4.8068,4.8659,4.9262,3.0604,3.0597,0.0,0.0,0.0,0.0,0.0,0.0,0.0,0.0,0.0,0.0,0.0,0.0,0.0,0.0,0.0,0.0,3.6334,0.0,0.0,0.0,0.0,0.0,3.4045,3.3949,3.3179,3.1698,3.1602,3.116,3.0398,3.0398,3.0814,3.1545,3.1545,0.0,0.0,0.0,3.4045,0.0,3.5892,3.6622,0.0,3.768,3.8469,3.9258,4.0065,3.995,3.9411,0.0,3.8796,3.8104,0.0,3.7315,3.668,0.0,0.0,0.0,0.0,0.0,0.0,0.0,3.5493,0.0,0.0,0.0,3.5641,3.5641,0.0,3.8041,3.8123,0.0,0.0,4.0588,4.1403,4.2082,4.213,4.2891,4.404,4.5606,4.58,4.58,4.58,4.5142,4.5026,4.5742,4.5142,4.5045,4.5761,4.58,4.58,4.58,4.58,4.58,4.58,4.58,4.58,4.58,4.58,4.58,4.58,4.58,4.58,4.58,4.58,4.5805,4.5838,4.6497,4.6703,4.6604,4.6325,4.7074,4.8249,4.8103,4.8492,4.9195,3.1322,3.1303,0.0,0.0,0.0,0.0,0.0,0.0,0.0,0.0,0.0,0.0,0.0,0.0,0.0,0.0,0.0,3.8373,0.0,0.0,0.0,0.0,0.0,0.0,0.0,3.5199,3.4353,3.3141,3.2641,3.2218,3.1852,3.1852,3.2045,3.2391,3.2391,0.0,3.3699,0.0,3.5218,0.0,0.0,0.0,0.0,3.7853,3.8546,3.9411,4.02,3.9969,3.9373,0.0,3.9431,0.0,0.0,0.0,0.0,0.0,0.0,0.0,0.0,0.0,0.0,0.0,0.0,0.0,3.6199,0.0,3.6949,0.0,0.0,0.0,0.0,0.0,0.0,0.0,4.1301,4.1904,4.1933,4.269,4.351,4.4253,4.4349,4.4349,4.4349,4.404,4.4001,4.4311,4.4504,4.4755,4.5084,4.5548,4.58,4.58,4.58,4.58,4.58,4.58,4.58,4.58,4.58,4.58,4.58,4.58,4.58,4.58,4.5805,4.5795,4.5793,4.6415,4.6873,4.7198,4.7352,4.7778,4.8329,4.8602,4.9098,4.9705,3.2426,0.0,0.0,0.0,0.0,0.0,0.0,0.0,0.0,0.0,0.0,0.0,3.9234,4.0219,0.0,0.0,0.0,3.9873,0.0,0.0,3.8584,0.0,0.0,0.0,0.0,0.0,3.5295,3.4199,3.3564,3.3122,3.2891,3.2891,3.3026,3.3256,3.3256,3.3737,3.4603,0.0,0.0,3.6757,3.7392,3.7796,3.8027,3.8277,3.8738,3.9411,4.02,3.9969,3.9392,3.9969,3.9777,0.0,3.9296,0.0,0.0,0.0,0.0,0.0,3.8007,0.0,0.0,0.0,0.0,0.0,0.0,0.0,0.0,0.0,0.0,0.0,0.0,0.0,0.0,4.0412,0.0,4.1547,4.1538,4.2102,4.2704,4.3247,4.3305,4.3305,4.3305,4.3073,4.3034,4.3285,4.3885,4.4349,4.4601,4.5355,4.58,4.58,4.58,4.58,4.58,4.58,4.58,4.58,4.58,4.58,4.58,4.58,4.5805,4.5805,4.5761,4.5835,4.5986,4.6588,4.7217,4.7903,4.8409,4.8563,4.8534,4.9006,4.9567,5.0135,3.3993,3.3634,0.0,0.0,0.0,0.0,0.0,0.0,0.0,0.0,0.0,0.0,0.0,0.0,0.0,0.0,0.0,4.2239,4.0527,0.0,4.0065,0.0,0.0,3.7988,0.0,0.0,0.0,3.4199,3.416,3.3718,3.2891,3.2891,3.3353,3.416,3.416,3.4641,3.5468,3.5488,3.5968,3.6699,3.6738,3.7257,3.8084,0.0,3.9277,3.9411,4.02,0.0,0.0,3.9315,3.9315,0.0,0.0,0.0,0.0,0.0,0.0,0.0,0.0,0.0,0.0,3.7969,0.0,0.0,0.0,0.0,3.8007,0.0,0.0,0.0,0.0,0.0,0.0,0.0,4.0577,0.0,0.0,4.0717,4.1409,4.3111,4.3305,4.3305,4.3305,4.2531,4.2396,4.3247,4.3324,4.3711,4.4562,4.5355,4.58,4.58,4.58,4.58,4.58,4.58,4.58,4.58,4.58,4.58,4.58,4.581,4.5815,4.5781,4.5665,4.5972,4.6626,4.7365,4.7995,4.8531,4.92,4.9327,4.916,4.9116,4.9517,5.0228,0.0,0.0,0.0,0.0,0.0,0.0,0.0,3.6627,0.0,0.0,0.0,0.0,0.0,0.0,4.2662,0.0,0.0,4.2854,4.2258,4.222,0.0,0.0,0.0,4.0239,0.0,0.0,0.0,0.0,3.5315,3.4911,3.4622,3.4622,3.4776,3.5064,3.5064,3.5526,0.0,0.0,0.0,0.0,0.0,3.9392,3.9623,0.0,3.9296,3.9411,4.02,3.9969,0.0,3.9912,3.9738,3.9392,3.9931,4.0085,4.0085,4.0085,3.9892,3.9642,0.0,0.0,3.8854,3.8854,0.0,0.0,0.0,0.0,0.0,0.0,0.0,0.0,0.0,0.0,0.0,0.0,0.0,4.0539,0.0,4.0612,4.0847,4.144,4.1596,4.1641,4.1641,4.1371,4.1332,4.1622,4.2144,4.2821,4.3692,4.4543,4.5258,4.578,4.58,4.58,4.58,4.58,4.58,4.58,4.5805,4.581,4.581,4.5746,4.5715,4.5703,4.6106,4.6358,4.6636,4.7707,4.8229,4.8436,4.9021,4.9197,4.9191,4.9697,5.0354,5.1156,3.4805,0.0,0.0,0.0,0.0,0.0,0.0,0.0,0.0,0.0,4.0719,0.0,4.22,0.0,4.3528,0.0,4.3816,4.3855,4.3547,4.3528,0.0,4.3104,4.2277,0.0,0.0,0.0,0.0,0.0,0.0,3.5795,3.5493,3.5493,3.5493,3.5493,3.5493,3.5795,3.6276,0.0,3.7276,0.0,0.0,4.0489,0.0,0.0,3.9719,3.9777,0.0,4.0162,3.9796,4.0315,4.0162,3.9815,4.0335,4.0489,4.0489,4.0489,4.0489,4.0489,4.0489,4.0123,0.0,3.9719,3.995,0.0,4.0835,0.0,0.0,0.0,0.0,0.0,0.0,0.0,0.0,0.0,0.0,4.0523,0.0,4.0598,4.0593,4.0588,4.07,4.0759,4.0759,4.079,4.079,4.079,4.1545,4.2241,4.2802,4.3962,4.4833,4.5355,4.5645,4.58,4.58,4.58,4.58,4.5805,4.5795,4.58,4.5765,4.5703,4.5616,4.5568,4.6242,4.6609,4.6782,4.7918,4.8442,4.8628,4.8963,4.9235,4.9517,5.0038,5.0895,5.2029,0.0,0.0,0.0,0.0,3.6416,0.0,0.0,0.0,4.0592,0.0,4.2085,4.3162,4.3162,4.3874,4.4355,4.4355,4.5124,0.0,4.4412,4.4355,0.0,0.0,4.2354,4.1489,4.0642,0.0,0.0,0.0,0.0,3.6315,3.5565,3.5526,3.5493,3.5493,3.5493,0.0,3.5493,3.5493,3.6469,3.8142,3.9777,4.045,4.0489,4.0489,4.0489,4.0489,4.0489,4.0489,4.0489,4.0489,4.0489,4.0489,4.0489,4.0489,4.0489,4.0489,4.0489,4.0489,4.0489,4.0489,4.0508,4.0546,4.1181,0.0,0.0,0.0,4.3162,0.0,0.0,0.0,0.0,0.0,0.0,0.0,4.0527,4.0523,4.0592,4.0607,4.0622,4.0665,4.0673,4.0687,4.07,4.0746,4.079,4.079,4.1506,4.1951,4.2009,4.3576,4.4523,4.4601,4.5336,4.5761,4.58,4.58,4.5805,4.58,4.58,4.5765,4.57,4.5659,4.559,4.5496,4.6208,4.6752,4.7231,4.8031,4.8646,4.9101,4.9101,4.9536,5.0172,5.0209,5.1268,5.2772,3.5669,3.6179,3.6795,0.0,3.7153,3.725,0.0,0.0,0.0,0.0,4.2931,4.3989,4.3989,4.4739,4.5259,4.5259,4.547,0.0,0.0,0.0,0.0,4.497,4.3547,4.2662,4.2431,4.0373,0.0,3.8623,0.0,3.6603,3.6392,3.5795,3.5493,3.5493,3.5493,3.5493,3.5493,3.5493,3.6469,3.8084,3.9161,3.9969,4.0489,0.0,4.0489,4.0489,4.0489,4.0489,4.0489,4.0489,4.0489,4.0489,4.0489,4.0489,4.0489,4.0489,4.0489,4.0489,4.0489,4.0489,4.0662,4.1296,4.1643,4.2143,0.0,0.0,0.0,0.0,0.0,0.0,0.0,0.0,0.0,0.0,0.0,0.0,0.0,0.0,0.0,4.1405,4.0973,4.0631,4.0621,4.07,4.0733,4.0733,4.0952,4.1371,4.197,4.2415,4.3266,4.4562,4.4794,4.52,4.578,4.5791,4.5795,4.58,4.5738,4.569,4.564,4.6185,4.6319,4.6208,4.7441,4.7964,4.802,4.864,4.8982,4.9101,4.8996,4.98,5.1138,5.1751,5.2624,5.3534,3.6279,0.0,0.0,3.8569,0.0,0.0,3.9721,0.0,0.0,4.2777,4.4047,0.0,4.4874,4.5297,4.5586,4.5586,4.5586,0.0,4.5586,0.0,0.0,4.5047,4.3797,4.2912,4.2547,4.0739,0.0,3.9296,0.0,3.6892,3.618,3.5718,3.5295,3.4949,3.5334,3.5493,3.5565,3.6276,3.7142,3.8104,3.9335,4.0085,0.0,4.0489,4.0489,4.0489,4.0489,4.0489,4.0489,4.0489,4.0489,4.0489,4.0489,4.0489,4.0489,4.0489,4.0489,4.0489,4.0489,4.0489,4.07,4.1585,4.2085,4.272,4.3989,4.4586,4.5009,0.0,4.5586,4.5316,0.0,0.0,0.0,0.0,0.0,0.0,0.0,0.0,0.0,0.0,4.1966,4.169,4.1686,4.1051,4.0654,4.0654,4.07,4.0926,4.1403,4.2118,4.2982,4.4001,4.4736,4.5355,4.5805,4.5795,4.5785,4.5754,4.5726,4.5832,4.609,4.6454,4.6666,4.6809,4.7926,4.8284,4.8128,4.8814,4.9068,4.9071,4.9761,5.0785,5.2029,5.2828,5.3423,5.3813,0.0,0.0,0.0,0.0,0.0,0.0,0.0,4.2236,0.0,4.4201,0.0,4.547,4.5586,4.549,4.547,4.5586,0.0,4.5547,4.5432,4.5432,4.5028,4.4182,4.3355,4.2585,4.1816,4.095,0.0,0.0,0.0,3.7257,3.5834,3.5603,3.5103,3.4391,3.5161,3.5565,0.0,3.7219,3.7969,3.8296,3.9758,4.0412,4.0489,4.0489,4.0489,4.0489,4.0489,4.0489,4.0489,4.0489,4.0489,4.0489,4.0489,4.0489,4.0489,4.0489,4.0489,4.0489,4.0489,4.0489,4.0739,4.172,4.2547,4.3335,4.4259,4.5047,4.5586,4.5586,4.5586,4.5355,4.4605,0.0,0.0,0.0,0.0,0.0,0.0,0.0,0.0,0.0,0.0,0.0,4.3258,4.1855,4.0877,4.0781,4.0761,4.0756,4.0687,4.2188,4.3109,4.3272,4.4929,4.5805,4.58,4.5896,4.587,4.5693,4.5808,4.6163,4.6704,4.677,4.7001,4.7416,4.8135,4.8272,4.8021,4.8785,4.9071,4.9224,5.0896,5.1974,5.2698,5.3497,5.3813,5.3813,0.0,0.0,0.0,0.0,0.0,4.1902,4.2563,4.347,4.4143,4.4278,4.4432,4.4797,4.5509,4.4951,4.4816,4.5528,4.5586,0.0,0.0,0.0,0.0,4.3355,4.2489,4.197,4.1797,4.095,4.0431,0.0,3.8738,3.7853,3.7526,3.6161,3.543,3.5276,3.543,3.5872,3.6507,3.6796,0.0,3.9104,3.9392,3.9912,4.0489,4.0489,4.0489,4.0489,4.0489,4.0489,4.0489,4.0489,4.0489,4.0489,4.0489,4.0489,4.0489,4.0489,4.0489,4.0489,4.0489,4.0489,4.0873,4.247,4.2989,4.3508,4.5009,4.549,4.5586,4.5586,4.5586,4.5547,4.5393,0.0,0.0,0.0,0.0,0.0,0.0,0.0,0.0,0.0,0.0,4.3355,4.4028,4.323,4.2395,4.172,4.1658,4.1359,4.066,4.1633,4.2516,4.3206,4.4906,4.58,4.58,4.6397,4.6364,4.5712,4.6371,4.6685,4.6742,4.7952,4.8427,4.8386,4.8893,4.9051,4.894,4.8922,4.9299,5.006,5.1751,5.2475,5.2698,5.3497,5.3813,5.3813,0.0,0.0,0.0,0.0,0.0,0.0,0.0,4.4047,4.4297,4.4297,4.4297,4.4297,4.4297,4.3932,4.3855,4.4259,4.4297,4.4124,4.3701,4.3682,4.3297,4.247,4.2027,0.0,4.1143,4.07,4.0489,4.0489,3.9258,3.82,3.7315,3.6969,3.6084,3.4853,3.5738,3.6603,0.0,0.0,3.8527,3.9335,3.9738,4.0142,4.0489,4.0489,4.0489,4.0489,4.0489,4.0489,4.0489,4.0489,4.0489,4.0489,4.0489,4.0489,4.0489,4.0489,4.0489,4.0489,4.0489,4.0835,4.1489,4.2777,4.3412,4.4047,4.5297,4.5586,4.5586,4.5586,4.5586,4.5586,4.5586,4.5259,0.0,0.0,0.0,0.0,0.0,0.0,0.0,0.0,0.0,0.0,0.0,4.4622,4.3695,4.1982,4.1844,4.1474,4.0636,4.1846,4.2763,4.3183,4.4862,4.5947,4.6375,4.6731,4.6928,4.6949,4.7336,4.7665,4.7965,4.8617,4.9011,4.9174,4.9246,4.9487,4.9803,5.0094,5.0673,5.1491,5.2289,5.2865,5.3274,5.3664,5.3813,5.3813,0.0,4.2207,0.0,0.0,4.2829,0.0,4.397,4.4182,4.4297,4.4297,4.3989,4.3605,4.3143,4.2931,4.2893,4.3085,4.3104,4.3028,4.2835,4.2816,4.2431,4.1566,4.1527,4.12,4.0508,4.0489,4.0489,0.0,3.9681,3.8604,3.7257,3.7777,3.693,3.5064,3.6392,3.7469,3.8315,3.9008,3.9392,3.9604,4.0239,4.0489,4.0489,4.0489,4.0623,4.0777,4.0777,4.0893,4.1046,4.1046,4.0796,4.0489,4.0489,4.0489,4.0489,4.0489,4.0623,4.0777,4.0777,4.1412,4.2277,4.3143,4.3835,4.4528,4.5393,4.5586,4.5586,4.5586,4.5586,4.5586,4.5586,4.5586,0.0,0.0,0.0,0.0,0.0,0.0,0.0,0.0,0.0,0.0,4.5586,4.5586,4.4682,4.2508,4.2181,4.1639,4.0631,4.2187,4.3108,4.3177,4.497,4.6265,4.6906,4.7062,4.7468,4.8105,4.8298,4.8644,4.9152,4.9362,4.9657,5.0014,4.9896,5.0108,5.0594,5.136,5.2029,5.2624,5.2791,5.3237,5.3813,5.3813,5.3813,5.3813,0.0,0.0,0.0,0.0,0.0,0.0,4.3316,4.3835,4.4297,4.4297,4.2989,4.2316,4.3028,4.2393,4.2239,4.3028,4.3104,4.2758,4.197,4.1931,4.1527,4.0662,4.0623,4.0566,4.0489,4.0489,4.0489,0.0,3.9681,3.9219,3.9027,3.8334,3.7873,3.7642,3.7815,3.8354,3.9181,3.9258,3.9719,4.0392,4.0469,4.0489,4.0489,4.0489,4.0989,4.1681,4.1681,4.22,4.2854,4.2854,4.1816,4.0489,4.0489,4.0489,4.0489,4.0489,4.1066,4.1681,4.1681,4.2316,4.3162,4.3989,4.4239,4.4528,4.5393,4.5586,4.5586,4.5586,4.5586,4.5586,4.5586,4.5586,4.5586,0.0,0.0,0.0,0.0,0.0,0.0,0.0,0.0,0.0,4.5586,4.5586,4.5163,4.4143,4.3393,4.2258,4.06,4.2152,4.3092,4.3108,4.55,4.6829,4.6906,4.7624,4.8029,4.8105,4.8894,4.9279,4.9314,5.0658,5.1167,5.1063,5.1468,5.1507,5.1342,5.2159,5.2531,5.2679,5.3404,5.3738,5.3813,5.3813,5.3813,5.3813,0.0,0.0,0.0,0.0,0.0,0.0,0.0,4.2931,4.2797,4.2797,4.222,4.1739,4.1566,4.1219,4.1162,4.1508,4.1527,4.1393,4.1046,4.1027,4.0854,4.0508,4.0489,4.0489,4.0489,4.0489,4.0489,0.0,0.0,3.9758,3.9296,3.9431,3.9488,3.9488,3.9488,3.9969,4.0835,4.1354,4.1758,4.2066,4.2066,4.2066,4.2066,4.2066,4.2277,4.2585,4.2585,4.2797,4.3104,4.3104,4.2643,4.2066,4.2066,4.2066,4.2066,4.2066,4.2316,4.2585,4.2585,4.3181,4.3893,4.422,4.4682,4.5163,4.5509,4.5586,4.5586,4.5586,4.5586,4.5586,4.5586,4.5586,4.5586,4.5586,0.0,0.0,0.0,0.0,0.0,0.0,0.0,0.0,0.0,4.5586,4.524,4.4374,4.3989,4.3085,4.1373,4.289,4.3599,4.3118,4.5062,4.6602,4.7604,4.7932,4.8625,4.9663,5.001,5.0413,5.0833,5.1289,5.1547,5.1662,5.2254,5.2356,5.2178,5.2995,5.333,5.3348,5.3683,5.3813,5.3813,5.3813,5.3813,5.3813,4.4573,0.0,4.41,0.0,4.3104,4.3008,4.2758,4.22,4.172,4.145,4.1412,4.1181,4.0566,4.0489,4.0489,4.0489,4.0489,4.0489,4.0489,4.0489,4.0489,4.0489,4.0489,0.0,4.0489,4.0489,4.0489,4.0489,4.0489,4.02,3.9662,4.0489,4.0873,4.0893,4.1143,4.1604,4.222,4.2835,4.3104,4.3104,4.3104,4.3104,4.3104,4.3104,4.3258,4.3451,4.3451,4.3624,4.3835,4.3835,4.3835,4.3739,4.3258,4.3104,4.3104,4.3104,4.3278,4.3451,4.3451,4.4047,4.4682,4.4682,4.5143,4.5586,4.5586,4.5586,4.5586,4.5586,4.5586,4.5586,4.5586,4.5586,4.5586,4.5586,0.0,0.0,0.0,4.5586,0.0,0.0,4.5586,4.5586,4.5586,4.5586,4.5336,4.472,4.4682,4.3951,4.2277,4.3528,4.4047,4.347,4.4855,4.6394,4.8086,4.8105,4.8971,5.0702,5.0933,5.1336,5.1853,5.2069,5.2351,5.2696,5.3094,5.3143,5.2995,5.3571,5.3813,5.3813,5.3813,5.3813,5.3813,5.3813,5.3813,5.3813,4.467,4.4395,4.4047,4.3239,4.3104,4.2816,4.195,4.1816,4.1489,4.0623,4.0508,4.0508,4.0489,4.0489,4.0489,4.0489,4.0489,4.0489,4.0489,4.0489,4.0489,0.0,0.0,4.0489,4.0489,4.0489,4.0489,4.0489,0.0,0.0,4.0489,4.1373,4.1777,4.1816,4.2681,4.3066,4.3085,4.3104,4.3104,4.3104,4.3104,4.3104,4.3104,4.3104,4.3585,4.4297,4.4297,4.4836,4.5566,4.5566,4.5566,4.5278,4.3624,4.3104,4.3104,4.3104,4.3662,4.4297,4.4297,4.4913,4.5566,4.5566,4.5586,4.5586,4.5586,4.5586,4.5586,4.5586,4.5586,4.5586,4.5586,4.5586,4.5586,4.5586,0.0,0.0,0.0,4.5586,0.0,4.5586,4.5586,4.5586,4.5586,4.5586,4.5586,4.5586,4.5566,4.4855,4.3162,4.3855,4.4297,4.4297,4.5143,0.0,4.8086,4.8105,4.8971,5.0702,5.151,5.1895,5.1932,5.3219,5.4029,5.4468,5.4214,5.3963,5.3794,5.3813,5.3813,5.3813,5.3813,5.3813,5.3813,5.3813,5.3813,5.3813,4.38,4.3543,4.3214,4.2354,4.222,4.1931,4.1046,4.0912,4.0816,4.0527,4.0489,4.0489,4.0489,4.0489,4.0489,0.0,4.0489,4.0489,0.0,4.0489,4.0489,4.0489,4.0489,4.0489,4.0489,4.0489,4.0489,4.0489,0.0,4.0796,4.1412,4.2277,4.2701,4.272,4.3547,4.3912,4.3951,4.4547,4.4797,4.4797,4.4797,4.4797,4.4797,4.4797,4.4951,4.5182,4.5182,4.5355,4.5586,4.5586,4.5586,4.5509,4.497,4.4797,4.4797,4.4797,4.4989,4.5182,4.5182,4.5393,4.5586,4.5586,4.5586,4.5586,4.5586,4.5586,4.5586,4.5586,4.5586,4.5586,4.5586,4.5586,4.5586,4.5586,4.5586,0.0,4.5586,0.0,4.5586,4.5586,4.5586,4.5586,4.5586,4.5586,4.5586,4.5586,4.5586,4.5105,4.397,4.472,0.0,0.0,4.6028,0.0,4.8971,4.9586,5.0433,5.1529,5.2375,5.3003,5.3417,5.4253,5.4557,5.4424,5.4198,5.3981,5.3813,5.3813,5.3813,5.3813,5.3813,5.3813,5.3813,5.3813,5.3813,5.3813,4.2937,4.269,4.2364,4.147,4.1316,4.1123,4.0566,4.0489,4.0489,4.0489,4.0489,4.0489,4.0489,4.0489,0.0,4.0489,4.0489,4.0489,4.0489,4.0489,4.0489,4.0489,4.0489,4.0489,4.0489,4.0489,4.0489,4.0489,4.0835,4.1277,4.1835,4.3008,4.3547,4.3585,4.4412,4.4778,4.4816,4.5355,4.5586,4.5586,4.5586,4.5586,4.5586,4.5586,4.5586,4.5586,4.5586,4.5586,4.5586,4.5586,4.5586,4.5586,4.5586,4.5586,4.5586,4.5586,4.5586,4.5586,4.5586,4.5586,4.5586,4.5586,4.5586,4.5586,4.5586,4.5586,4.5586,4.5586,4.5586,4.5586,4.5586,4.5586,4.5586,4.5586,4.5586,4.5586,4.5586,0.0,4.5586,0.0,0.0,4.5586,4.5586,4.5586,4.5586,4.5586,4.5893,0.0,0.0,0.0,4.622,4.6528,4.7067,4.8163,4.9875,5.0433,5.126,5.2414,5.3219,5.3909,5.4504,5.4829,5.473,5.4321,5.4163,5.3981,5.3813,5.3813,5.3813,5.3813,5.3813,5.3813,5.3813,5.3813,5.3813,5.3813,4.2092,4.1851,4.1551,4.0658,4.0489,4.0489,4.0489,4.0489,4.0489,4.0489,4.0489,4.0489,4.0489,4.0489,4.0489,4.0489,4.0489,0.0,4.0489,4.0489,4.0489,4.0489,4.0489,4.0489,4.0489,4.0489,4.0527,4.0585,4.147,4.1931,4.2008,4.3624,4.4393,4.4432,4.524,4.5586,4.5586,4.5586,4.5586,4.5586,4.5586,4.5586,4.5586,4.5586,4.5586,4.5586,4.5586,4.5586,4.5586,4.5586,4.5586,4.5586,4.5586,4.5586,4.5586,4.5586,4.5586,4.5586,4.5586,4.5586,4.5586,4.5586,4.5586,4.5586,4.5586,4.5586,4.5586,4.5586,4.5586,4.5586,4.5586,4.5586,4.5586,4.5586,4.5586,4.5586,4.5586,4.5586,4.5586,4.5586,4.5586,0.0,4.5682,4.5682,4.5701,4.5759,4.6528,4.7009,0.0,0.0,4.7413,4.8182,4.8259,4.9086,5.076,5.0894,5.1779,5.3374,5.4054,5.4631,5.5094,5.4941,5.4635,5.4179,5.4127,5.3981,5.3813,5.3813,5.3813,5.3813,5.3813,5.3813,5.3813,5.3813,5.3813,5.3813,4.1269,4.1036,4.0877,4.0558,4.0489,4.0489,4.0489,4.0489,4.0489,4.0489,4.0489,4.0489,4.0489,4.0489,4.0489,4.0489,4.0489,4.0489,4.0489,4.0489,4.0489,4.0489,4.0489,4.0489,4.0489,4.0489,4.0835,4.1489,4.2374,4.3104,4.3739,4.4797,4.5278,4.5297,4.5509,4.5586,4.5586,4.5586,4.5586,4.5586,4.5586,4.5586,4.5586,4.5586,4.5586,4.5586,4.5586,4.5586,4.5586,4.5586,4.5586,4.5586,4.5586,4.5586,4.5586,4.5586,4.5586,4.5586,4.5586,4.5586,4.5586,4.5586,4.5586,4.5586,4.5586,4.5586,4.5586,4.5586,4.5586,4.5586,4.5586,4.5586,4.5586,4.5586,4.5586,4.5586,4.5586,4.5586,4.5586,4.5586,4.5586,4.5855,4.6528,4.6586,4.6855,4.7451,4.7702,4.8087,4.8702,4.8721,4.8856,4.9086,4.974,5.0587,5.1606,5.2933,5.4064,5.4975,5.4976,5.4985,5.5028,5.473,5.4453,5.4179,5.4073,5.3926,5.3813,5.3813,5.3813,5.3813,5.3813,5.3813,5.3813,5.3813,5.3813,5.3813,4.0965,4.0776,4.0673,4.0554,4.0523,4.0489,4.0489,4.0489,4.0489,4.0489,4.0489,4.0489,4.0489,4.0489,4.0489,4.0489,4.0489,4.0489,4.0489,4.0489,4.0489,4.0489,4.0489,4.0489,4.0489,4.0489,4.0931,4.1797,4.2662,4.3508,4.4316,4.5182,4.5586,4.5586,4.5586,4.5586,4.5586,4.5586,4.5586,4.5586,4.5586,4.5586,4.5586,4.5586,4.5586,4.5586,4.5586,4.5586,4.5586,4.5586,4.5586,4.5586,4.5586,4.5586,4.5586,4.5586,4.5586,4.5586,4.5586,4.5586,4.5586,4.5586,4.5586,4.5586,4.5586,4.5586,4.5586,4.5586,4.5586,4.5586,4.5586,4.5586,4.5586,4.5586,4.5586,4.5586,4.5586,4.5586,4.574,4.6144,4.6182,4.6528,4.7375,4.7451,4.7625,4.8067,4.8452,0.0,4.9297,4.9986,5.0429,5.049,5.0951,5.1817,5.3087,5.4374,5.5151,5.5408,5.5255,5.5038,5.4742,5.4538,5.4337,5.4091,5.4019,5.3944,5.3813,5.3813,5.3813,5.3813,5.3813,5.3813,5.3813,5.3813,5.3813,5.3813,4.1101,4.0998,4.0822,4.0622,4.0654,4.07,4.07,4.07,4.07,4.07,4.0566,4.0489,4.0489,4.0489,4.0489,4.0489,4.0489,4.0489,4.0489,4.0489,4.0489,4.0489,4.0489,4.0489,4.0489,4.0489,4.0989,4.2008,4.2739,4.3585,4.4509,4.524,4.5586,4.5586,4.5586,4.5586,4.5586,4.5586,4.5586,4.5586,4.5586,4.5586,4.5586,4.5586,4.5586,4.5586,4.5586,4.5586,4.5586,4.5586,4.5586,4.5586,4.5586,4.5586,4.5586,4.5586,4.5586,4.5586,4.5586,4.5586,4.5586,4.5586,4.5586,4.5586,4.5586,4.5586,4.5586,4.5586,4.5586,4.5586,4.5586,4.5586,4.5586,4.5586,4.5586,4.5586,4.5586,4.5701,4.6067,4.6817,4.7009,4.7413,4.8221,4.8298,4.8355,4.8471,4.9221,4.9661,4.966,5.1097,5.1979,5.2156,5.2197,5.2986,5.4643,5.527,5.548,5.5255,5.5121,5.4863,5.4505,5.4424,5.4271,5.4019,5.3982,5.3944,5.3813,5.3813,5.3813,5.3813,5.3813,5.3813,5.3813,5.3813,5.3813,5.3813,4.2013,4.1895,4.1545,4.0752,4.1155,4.1604,4.1604,4.1604,4.1604,4.1604,4.095,4.0489,4.0489,4.0489,4.0489,4.0489,4.0489,4.0489,4.0489,4.0489,4.0489,4.0489,4.0489,4.0489,4.0489,4.0489,4.1277,4.2893,4.3028,4.3893,4.5393,4.5528,4.5586,4.5586,4.5586,4.5586,4.5586,4.5586,4.5586,4.5586,4.5586,4.5586,4.5586,4.5586,4.5586,4.5586,4.5586,4.5586,4.5586,4.5586,4.5586,4.5586,4.5586,4.5586,4.5586,4.5586,4.5586,4.5586,4.5586,4.5586,4.5586,4.5586,4.5586,4.5586,4.5586,4.5586,4.5586,4.5586,4.5586,4.5586,4.5586,4.5586,4.5586,4.5586,4.5586,4.5586,4.5586,4.622,4.6759,4.6894,4.7509,4.8259,4.9106,4.9202,4.9471,5.0162,5.0949,5.1387,5.1315,5.2261,5.3127,5.3897,5.398,5.4463,5.5426,5.5446,5.5333,5.5121,5.4931,5.4717,5.4505,5.4375,5.4235,5.4091,5.4019,5.3944,5.3813,5.3813,5.3813,5.3813,5.3813,5.3813,5.3813,5.3813,5.3813,5.3813,4.2957,4.2441,4.1996,4.2005,4.1898,4.197,4.2431,4.2104,4.1797,4.1797,4.1046,4.0489,4.0489,4.0912,4.12,4.12,4.12,4.12,4.12,4.0758,4.0489,4.0489,4.0489,4.0489,4.0489,4.0489,4.1354,4.3104,4.3104,4.3951,4.5586,4.5586,4.5586,4.5586,4.5586,4.5586,4.5586,4.5586,4.5586,4.5586,4.5586,4.5586,4.5586,4.5586,4.5586,4.5586,4.5586,4.5586,4.5586,4.5586,4.5586,4.5586,4.5586,4.5586,4.5586,4.5586,4.5586,4.5586,4.5586,4.5586,4.5586,4.5586,4.5586,4.5586,4.5586,4.5586,4.572,4.6201,4.6297,4.6432,4.6874,4.6951,4.6951,4.6951,4.6951,4.6951,4.6951,4.7298,4.7721,4.8182,4.8567,4.9317,5.0625,5.076,5.1086,5.189,5.2272,5.2439,5.2391,5.3196,5.3851,5.4345,5.4831,5.5275,5.5596,5.548,5.5281,5.5038,5.4871,5.4673,5.4409,5.4324,5.4219,5.4037,5.4019,5.3944,5.3813,5.3813,5.3813,5.3813,5.3813,5.3813,5.3813,5.3813,5.3813,5.3813,4.3897,4.3199,4.2749,4.3123,4.2757,4.2621,4.3278,4.2816,4.2316,4.2143,4.1335,4.0796,4.0796,4.1393,4.1893,4.2085,4.2104,4.2027,4.1816,4.1162,4.07,4.0508,4.0489,4.0585,4.0796,4.0796,4.1643,4.3374,4.3374,4.4143,4.5586,4.5586,4.5586,4.5586,4.5586,4.5586,4.5586,4.5586,4.5586,4.5586,4.5586,4.5586,4.5586,4.5586,4.5586,4.5586,4.5586,4.5586,4.5586,4.5586,4.5586,4.5586,4.5586,4.5586,4.5586,4.5586,4.5586,4.5586,4.5586,4.5586,4.5586,4.5586,4.5586,4.5643,4.5855,4.5893,4.6144,4.7009,4.7182,4.7375,4.799,4.8105,4.8105,4.8105,4.8105,4.8105,4.8105,4.8279,4.8644,4.9317,4.974,5.0491,5.1779,5.2087,5.2451,5.3061,5.3248,5.3322,5.3299,5.4081,5.4565,5.4674,5.5335,5.564,5.5551,5.5432,5.5229,5.4941,5.486,5.4608,5.4324,5.4359,5.4235,5.4019,5.4019,5.3926,5.3813,5.3813,5.3813,5.3813,5.3813,5.3813,5.3813,5.3813,5.3813,5.3813,4.4728,4.4606,4.4225,4.3349,4.3771,4.4212,4.4201,4.4162,4.3855,4.3104,4.2258,4.17,4.17,4.1758,4.2143,4.2931,4.3008,4.2662,4.1854,4.1739,4.1335,4.0527,4.0489,4.0873,4.17,4.17,4.2527,4.4201,4.4201,4.4682,4.5586,4.5586,4.5586,4.5586,4.5586,4.5586,4.5586,4.5586,4.5586,4.5586,4.5586,4.5586,4.5586,4.5586,4.5586,4.5586,4.5586,4.5586,4.5586,4.5586,4.5586,4.5586,4.5586,4.5586,4.5586,4.5586,4.5586,4.5586,4.5586,4.5586,4.5586,4.5586,4.5586,4.5797,4.6624,4.6797,4.7028,4.7836,4.8009,4.8029,4.8086,4.8105,4.8105,4.8105,4.8105,4.8105,4.8105,4.8798,4.9336,4.9394,5.0779,5.176,5.1895,5.2645,5.3105,5.3099,5.3848,5.4268,5.4223,5.5013,5.55,5.55,5.5643,5.5596,5.5408,5.5333,5.5121,5.4799,5.4799,5.4673,5.439,5.4458,5.4337,5.4091,5.4091,5.3981,5.3813,5.3813,5.3813,5.3813,5.3813,5.3813,5.3813,5.3813,5.3813,5.3813,4.5694,4.5192,4.4792,4.4867,4.4622,4.4553,4.5026,4.4643,4.4182,4.3874,4.3124,4.2604,4.2604,4.3047,4.3489,4.3816,4.3835,4.3701,4.3374,4.2874,4.197,4.0546,4.1008,4.147,4.1797,4.2335,4.3162,4.4297,4.4297,4.4739,4.5586,4.5586,4.5586,4.5586,4.5586,4.5586,4.5586,4.5586,4.5586,4.5586,4.5586,4.5586,4.5586,4.5586,4.5586,4.5586,4.5586,4.5586,4.5586,4.5586,4.5586,4.5586,4.5586,4.5586,4.5586,4.5586,4.597,4.6413,4.6413,4.6009,4.572,4.6278,4.6413,4.6624,4.7451,4.7644,4.7875,4.8721,4.8913,4.9221,5.026,5.0471,5.0471,5.0471,5.0471,5.0471,5.0471,5.0741,5.1144,5.1683,5.2318,5.2933,5.3453,5.3818,5.4201,5.4617,5.4962,5.5135,5.5113,5.5423,5.5573,5.5551,5.548,5.5408,5.5333,5.5744,5.5769,5.5555,5.6002,5.6135,5.593,5.5488,5.5141,5.4819,5.4315,5.3981,5.3813,5.3813,5.3813,5.3813,5.3813,5.3813,5.3813,5.3813,5.3813,5.3813,4.6216,4.567,4.5346,4.5828,4.5316,4.5021,4.556,4.5122,4.4605,4.4335,4.3816,4.347,4.347,4.397,4.4412,4.4682,4.4701,4.4586,4.4316,4.3547,4.2566,4.1373,4.1893,4.2335,4.2585,4.3162,4.3874,4.4701,4.4701,4.5009,4.5586,4.5586,4.5586,4.5586,4.5586,4.5586,4.5586,4.5586,4.5586,4.5586,4.5586,4.5586,4.5586,4.5586,4.5586,4.5586,4.5586,4.5586,4.5586,4.5586,4.5586,4.5586,4.5586,4.5778,4.6047,4.6297,4.6817,4.7278,4.7278,4.6836,4.6528,4.7124,4.7278,4.749,4.8317,4.8509,4.8836,4.9952,5.0183,5.0625,5.2049,5.2318,5.2318,5.2318,5.2318,5.2318,5.2318,5.2318,5.2529,5.3126,5.3433,5.3837,5.4434,5.4722,5.5085,5.558,5.5618,5.5618,5.5596,5.5573,5.5527,5.5408,5.5281,5.5195,5.5121,5.5884,5.6156,5.5996,5.6809,5.7092,5.6904,5.6425,5.5889,5.5268,5.4707,5.4224,5.3813,5.3813,5.3813,5.3813,5.3813,5.3813,5.3813,5.3813,5.3813,5.3813,4.6216,4.6144,4.606,4.5922,4.5854,4.5791,4.5706,4.564,4.5278,4.4412,4.4316,4.4316,4.4316,4.4316,4.4662,4.5509,4.5586,4.522,4.4374,4.3566,4.3124,4.3124,4.3104,4.347,4.4278,4.4316,4.472,4.5586,4.5586,4.5586,4.5586,4.5586,4.5586,4.5586,4.5586,4.5586,4.5586,4.5586,4.5586,4.5586,4.5586,4.5586,4.5586,4.5586,4.5586,4.5586,4.5586,4.5586,4.5586,4.5586,4.5586,4.5605,4.5605,4.6201,4.7067,4.7875,4.8105,4.8105,4.8105,4.8125,4.8125,4.8105,4.8105,4.8336,4.9221,4.9413,4.9894,5.1568,5.1914,5.2183,5.3049,5.3222,5.3222,5.3222,5.3222,5.3222,5.3222,5.3222,5.3222,5.3222,5.3972,5.4511,5.4511,5.5222,5.5703,5.5703,5.5703,5.5662,5.5596,5.5527,5.5408,5.5183,5.5066,5.4931,5.4799,5.5727,5.6114,5.5918,5.691,5.7276,5.7008,5.7073,5.6431,5.5305,5.5305,5.4727,5.3813,5.3813,5.3813,5.3813,5.3813,5.3813,5.3813,5.3813,5.3813,5.3813,4.6277,4.6226,4.613,4.5988,4.5922,4.5841,4.5715,4.569,4.556,4.5257,4.5201,4.5201,4.5201,4.5201,4.5316,4.5566,4.5586,4.549,4.522,4.4989,4.4855,4.4855,4.4259,4.4047,4.4297,4.4893,4.5336,4.5586,4.5586,4.5586,4.5586,4.5586,4.5586,4.5586,4.5586,4.5586,4.5586,4.5586,4.5586,4.5586,4.5586,4.5586,4.5586,4.5586,4.5586,4.5586,4.5586,4.5586,4.5586,4.5586,4.6009,4.6605,4.7182,4.7528,4.7798,4.8029,4.8529,4.9009,4.9009,4.9452,4.9779,4.9163,4.9009,4.9394,5.0837,5.1164,5.1471,5.2587,5.2818,5.3087,5.3953,5.4107,5.4107,5.4107,5.4107,5.4107,5.4107,5.4107,5.4318,5.4895,5.5184,5.5338,5.5338,5.5549,5.5703,5.5703,5.5703,5.5662,5.5596,5.5456,5.5281,5.5085,5.4803,5.4603,5.4543,5.5414,5.6111,5.6666,5.7544,5.8173,5.8576,5.7465,5.6701,5.6145,5.4914,5.4149,5.3813,5.3813,5.3813,5.3813,5.3813,5.3813,5.3813,5.3813,5.3813,5.3813,4.6303,4.626,4.6203,4.6063,4.5988,4.5886,4.5757,4.5719,4.5676,4.5622,4.5586,4.5586,4.5586,4.5586,4.5586,4.5586,4.5586,4.5586,4.5586,4.5586,4.5586,4.5586,4.5086,4.4797,4.4797,4.5316,4.5586,4.5586,4.5586,4.5586,4.5586,4.5586,4.5586,4.5586,4.5586,4.5586,4.5586,4.5586,4.5586,4.5586,4.5586,4.5586,4.5586,4.5586,4.5586,4.5586,4.5586,4.5586,4.5643,4.599,4.6682,4.7528,4.8355,4.8606,4.874,4.9413,4.999,5.0471,5.0818,5.1279,5.1548,5.1029,5.0644,5.0741,5.2106,5.2414,5.2664,5.353,5.3703,5.3972,5.4818,5.4972,5.4972,5.4972,5.4972,5.4972,5.4972,5.4972,5.5164,5.5645,5.5703,5.5703,5.5703,5.5703,5.5703,5.5703,5.5703,5.564,5.5527,5.5358,5.513,5.4863,5.4552,5.4521,5.4844,5.5366,5.5924,5.6587,5.7431,5.8192,5.8801,5.7488,5.6779,5.6424,5.5081,5.4242,5.3813,5.3813,5.3813,5.3813,5.3813,5.3813,5.3813,5.3813,5.3813,5.3813,4.6303,4.6292,4.625,4.613,4.6056,4.5964,4.5827,4.575,4.5693,4.5622,4.5586,4.5586,4.5586,4.5586,4.5586,4.5586,4.5586,4.5586,4.5586,4.5586,4.5586,4.5586,4.5586,4.5586,4.5586,4.5586,4.5586,4.5586,4.5586,4.5586,4.5586,4.5586,4.5586,4.5586,4.5586,4.5586,4.5586,4.5586,4.5586,4.5586,4.5586,4.5586,4.5586,4.5586,4.5586,4.5605,4.5682,4.572,4.5855,4.6817,4.7605,4.8375,4.9336,4.9625,4.9933,5.1548,5.2029,5.2202,5.2991,5.3203,5.3222,5.3299,5.2722,5.2337,5.3145,5.3318,5.3568,5.4434,5.4607,5.4818,5.5549,5.5703,5.5703,5.5703,5.5703,5.5703,5.5703,5.5703,5.5703,5.5703,5.5703,5.5703,5.5703,5.5761,5.578,5.5703,5.578,5.5711,5.5523,5.5351,5.5171,5.4837,5.4559,5.4814,5.5581,5.56,5.5779,5.6144,5.6965,5.7725,5.8272,5.7317,5.6687,5.6347,5.5472,5.4577,5.3813,5.3813,5.3813,5.3813,5.3813,5.3813,5.3813,5.3813,5.3813,5.3813,4.6306,4.63,4.6269,4.6183,4.6072,4.5977,4.5887,4.5776,4.5687,4.5603,4.5586,4.5586,4.5586,4.5586,4.5586,4.5586,4.5586,4.5586,4.5586,4.5586,4.5586,4.5586,4.5586,4.5586,4.5586,4.5586,4.5586,4.5586,4.5586,4.5586,4.5586,4.5586,4.5586,4.5586,4.5586,4.5586,4.5586,4.5586,4.5586,4.5586,4.5586,4.5586,4.5586,4.5586,4.5586,4.5682,4.6374,4.6624,4.6855,4.8355,4.8971,4.9375,5.0875,5.1375,5.1568,5.2606,5.2933,5.2972,5.3145,5.3203,5.3356,5.4049,5.4087,5.3991,5.4184,5.4222,5.4453,5.5261,5.5434,5.5491,5.5665,5.5703,5.5703,5.5703,5.5703,5.5703,5.5703,5.5703,5.5703,5.5703,5.5703,5.5703,5.5703,5.6319,5.6434,5.5742,5.6275,5.6568,5.6441,5.612,5.6163,5.654,5.6253,5.6201,5.6443,5.6478,5.6922,5.7702,5.7925,5.8382,5.9027,5.7398,5.6594,5.6329,5.4781,5.398,5.3813,5.3813,5.3813,5.3813,5.3813,5.3813,5.3813,5.3813,5.3813,5.3813,4.6303,4.6293,4.6273,4.6206,4.6123,4.6008,4.5925,4.5791,4.5668,4.5603,4.5586,4.5586,4.5586,4.5586,4.5586,4.5586,4.5586,4.5586,4.5586,4.5586,4.5586,4.5586,4.5586,4.5586,4.5586,4.5586,4.5586,4.5586,4.5586,4.5586,4.5586,4.5586,4.5586,4.5586,4.5586,4.5586,4.5586,4.5586,4.5586,4.5586,4.5586,4.5586,4.5586,4.5586,4.5855,4.6278,4.674,4.7413,4.824,4.9106,4.9933,5.076,5.1625,5.2202,5.2702,5.3568,5.3818,5.3895,5.4299,5.4395,5.4607,5.5472,5.5684,5.5568,5.5164,5.5395,5.5799,5.6222,5.6646,5.6934,5.6934,5.6934,5.6934,5.6934,5.6934,5.6934,5.6934,5.6934,5.6934,5.6934,5.6934,5.6934,5.6934,5.7357,5.7434,5.6973,5.7313,5.7469,5.7322,5.7043,5.6922,5.7088,5.6868,5.693,5.7304,5.7395,5.7898,5.8796,5.8022,5.8044,5.8689,5.7267,5.6723,5.6827,5.5094,5.437,5.4351,5.3961,5.3813,5.3813,5.3813,5.3813,5.3813,5.3813,5.4054,5.437,4.6308,4.6303,4.6284,4.6201,4.6137,4.6047,4.5929,4.5786,4.5668,4.5603,4.5586,4.5586,4.5586,4.5586,4.5586,4.5586,4.5586,4.5586,4.5586,4.5586,4.5586,4.5586,4.5586,4.5586,4.5586,4.5586,4.5586,4.5586,4.5586,4.5586,4.5586,4.5586,4.5586,4.5586,4.5586,4.5586,4.5586,4.5586,4.5586,4.5586,4.5586,4.5586,4.5605,4.5759,4.6278,4.6951,4.7221,4.8317,4.9644,4.9779,5.076,5.1952,5.226,5.2837,5.3587,5.4453,5.4703,5.4857,5.5511,5.5799,5.6088,5.6819,5.7107,5.703,5.6299,5.6703,5.7223,5.7223,5.78,5.83,5.83,5.83,5.83,5.83,5.83,5.83,5.83,5.83,5.83,5.83,5.83,5.83,5.83,5.8415,5.8454,5.8319,5.8366,5.8352,5.8228,5.7976,5.7753,5.7588,5.7422,5.7638,5.8259,5.8314,5.8725,5.9474,5.8132,5.7761,5.8259,5.7248,5.7057,5.7416,5.5893,5.5224,5.5169,5.45,5.4147,5.4017,5.4017,5.3924,5.3831,5.3961,5.4444,5.5039,4.6308,4.6308,4.6285,4.6206,4.6144,4.6056,4.591,4.5786,4.5668,4.5603,4.5586,4.5586,4.5586,4.5586,4.5586,4.5586,4.5586,4.5586,4.5586,4.5586,4.5586,4.5586,4.5586,4.5586,4.5586,4.5586,4.5586,4.5586,4.5586,4.5586,4.5586,4.5586,4.5586,4.5586,4.5586,4.5586,4.5586,4.5586,4.5586,4.5586,4.5586,4.5586,4.5682,4.6432,4.6797,4.7086,4.8548,4.9683,5.0625,5.1337,5.1722,5.2164,5.3664,5.4222,5.4472,5.5299,5.553,5.5549,5.5665,5.6242,5.6838,5.6953,5.7569,5.8088,5.7992,5.805,5.8127,5.8127,5.8223,5.83,5.83,5.83,5.83,5.83,5.83,5.83,5.83,5.83,5.83,5.83,5.83,5.83,5.83,5.8934,5.905,5.8357,5.8865,5.9202,5.9122,5.8937,5.9082,5.9602,5.9254,5.9137,5.9306,5.9196,5.9252,5.9493,5.9157,5.9046,5.9028,5.8071,5.7579,5.7453,5.6525,5.6116,5.6116,5.6004,5.5522,5.4853,5.4853,5.4407,5.3887,5.4593,5.4927,5.5113,4.6308,4.6308,4.6287,4.6202,4.6138,4.6056,4.591,4.5786,4.5668,4.5603,4.5586,4.5586,4.5586,4.6028,4.6336,4.6336,4.674,4.699,4.699,4.699,4.699,4.699,4.699,4.699,4.699,4.699,4.699,4.699,4.6047,4.5586,4.5586,4.5586,4.5586,4.5586,4.5586,4.5586,4.5624,4.6124,4.6336,4.6374,4.6817,4.699,4.7048,4.7432,4.7875,4.8529,5.0202,5.1048,5.151,5.2337,5.2953,5.3491,5.426,5.4799,5.5241,5.5588,5.5703,5.5799,5.628,5.6703,5.7203,5.8165,5.8684,5.9108,5.9588,5.9704,5.955,5.9069,5.9358,5.9704,5.9704,5.9704,5.9704,5.9704,5.9704,5.9704,5.9704,5.9704,5.9704,5.9704,5.9704,5.9704,5.9704,6.0012,6.0089,5.9723,5.9965,6.0128,6.0079,5.9898,5.9874,6.0038,5.973,5.9543,5.9564,5.9474,5.9438,5.9493,5.9438,5.9328,5.9177,5.8667,5.8341,5.8141,5.7323,5.697,5.6952,5.6487,5.6079,5.5726,5.5726,5.5522,5.5243,5.5596,5.6023,5.645]},{"header":{"parameterUnit":"m.s-1","parameterCategory":1,"la1":30.6,"la2":28.766,"lo1":-90.7593,"lo2":-88.6598,"dy":0.0162,"dx":0.0183,"nx":116,"ny":114,"refTime":"2023-11-15T06:00:00:Z","depth":0,"parameterNumber":3,"parameterNumberName":"V-component_of_WINDS"},"data":[0.0,0.0,0.0,0.0,0.0,0.0,0.0,0.0,0.0,0.0,0.0,0.0,0.0,0.0,0.0,0.0,0.0,0.0,0.0,0.0,0.0,0.0,0.0,0.0,0.0,0.0,0.0,0.0,0.0,0.0,0.0,0.0,0.0,0.0,0.0,0.0,0.0,0.0,0.0,0.0,0.0,0.0,0.0,0.0,0.0,0.0,0.0,0.0,0.0,0.0,0.0,0.0,0.0,0.0,0.0,0.0,0.0,0.0,0.0,0.0,0.0,0.0,0.0,0.0,0.0,0.0,0.0,0.0,0.0,0.0,0.0,0.0,0.0,0.0,0.0,0.0,0.0,0.0,0.0,0.0,0.0,0.0,0.0,0.0,0.0,0.0,0.0,0.0,0.0,0.0,0.0,0.0,0.0,0.0,0.0,0.0,0.0,0.0,0.0,0.0,0.0,0.0,0.0,0.0,0.0,0.0,0.0,0.0,0.0,0.0,0.0,0.0,0.0,0.0,0.0,0.0,0.0,0.0,0.0,0.0,0.0,0.0,0.0,0.0,0.0,0.0,0.0,0.0,0.0,0.0,0.0,0.0,0.0,0.0,0.0,0.0,0.0,0.0,0.0,0.0,0.0,0.0,0.0,0.0,0.0,0.0,0.0,0.0,0.0,0.0,0.0,0.0,0.0,0.0,0.0,0.0,0.0,0.0,0.0,0.0,0.0,0.0,0.0,0.0,0.0,0.0,0.0,0.0,0.0,0.0,0.0,0.0,0.0,0.0,0.0,0.0,0.0,0.0,0.0,0.0,0.0,0.0,0.0,0.0,0.0,0.0,0.0,0.0,0.0,0.0,0.0,0.0,0.0,0.0,0.0,0.0,0.0,0.0,0.0,0.0,0.0,0.0,0.0,0.0,0.0,0.0,0.0,0.0,0.0,0.0,0.0,0.0,0.0,0.0,0.0,0.0,0.0,0.0,0.0,0.0,0.0,0.0,0.0,0.0,0.0,0.0,0.0,0.0,0.0,0.0,0.0,0.0,0.0,0.0,0.0,0.0,0.0,0.0,0.0,0.0,0.0,0.0,0.0,0.0,0.0,0.0,0.0,0.0,0.0,0.0,0.0,0.0,0.0,0.0,0.0,0.0,0.0,0.0,0.0,0.0,0.0,0.0,0.0,0.0,0.0,0.0,0.0,0.0,0.0,0.0,0.0,0.0,0.0,0.0,0.0,0.0,0.0,0.0,0.0,0.0,0.0,0.0,0.0,0.0,0.0,0.0,0.0,0.0,0.0,0.0,0.0,0.0,0.0,0.0,0.0,0.0,0.0,0.0,0.0,0.0,0.0,0.0,0.0,0.0,0.0,0.0,0.0,0.0,0.0,0.0,0.0,0.0,0.0,0.0,0.0,0.0,0.0,0.0,0.0,0.0,0.0,0.0,0.0,0.0,0.0,0.0,0.0,0.0,0.0,0.0,0.0,0.0,0.0,0.0,0.0,0.0,0.0,0.0,0.0,0.0,0.0,0.0,0.0,0.0,0.0,0.0,0.0,0.0,0.0,0.0,0.0,0.0,0.0,0.0,0.0,0.0,0.0,0.0,0.0,0.0,0.0,0.0,0.0,0.0,0.0,0.0,0.0,0.0,0.0,0.0,0.0,0.0,0.0,0.0,0.0,0.0,0.0,0.0,0.0,0.0,0.0,0.0,0.0,0.0,0.0,0.0,0.0,0.0,0.0,0.0,0.0,0.0,0.0,0.0,0.0,0.0,0.0,0.0,0.0,0.0,0.0,0.0,0.0,0.0,0.0,0.0,0.0,0.0,0.0,0.0,0.0,0.0,0.0,0.0,0.0,0.0,0.0,0.0,0.0,0.0,0.0,0.0,0.0,0.0,0.0,0.0,0.0,0.0,0.0,0.0,0.0,0.0,0.0,0.0,0.0,0.0,0.0,0.0,0.0,0.0,0.0,0.0,0.0,0.0,0.0,0.0,0.0,0.0,0.0,0.0,0.0,0.0,0.0,0.0,0.0,0.0,0.0,0.0,0.0,0.0,0.0,0.0,0.0,0.0,0.0,0.0,0.0,0.0,0.0,0.0,0.0,0.0,0.0,0.0,0.0,0.0,0.0,0.0,0.0,0.0,0.0,0.0,0.0,0.0,0.0,0.0,0.0,0.0,0.0,0.0,0.0,0.0,0.0,0.0,0.0,0.0,0.0,0.0,0.0,0.0,0.0,0.0,0.0,0.0,0.0,0.0,0.0,0.0,0.0,0.0,0.0,0.0,0.0,0.0,0.0,0.0,0.0,0.0,0.0,0.0,0.0,0.0,0.0,0.0,0.0,0.0,0.0,0.0,0.0,0.0,0.0,0.0,0.0,0.0,0.0,0.0,0.0,0.0,0.0,0.0,0.0,0.0,0.0,0.0,0.0,0.0,0.0,0.0,0.0,0.0,0.0,0.0,0.0,0.0,0.0,0.0,0.0,0.0,0.0,0.0,0.0,0.0,0.0,0.0,0.0,0.0,0.0,0.0,0.0,0.0,0.0,0.0,0.0,0.0,0.0,0.0,0.0,0.0,0.0,0.0,0.0,0.0,0.0,0.0,0.0,0.0,0.0,0.0,0.0,0.0,0.0,0.0,0.0,0.0,0.0,0.0,0.0,0.0,0.0,0.0,0.0,0.0,0.0,0.0,0.0,0.0,0.0,0.0,0.0,0.0,0.0,0.0,0.0,0.0,0.0,0.0,0.0,0.0,0.0,0.0,0.0,0.0,0.0,0.0,0.0,0.0,0.0,0.0,0.0,0.0,0.0,0.0,0.0,0.0,0.0,0.0,0.0,0.0,0.0,0.0,0.0,0.0,0.0,0.0,0.0,0.0,0.0,0.0,0.0,0.0,0.0,0.0,0.0,0.0,0.0,0.0,0.0,0.0,0.0,0.0,0.0,0.0,0.0,0.0,0.0,0.0,0.0,0.0,0.0,0.0,0.0,0.0,0.0,0.0,0.0,0.0,0.0,0.0,0.0,0.0,0.0,0.0,0.0,0.0,0.0,0.0,0.0,0.0,0.0,0.0,0.0,0.0,0.0,0.0,0.0,0.0,0.0,0.0,0.0,0.0,0.0,0.0,0.0,0.0,0.0,0.0,0.0,0.0,0.0,0.0,0.0,0.0,0.0,0.0,0.0,0.0,0.0,0.0,0.0,0.0,0.0,0.0,0.0,0.0,0.0,0.0,0.0,0.0,0.0,0.0,0.0,0.0,0.0,0.0,0.0,0.0,0.0,0.0,0.0,0.0,0.0,0.0,0.0,0.0,0.0,0.0,0.0,0.0,0.0,0.0,0.0,0.0,0.0,0.0,0.0,0.0,0.0,0.0,0.0,0.0,0.0,0.0,0.0,0.0,0.0,0.0,0.0,0.0,0.0,0.0,0.0,0.0,0.0,0.0,0.0,0.0,0.0,0.0,0.0,0.0,0.0,0.0,0.0,0.0,0.0,0.0,0.0,0.0,0.0,0.0,0.0,0.0,0.0,0.0,0.0,0.0,0.0,0.0,0.0,0.0,0.0,0.0,0.0,0.0,0.0,0.0,0.0,0.0,0.0,0.0,0.0,0.0,0.0,0.0,0.0,0.0,0.0,0.0,0.0,0.0,0.0,0.0,0.0,0.0,0.0,0.0,0.0,0.0,0.0,0.0,0.0,0.0,0.0,0.0,0.0,0.0,0.0,0.0,0.0,0.0,0.0,0.0,0.0,0.0,0.0,0.0,0.0,0.0,0.0,0.0,0.0,0.0,0.0,0.0,0.0,0.0,0.0,0.0,0.0,0.0,0.0,0.0,0.0,0.0,0.0,0.0,0.0,0.0,0.0,0.0,0.0,0.0,0.0,0.0,0.0,0.0,0.0,0.0,0.0,0.0,0.0,0.0,0.0,0.0,0.0,0.0,0.0,0.0,0.0,0.0,0.0,0.0,0.0,0.0,0.0,0.0,0.0,0.0,0.0,0.0,0.0,0.0,0.0,0.0,0.0,0.0,0.0,0.0,0.0,0.0,0.0,0.0,0.0,0.0,0.0,0.0,0.0,0.0,0.0,0.0,0.0,0.0,0.0,0.0,0.0,0.0,0.0,0.0,0.0,0.0,0.0,0.0,0.0,0.0,0.0,0.0,0.0,0.0,0.0,0.0,0.0,0.0,0.0,0.0,0.0,0.0,0.0,0.0,0.0,0.0,0.0,0.0,0.0,0.0,0.0,0.0,0.0,0.0,0.0,0.0,0.0,0.0,0.0,0.0,0.0,0.0,0.0,0.0,0.0,0.0,0.0,0.0,0.0,0.0,0.0,0.0,0.0,0.0,0.0,0.0,0.0,0.0,0.0,0.0,0.0,0.0,0.0,0.0,0.0,0.0,0.0,0.0,0.0,0.0,0.0,0.0,0.0,0.0,0.0,0.0,0.0,0.0,0.0,0.0,0.0,0.0,0.0,0.0,0.0,0.0,0.0,0.0,0.0,0.0,0.0,0.0,0.0,0.0,0.0,0.0,0.0,0.0,0.0,0.0,0.0,0.0,0.0,0.0,0.0,0.0,0.0,0.0,0.0,0.0,0.0,0.0,0.0,0.0,0.0,0.0,0.0,0.0,0.0,0.0,0.0,0.0,0.0,0.0,0.0,0.0,0.0,0.0,0.0,0.0,0.0,0.0,0.0,0.0,0.0,0.0,0.0,0.0,0.0,0.0,0.0,0.0,0.0,0.0,0.0,0.0,0.0,0.0,0.0,0.0,0.0,0.0,0.0,0.0,0.0,0.0,0.0,0.0,0.0,0.0,0.0,0.0,0.0,0.0,0.0,0.0,0.0,0.0,0.0,0.0,0.0,0.0,0.0,0.0,0.0,0.0,0.0,0.0,0.0,0.0,0.0,0.0,0.0,0.0,0.0,0.0,0.0,0.0,0.0,0.0,0.0,0.0,0.0,0.0,0.0,0.0,0.0,0.0,0.0,0.0,0.0,0.0,0.0,0.0,0.0,0.0,0.0,0.0,0.0,0.0,0.0,0.0,0.0,0.0,0.0,0.0,0.0,0.0,0.0,0.0,0.0,0.0,0.0,0.0,0.0,0.0,0.0,0.0,0.0,0.0,0.0,0.0,0.0,0.0,0.0,0.0,0.0,0.0,0.0,0.0,0.0,0.0,0.0,0.0,0.0,0.0,0.0,0.0,0.0,0.0,0.0,0.0,0.0,0.0,0.0,0.0,0.0,0.0,0.0,0.0,0.0,0.0,0.0,0.0,0.0,0.0,0.0,0.0,0.0,0.0,0.0,0.0,0.0,0.0,0.0,0.0,0.0,0.0,0.0,0.0,0.0,0.0,0.0,0.0,0.0,0.0,0.0,0.0,0.0,0.0,0.0,0.0,0.0,0.0,0.0,0.0,0.0,0.0,0.0,0.0,0.0,0.0,0.0,0.0,0.0,0.0,0.0,0.0,0.0,0.0,0.0,0.0,0.0,0.0,0.0,0.0,0.0,0.0,0.0,0.0,0.0,0.0,0.0,0.0,0.0,0.0,0.0,0.0,0.0,0.0,0.0,0.0,0.0,0.0,0.0,0.0,0.0,0.0,0.0,0.0,0.0,0.0,0.0,0.0,0.0,0.0,0.0,0.0,0.0,0.0,0.0,0.0,0.0,0.0,0.0,0.0,0.0,0.0,0.0,0.0,0.0,0.0,0.0,0.0,0.0,0.0,0.0,0.0,0.0,0.0,0.0,0.0,0.0,0.0,0.0,0.0,0.0,0.0,0.0,0.0,0.0,0.0,0.0,0.0,0.0,0.0,0.0,0.0,0.0,0.0,0.0,0.0,0.0,0.0,0.0,0.0,0.0,0.0,0.0,0.0,0.0,0.0,0.0,0.0,0.0,0.0,0.0,0.0,0.0,0.0,0.0,0.0,0.0,0.0,0.0,0.0,0.0,0.0,0.0,0.0,0.0,0.0,0.0,0.0,0.0,0.0,0.0,0.0,0.0,0.0,0.0,0.0,0.0,0.0,0.0,0.0,0.0,0.0,0.0,0.0,0.0,0.0,0.0,0.0,0.0,0.0,0.0,0.0,0.0,0.0,0.0,0.0,0.0,0.0,0.0,0.0,0.0,0.0,0.0,0.0,0.0,0.0,0.0,0.0,0.0,0.0,0.0,0.0,0.0,0.0,0.0,0.0,0.0,0.0,0.0,0.0,0.0,0.0,0.0,0.0,0.0,0.0,0.0,0.0,0.0,0.0,0.0,0.0,0.0,0.0,0.0,0.0,0.0,0.0,0.0,-0.4356,-0.4144,-0.4106,-0.4232,-0.447,-0.4577,-0.4561,0.0,0.0,0.0,0.0,0.0,0.0,0.0,0.0,0.0,0.0,0.0,0.0,0.0,0.0,0.0,0.0,0.0,0.0,0.0,0.0,0.0,0.0,0.0,0.0,0.0,0.0,0.0,0.0,0.0,0.0,0.0,0.0,0.0,0.0,0.0,0.0,0.0,0.0,0.0,0.0,0.0,0.0,0.0,0.0,0.0,0.0,0.0,0.0,0.0,0.0,0.0,0.0,0.0,0.0,0.0,0.0,0.0,0.0,0.0,0.0,0.0,0.0,0.0,0.0,0.0,0.0,0.0,0.0,0.0,0.0,0.0,0.0,0.0,0.0,0.0,0.0,0.0,0.0,0.0,0.0,0.0,0.0,0.0,0.0,0.0,0.0,0.0,0.0,0.0,0.0,0.0,0.0,0.0,0.0,0.0,-0.4307,-0.4501,-0.4501,-0.4468,-0.4472,-0.4504,0.0,0.0,0.0,0.0,0.0,-0.4519,-0.4487,-0.4402,-0.4154,-0.4003,-0.3952,-0.4017,-0.4557,-0.4782,-0.4759,-0.4915,0.0,0.0,0.0,0.0,0.0,0.0,0.0,0.0,0.0,0.0,0.0,0.0,0.0,0.0,0.0,0.0,0.0,0.0,0.0,0.0,0.0,0.0,0.0,0.0,0.0,0.0,0.0,0.0,0.0,0.0,0.0,0.0,0.0,0.0,0.0,0.0,0.0,0.0,0.0,0.0,0.0,0.0,0.0,0.0,0.0,0.0,0.0,0.0,0.0,0.0,0.0,0.0,0.0,0.0,0.0,0.0,0.0,0.0,0.0,0.0,0.0,0.0,0.0,0.0,0.0,0.0,0.0,0.0,0.0,0.0,0.0,0.0,0.0,0.0,0.0,0.0,0.0,0.0,0.0,0.0,0.0,0.0,0.0,0.0,0.0,0.0,0.0,0.0,0.0,0.0,0.0,0.0,-0.4175,-0.4019,-0.4235,-0.4423,-0.4423,-0.4417,-0.4436,-0.4429,-0.4423,0.0,0.0,0.0,-0.4519,-0.4519,-0.4418,-0.4309,-0.401,-0.3919,-0.3914,-0.4018,-0.4809,-0.5281,-0.5457,-0.5398,-0.5216,-0.5074,0.0,0.0,0.0,0.0,0.0,0.0,0.0,0.0,0.0,0.0,0.0,0.0,0.0,0.0,0.0,0.0,0.0,0.0,0.0,0.0,0.0,0.0,0.0,0.0,0.0,0.0,0.0,0.0,0.0,0.0,0.0,0.0,0.0,0.0,0.0,0.0,0.0,0.0,0.0,0.0,0.0,-0.3399,-0.2758,0.0,0.0,0.0,0.0,0.0,0.0,0.0,0.0,0.0,0.0,0.0,0.0,0.0,-0.1176,-0.1203,-0.0358,0.0,0.0,0.0,0.0,0.0,0.0,0.0,0.0,0.0,0.0,0.0,0.0,0.0,0.0,0.0,0.0,0.0,0.0,0.0,0.0,0.0,0.0,0.0,0.0,0.0,0.0,0.0,0.0,0.0,0.0,0.0,0.0,0.0,-0.4137,-0.4183,-0.4008,-0.4128,-0.4106,-0.3917,-0.4024,0.0,0.0,-0.4187,-0.4281,-0.4308,-0.4148,-0.3887,-0.3461,-0.361,-0.3845,-0.4185,-0.497,-0.5615,-0.6089,-0.6076,-0.5888,-0.5501,-0.5423,0.0,0.0,0.0,0.0,0.0,0.0,0.0,0.0,0.0,0.0,0.0,0.0,0.0,0.0,0.0,0.0,0.0,0.0,0.0,0.0,0.0,0.0,0.0,0.0,0.0,0.0,0.0,0.0,0.0,0.0,0.0,0.0,0.0,0.0,0.0,0.0,0.0,0.0,0.0,-0.3377,-0.2816,-0.2379,-0.1936,-0.1533,0.0,0.0,0.0,0.0,0.0,0.0,0.0,0.0,0.0,-0.0833,-0.113,-0.125,-0.1262,-0.0469,0.0,0.0,0.0,0.0,0.0,0.0,0.0,0.0,0.0,0.0,0.0,0.0,0.0,0.0,0.0,0.0,0.0,0.0,0.0,0.0,0.0,0.0,0.0,0.0,0.0,0.0,0.0,0.0,0.0,0.0,0.0,0.0,-0.3816,-0.3925,-0.3885,-0.354,-0.3682,-0.3692,-0.3365,-0.3565,-0.3735,-0.3694,-0.3799,-0.3916,-0.3993,-0.3745,-0.3448,-0.3119,-0.3467,-0.3912,-0.4458,-0.5233,-0.5881,-0.647,-0.6729,-0.6481,-0.5911,-0.5806,-0.5542,-0.5165,0.0,0.0,0.0,0.0,0.0,0.0,0.0,0.0,0.0,0.0,0.0,0.0,0.0,0.0,0.0,0.0,0.0,0.0,0.0,0.0,0.0,0.0,0.0,0.0,0.0,0.0,0.0,0.0,0.0,0.0,0.0,0.0,0.0,0.0,0.0,0.0,0.0,-0.2796,-0.2398,-0.1999,-0.1697,-0.1446,0.0,0.0,0.0,0.0,0.0,0.0,-0.0908,-0.0851,-0.0696,-0.0265,-0.0552,-0.0752,-0.0752,-0.0292,0.0,0.0,0.0,0.0,0.0,0.0,0.0,0.0,0.0,0.0,0.0,0.0,0.0,0.0,0.0,0.0,0.0,0.0,0.0,0.0,0.0,0.0,0.0,0.0,0.0,0.0,0.0,0.0,0.0,0.0,0.0,-0.3636,-0.354,-0.3554,-0.3515,-0.313,-0.3279,-0.3273,-0.3029,-0.3186,-0.3287,-0.3423,-0.3413,-0.3411,-0.3465,-0.3179,-0.3115,-0.3355,-0.3678,-0.423,-0.4923,-0.5651,-0.6331,-0.6773,-0.7031,-0.679,-0.6237,-0.623,-0.5961,-0.5335,-0.5172,0.0,0.0,0.0,0.0,0.0,0.0,0.0,0.0,0.0,0.0,0.0,0.0,0.0,0.0,0.0,0.0,0.0,0.0,0.0,0.0,0.0,0.0,0.0,0.0,0.0,0.0,0.0,0.0,0.0,0.0,0.0,0.0,0.0,0.0,0.0,0.0,0.0,0.0,-0.1699,-0.1461,0.0,0.0,0.0,0.0,-0.1212,-0.0744,-0.0338,0.0,0.009,0.0276,0.0645,0.0671,0.0685,0.0685,0.02,0.0,0.0,0.0,0.0,0.0,0.0,0.0,0.0,0.0,0.0,0.0,0.0,0.0,0.0,0.0,0.0,0.0,0.0,0.0,0.0,0.0,0.0,0.0,0.0,0.0,0.0,0.0,0.0,-0.3721,-0.3632,-0.3525,-0.3406,-0.3149,-0.3049,-0.2879,-0.2492,-0.261,-0.2528,-0.2259,-0.2407,-0.2578,-0.2639,-0.2801,-0.2899,-0.2963,-0.2989,-0.313,-0.336,-0.3835,-0.4541,-0.5393,-0.6054,-0.6523,-0.6966,-0.7051,-0.6973,-0.6678,-0.6481,-0.622,-0.5974,-0.5457,-0.5216,0.0,0.0,0.0,0.0,0.0,0.0,0.0,0.0,0.0,0.0,0.0,0.0,0.0,0.0,0.0,0.0,0.0,0.0,0.0,0.0,0.0,0.0,0.0,0.0,0.0,0.0,0.0,0.0,0.0,0.0,0.0,0.0,0.0,0.0,0.0,0.0,0.0,-0.1437,-0.1343,0.0,-0.1298,-0.1021,-0.0938,-0.1237,-0.0535,0.0542,0.2032,0.2085,0.221,0.2306,0.2366,0.1999,0.1298,0.1107,0.0707,0.0,0.0,0.0,0.0,0.0,0.0,0.0,0.0,0.0,0.0,0.0,0.0,0.0,0.0,0.0,0.0,0.0,0.0,0.0,0.0,0.0,0.0,0.0,0.0,0.0,0.0,-0.3788,-0.3678,-0.3568,-0.3419,-0.3179,-0.2821,-0.2644,-0.2405,-0.1961,-0.1996,-0.1988,-0.1666,-0.184,-0.1981,-0.2023,-0.2184,-0.2376,-0.2581,-0.2766,-0.3075,-0.361,-0.412,-0.4872,-0.5773,-0.621,-0.6557,-0.6993,-0.7044,-0.7017,-0.6915,-0.6712,-0.6485,-0.6224,-0.5769,-0.5528,-0.5396,0.0,0.0,0.0,0.0,0.0,0.0,0.0,0.0,0.0,0.0,0.0,0.0,0.0,0.0,0.0,0.0,0.0,0.0,0.0,0.0,0.0,0.0,0.0,0.0,0.0,0.0,0.0,0.0,0.0,0.0,0.0,0.0,0.0,0.0,0.0,-0.1498,-0.1325,-0.1149,-0.1156,-0.1279,-0.1086,-0.0727,-0.0373,0.0658,0.171,0.2986,0.3139,0.3269,0.3467,0.331,0.2825,0.2116,0.1817,0.1111,0.0303,0.0101,0.0,0.0,0.0,0.0,0.0,0.0,0.0,0.0,0.0,0.0,0.0,0.0,0.0,0.0,0.0,0.0,0.0,0.0,0.0,0.0,0.0,0.0,0.0,-0.3744,-0.3658,-0.3574,-0.3478,-0.3309,-0.3058,-0.2636,-0.2416,-0.2114,-0.1515,-0.1626,-0.155,-0.1299,-0.1381,-0.1503,-0.1583,-0.1665,-0.1905,-0.2264,-0.2538,-0.3038,-0.4022,-0.4545,-0.523,-0.6034,-0.6207,-0.6453,-0.6709,-0.6854,-0.6922,-0.6922,-0.6922,-0.6671,-0.6261,-0.6105,-0.5871,-0.5579,0.0,0.0,0.0,0.0,0.0,0.0,0.0,0.0,0.0,0.0,0.0,0.0,0.0,0.0,0.0,0.0,0.0,0.0,0.0,0.0,0.0,0.0,0.0,0.0,0.0,0.0,0.0,0.0,0.0,0.0,0.0,0.0,0.0,-0.154,-0.1609,-0.1591,-0.1291,-0.0942,-0.0859,-0.1338,-0.1337,-0.0573,0.1433,0.2627,0.3049,0.2748,0.3098,0.3432,0.4033,0.3531,0.3229,0.3224,0.2116,0.1312,0.0808,0.0303,0.0,0.0,0.0,0.0,0.0,0.0,0.0,0.0,0.0,0.0,0.0,0.0,0.0,0.0,0.0,0.0,0.0,0.0,0.0,0.0,0.0,0.0,0.0,-0.3667,-0.3698,-0.3574,-0.3166,-0.3016,-0.2675,-0.2083,-0.1846,-0.16,-0.1283,-0.1287,-0.1217,-0.1102,-0.1046,-0.1148,-0.1365,-0.1591,-0.1841,-0.2118,-0.262,-0.326,-0.4256,-0.4858,-0.5485,-0.6207,-0.6453,-0.6619,-0.6702,-0.6746,-0.6763,-0.6763,-0.6763,-0.6692,-0.6566,-0.641,-0.624,-0.604,0.0,0.0,0.0,0.0,0.0,0.0,0.0,0.0,0.0,0.0,0.0,0.0,0.0,0.0,0.0,0.0,0.0,0.0,0.0,0.0,0.0,0.0,0.0,0.0,0.0,0.0,0.0,0.0,0.0,0.0,0.0,0.0,-0.1324,-0.1363,-0.1137,-0.0999,-0.1344,-0.1247,-0.0965,-0.0397,-0.0393,0.0196,0.1491,0.2599,0.3307,0.3507,0.3825,0.4236,0.4533,0.4236,0.3833,0.3229,0.2521,0.1716,0.0808,0.0303,0.0,0.0,0.0,0.0,0.0,0.0,0.0,0.0,0.0,0.0,0.0,0.0,0.0,0.0,0.0,0.0,0.0,0.0,0.0,0.0,0.0,0.0,0.0,-0.3622,-0.3639,-0.3464,-0.3064,-0.2819,-0.2445,-0.1849,-0.1617,-0.1359,-0.1154,-0.1106,-0.1053,-0.0937,-0.0974,-0.0994,-0.1198,-0.1393,-0.1688,-0.2027,-0.2644,-0.341,-0.438,-0.4963,-0.5594,-0.6185,-0.6341,-0.642,-0.6424,-0.6549,-0.6607,-0.661,-0.6675,-0.6702,-0.6695,-0.6603,-0.6519,-0.642,-0.6176,-0.603,-0.5939,-0.5793,-0.5657,-0.5532,-0.544,0.0,0.0,0.0,0.0,0.0,0.0,0.0,0.0,0.0,0.0,0.0,0.0,0.0,0.0,0.0,0.0,0.0,0.0,0.0,0.0,0.0,0.0,0.0,0.0,-0.1232,-0.1316,-0.1369,-0.1111,-0.0948,-0.0791,-0.0787,-0.0592,-0.0101,0.0,0.0399,0.1211,0.2424,0.3331,0.3734,0.4137,0.4638,0.5135,0.4535,0.4034,0.3633,0.3027,0.2221,0.1111,0.0404,0.0,0.0,0.0,0.0,0.0,0.0,0.0,0.0,0.0,0.0,0.0,0.0,0.0,0.0,0.0,0.0,0.0,0.0,0.0,0.0,0.0,0.0,0.0,-0.3578,-0.3497,-0.3315,-0.3011,-0.2672,-0.2263,-0.1802,-0.1605,-0.1337,-0.1142,-0.1065,-0.1029,-0.0893,-0.098,-0.1037,-0.1123,-0.1155,-0.1437,-0.194,-0.2668,-0.3471,-0.4426,-0.4961,-0.546,-0.6003,-0.6003,-0.6003,-0.6017,-0.6298,-0.6424,-0.6434,-0.6586,-0.6661,-0.6675,-0.6675,-0.6675,-0.6661,-0.6522,-0.6471,-0.6458,-0.6329,-0.6118,-0.5898,-0.5864,0.0,0.0,0.0,0.0,0.0,0.0,0.0,0.0,0.0,0.0,0.0,0.0,0.0,0.0,0.0,0.0,0.0,0.0,0.0,0.0,0.0,0.0,0.0,0.0,-0.1211,-0.1287,-0.1364,-0.1279,-0.0892,-0.0101,0.0,0.0,0.0,0.0,0.0202,0.0808,0.2322,0.333,0.3627,0.0,0.0,0.0,0.0,0.4033,0.4135,0.3432,0.2524,0.1617,0.0505,0.0,0.0,0.0,0.0,0.0,0.0,0.0,0.0,0.0,0.0,0.0,0.0,0.0,0.0,0.0,0.0,0.0,0.0,0.0,0.0,0.0,0.0,0.0,-0.3486,-0.3402,-0.3214,-0.2753,-0.2398,-0.2019,-0.1615,-0.1286,-0.1092,-0.1041,-0.0997,-0.0971,-0.0979,-0.1029,-0.1088,-0.1155,-0.1187,-0.1452,-0.1898,-0.2529,-0.3283,-0.4284,-0.4871,-0.5396,-0.5844,-0.5844,-0.5844,-0.5854,-0.6034,-0.6115,-0.6125,-0.6281,-0.6413,-0.6515,-0.6515,-0.6515,-0.6512,-0.6481,-0.6471,-0.6468,-0.6441,-0.6471,-0.6491,-0.6251,-0.6135,-0.602,-0.5627,-0.5399,0.0,0.0,0.0,0.0,0.0,0.0,0.0,0.0,0.0,0.0,0.0,0.0,0.0,0.0,0.0,0.0,0.0,0.0,0.0,-0.1102,-0.1251,-0.1308,-0.1366,-0.0796,-0.0201,-0.0,0.0,0.0,0.0,0.0,0.0202,0.0808,0.2322,0.333,0.3627,0.4535,0.4939,0.4638,0.4236,0.363,0.3026,0.2323,0.1819,0.1617,0.0,0.0,0.0,0.0,0.0,0.0,0.0,0.0,0.0,0.0,0.0,0.0,0.0,0.0,0.0,0.0,0.0,0.0,0.0,0.0,0.0,0.0,0.0,0.0,-0.3442,-0.3256,-0.2988,-0.253,-0.2124,-0.1725,-0.1414,-0.1111,-0.0988,-0.0927,-0.09,-0.0902,-0.1008,-0.1066,-0.1125,-0.1186,-0.1218,-0.1475,-0.1886,-0.2356,-0.3117,-0.4148,-0.4646,-0.5146,-0.5659,-0.5657,-0.5694,-0.5705,-0.5928,-0.603,-0.604,-0.6196,-0.6302,-0.6366,-0.6366,-0.6366,-0.6383,-0.6529,-0.6586,-0.6586,-0.6586,-0.6586,-0.6563,-0.6417,-0.6318,-0.6207,-0.5905,-0.5657,-0.543,0.0,0.0,0.0,0.0,0.0,0.0,0.0,0.0,0.0,0.0,0.0,0.0,0.0,0.0,-0.1018,-0.0841,0.0,-0.1146,-0.1226,-0.127,-0.1122,-0.0771,-0.0293,0.0,0.0,0.0,0.0,0.0,0.0,0.0303,0.1111,0.2424,0.333,0.3729,0.4334,0.474,0.4847,0.3833,0.3127,0.2927,0.1919,0.1212,0.0808,0.0303,0.0,0.0,0.0,0.0,0.0,0.0,0.0,0.0,0.0,0.0,0.0,0.0,0.0,0.0,0.0,0.0,0.0,0.0,0.0,0.0,0.0,0.0,0.0,-0.3398,-0.3092,-0.2735,-0.2339,-0.1838,-0.1486,-0.1203,-0.1056,-0.0945,-0.0927,-0.0877,-0.0911,-0.1037,-0.1097,-0.1157,-0.1218,-0.1244,-0.1493,-0.1808,-0.2198,-0.2893,-0.3887,-0.4331,-0.4818,-0.5372,-0.5547,-0.5633,-0.5644,-0.5911,-0.603,-0.604,-0.6196,-0.6338,-0.6338,-0.6338,-0.6338,-0.6285,-0.6491,-0.659,-0.6614,-0.6614,-0.6536,-0.6427,-0.6396,-0.6308,-0.619,-0.6034,-0.5803,-0.5559,-0.5406,-0.5169,0.0,0.0,0.0,0.0,0.0,0.0,0.0,0.0,-0.1512,-0.1299,-0.1179,-0.1137,-0.102,-0.0737,-0.0754,-0.0946,-0.0988,-0.1008,-0.0839,-0.0095,0.0,0.0,0.0,0.0,0.0,0.0,0.0202,0.0706,0.1508,0.2611,0.3307,0.3692,0.3891,0.4299,0.482,0.3311,0.2715,0.323,0.2019,0.101,0.0303,0.0101,0.0,0.0,0.0,0.0,0.0,0.0,0.0,0.0,0.0,0.0,0.0,0.0,0.0,0.0,0.0,0.0,0.0,0.0,0.0,0.0,0.0,0.0,0.0,0.0,0.0,-0.2633,-0.2199,-0.1696,-0.1336,-0.1027,-0.0928,-0.0836,-0.0914,-0.0912,-0.0979,-0.1065,-0.1127,-0.1188,-0.1249,-0.1334,-0.1415,-0.165,-0.2041,-0.2484,-0.3037,-0.3845,-0.4527,-0.5006,-0.5359,-0.5639,-0.5786,-0.5956,-0.603,-0.604,-0.6196,-0.6338,-0.6338,-0.6338,-0.6338,-0.6251,-0.6146,-0.619,-0.6312,-0.6312,-0.6298,-0.6264,-0.6125,-0.6067,-0.6027,-0.5874,-0.5718,-0.5559,-0.5406,-0.524,-0.5044,-0.4925,-0.4518,-0.3978,-0.3147,-0.277,-0.2357,0.0,-0.1474,-0.1476,-0.1246,-0.1212,-0.1259,-0.1205,-0.0606,-0.0088,-0.0183,-0.0185,-0.0093,-0.0,0.0,0.0,0.0,0.0,0.0,0.0,0.09,0.1405,0.1381,0.2462,0.3028,0.2878,0.3647,0.3773,0.295,0.2754,0.2877,0.323,0.2725,0.2119,0.1412,0.0504,0.0,0.0,0.0,0.0,0.0,0.0,0.0,0.0,0.0,0.0,0.0,0.0,0.0,0.0,0.0,0.0,0.0,0.0,0.0,0.0,0.0,0.0,0.0,0.0,0.0,-0.2474,-0.1951,-0.1527,-0.116,-0.0908,-0.0857,-0.0819,-0.0902,-0.0907,-0.0913,-0.1046,-0.1123,-0.1185,-0.1229,-0.1248,-0.1415,-0.1572,-0.1728,-0.2187,-0.286,-0.3347,-0.3977,-0.4675,-0.5119,-0.5447,-0.5669,-0.5889,-0.603,-0.604,-0.6196,-0.6338,-0.6338,-0.6338,-0.6207,-0.6118,-0.6054,-0.5908,-0.582,-0.584,-0.5871,0.0,-0.5691,-0.564,-0.5644,-0.5671,-0.5515,-0.5345,-0.546,-0.5321,-0.5024,-0.4786,-0.4274,-0.3626,-0.2966,-0.2509,-0.2082,-0.1618,-0.1446,-0.142,-0.128,-0.1304,-0.1164,-0.0595,-0.0259,0.0,0.0,0.0,0.0,0.0,0.0,0.0,0.0,0.0,0.0,0.0,0.0875,0.1559,0.1836,0.2415,0.2886,0.3241,0.3244,0.3161,0.2896,0.2316,0.2239,0.2879,0.2779,0.2595,0.2522,0.1412,0.0605,0.0,0.0,0.0,0.0,0.0,0.0,0.0,0.0,0.0,0.0,0.0,0.0,0.0,0.0,0.0,0.0,0.0,0.0,0.0,0.0,0.0,0.0,0.0,0.0,0.0,0.0,-0.1345,-0.1076,-0.0783,-0.0783,-0.0798,-0.0889,-0.0887,-0.0951,-0.0964,-0.1102,-0.1163,-0.121,-0.1232,-0.1327,-0.1492,-0.1572,-0.1886,-0.2434,-0.2851,-0.3433,-0.4192,-0.4861,-0.5267,-0.5571,-0.5897,-0.6095,-0.6101,-0.6213,-0.6338,-0.6338,-0.6338,-0.6169,-0.602,-0.5939,-0.5681,-0.5442,-0.5488,-0.5447,-0.5332,-0.5264,-0.5213,-0.5203,-0.5359,-0.5254,-0.5118,-0.5338,-0.5209,-0.4916,-0.4631,-0.4013,-0.3327,-0.2783,-0.2223,-0.1838,-0.1607,-0.1326,-0.1117,-0.1298,-0.1145,-0.0743,-0.0084,0.0,0.0,0.0,0.0,0.0,0.0,0.0,0.0,0.0,0.0,0.0,0.0,0.0756,0.1428,0.1893,0.2271,0.2549,0.3096,0.2533,0.2353,0.2651,0.2177,0.2297,0.3138,0.3138,0.3268,0.343,0.2521,0.1413,0.0202,0.0101,0.0,0.0,0.0,0.0,0.0,0.0,0.0,0.0,0.0,0.0,0.0,0.0,0.0,0.0,0.0,0.0,0.0,0.0,0.0,0.0,0.0,0.0,0.0,0.0,-0.1213,-0.099,-0.0722,-0.0722,-0.0745,-0.0803,-0.0837,-0.0906,-0.1026,-0.1061,-0.1118,-0.1208,-0.1213,-0.1227,-0.1335,-0.1493,-0.165,-0.165,-0.2431,-0.3056,-0.3443,-0.4528,-0.5229,-0.5625,-0.6096,-0.6254,-0.6254,-0.6257,-0.6338,-0.6338,-0.6338,-0.6169,-0.5996,-0.5711,-0.5501,-0.5428,-0.5432,-0.5087,-0.4741,-0.4884,-0.4833,-0.4738,-0.4891,-0.4935,-0.4928,-0.4938,-0.4784,-0.4616,-0.4466,-0.3911,-0.3214,-0.2549,-0.2156,-0.1805,-0.1413,-0.0959,-0.0732,-0.1221,-0.0663,-0.0,-0.0,0.0,0.0,0.0,0.0,0.0,0.0,0.0,0.0,0.0,0.0,0.0,0.0,0.0461,0.0946,0.1391,0.1668,0.1837,0.189,0.1618,0.1452,0.1481,0.2409,0.3495,0.4608,0.4413,0.4157,0.3932,0.343,0.2322,0.0808,0.0202,0.0,0.0,0.0,0.0,0.0,0.0,0.0,0.0,0.0,0.0,0.0,0.0,0.0,0.0084,0.0,0.0,0.0,0.0,0.0,0.0,0.0,0.0,0.0,0.0,0.0,0.0,0.0,0.0,0.0,0.0,-0.0876,-0.0933,-0.0939,-0.1027,-0.1089,-0.112,-0.116,-0.1186,-0.1197,-0.1293,-0.1381,-0.1534,-0.2102,-0.2666,-0.321,-0.4148,-0.4851,-0.5401,-0.5867,-0.6103,-0.6338,-0.6338,-0.6203,-0.6108,-0.6108,-0.5898,-0.5576,-0.5477,-0.5223,-0.4904,0.0,-0.4725,-0.4518,-0.4372,-0.4287,-0.4273,-0.4371,-0.4418,-0.4475,-0.483,-0.4771,-0.4552,-0.4404,-0.3916,-0.3293,-0.2931,-0.2209,-0.1611,-0.1304,-0.0686,-0.0227,-0.0379,-0.0229,0.0,0.0,0.0,0.0,0.0,0.0,0.0,0.0,0.0,0.0,0.0,0.0,0.0,0.0,0.0,0.0,0.1359,0.1451,0.1808,0.2515,0.2243,0.2161,0.2359,0.3174,0.3767,0.4336,0.4298,0.4272,0.4457,0.3209,0.1817,0.0303,0.01,0.0,0.0,0.0,0.0,0.0,0.0,0.0,0.0,0.0,0.0,0.0,0.0,0.0,0.0084,0.0,0.0,0.0,0.0,0.0,0.0,0.0,0.0,0.0,0.0,0.0,0.0,0.0,0.0,0.0,0.0,0.0,-0.0895,-0.0894,-0.0969,-0.1027,-0.1059,-0.1098,-0.1124,-0.1134,-0.1153,-0.1241,-0.1327,-0.1722,-0.2207,-0.2784,-0.371,-0.4503,-0.5087,-0.5631,-0.6022,-0.6257,-0.6203,-0.6088,-0.5942,-0.5891,-0.5633,-0.5274,-0.5223,-0.4989,0.0,-0.446,-0.4385,-0.4358,-0.4165,-0.4016,-0.4056,-0.426,-0.4308,-0.4359,-0.4697,-0.4681,-0.4558,-0.4469,-0.4018,-0.3586,-0.3306,-0.263,-0.1942,-0.1568,-0.0952,-0.0359,-0.0072,0.0,0.0,0.0,0.0,0.0,0.0,0.0,0.0,0.0,0.0,0.0,0.0,0.0,0.0,0.0,0.0,0.0,0.0896,0.1166,0.1615,0.2513,0.2424,0.2513,0.2962,0.3587,0.4072,0.4524,0.4522,0.4632,0.4559,0.3008,0.1609,0.03,0.0099,0.0,0.0,0.0,0.0,0.0,0.0,0.0,0.0,0.0,0.0,0.0,0.0,0.0,0.0083,0.0,0.0,0.0,0.0,0.0,0.0,0.0,0.0,0.0,0.0,0.0,0.0,0.0,0.0,0.0,0.0,0.0,0.0,-0.0885,-0.0895,-0.0936,-0.1023,-0.103,-0.1044,-0.1071,-0.1073,-0.1087,-0.1117,-0.1327,-0.1651,-0.2183,-0.3161,-0.4042,-0.4683,-0.5532,-0.5999,-0.6227,-0.6071,-0.5918,-0.5766,-0.5623,-0.5382,-0.5094,-0.4958,-0.4813,-0.464,-0.4298,-0.4197,-0.4194,-0.4187,-0.4093,-0.4083,-0.4382,-0.4455,-0.4422,-0.4581,-0.4559,-0.4481,-0.4594,-0.4295,-0.3953,-0.3678,-0.3185,-0.2614,-0.2029,-0.1564,-0.1046,-0.0209,-0.0,0.0,0.0,0.0,0.0,0.0,0.0,0.0,0.0,0.0,0.0,0.0,0.0,0.0,0.0,0.0,0.0,0.009,0.0,0.1256,0.1885,0.2154,0.2511,0.3227,0.3671,0.4336,0.516,0.5272,0.4949,0.4331,0.292,0.1796,0.0784,0.0294,0.0,0.0,0.0,0.0,0.0,0.0,0.0,0.0,0.0,0.0,0.0,0.0,0.0,0.0162,0.0,0.0,0.0,0.0,0.0,0.0,0.0,0.0,0.0,0.0,0.0,0.0,0.0,0.0,0.0,0.0,0.0,0.0,-0.0748,-0.0861,-0.0908,-0.0931,-0.0975,-0.1003,-0.101,-0.1033,-0.1048,-0.1056,-0.1279,-0.1591,-0.2075,-0.2787,-0.3619,-0.452,-0.5041,-0.5482,-0.5908,-0.5766,-0.5613,-0.546,-0.5308,-0.507,-0.4799,-0.4762,-0.4653,-0.4497,-0.4261,-0.4197,-0.4177,-0.4066,-0.4025,-0.4026,-0.4307,-0.425,-0.4109,-0.4432,-0.4309,-0.4094,-0.4259,-0.4061,-0.3807,-0.3678,-0.3216,-0.2673,-0.2207,-0.2017,-0.1638,-0.0577,-0.019,0.0,0.0,0.0,0.0,0.0,0.0,0.0,0.0,0.0,0.0,0.0,0.0,0.0,0.0,0.0,0.0,0.0,0.0897,0.1166,0.2064,0.2511,0.3045,0.3671,0.421,0.4759,0.5325,0.533,0.501,0.4345,0.3657,0.2661,0.1371,0.0381,0.0,0.0,0.0,0.0,0.0,0.0,0.0,0.0,0.0,0.0,0.0,0.0,0.0415,0.1055,0.0,0.0,0.0,0.0,0.0,0.0,0.0,0.0,0.0,0.0,0.0,0.0,0.0,0.0,0.0,0.0,0.0,0.0,0.0,-0.0478,-0.0663,-0.0897,-0.093,-0.0948,-0.0948,-0.0952,-0.0967,-0.0932,-0.1121,-0.1411,-0.1826,-0.243,-0.3148,-0.4,-0.4566,-0.5054,-0.5458,-0.5383,-0.5301,0.0,0.0,-0.4799,-0.4589,-0.4589,-0.4594,-0.4508,-0.4372,-0.4385,-0.445,-0.449,-0.4452,-0.4387,-0.4479,-0.4278,-0.4046,-0.4177,-0.3958,-0.3637,-0.3756,-0.3605,-0.3423,-0.3287,-0.2954,-0.2557,-0.2254,-0.2154,-0.1877,-0.0952,-0.0352,0.0,0.0,0.0,0.0,0.0,0.0,0.0,0.0,0.0,0.0,0.0,0.0,0.0,0.0,0.0359,0.0987,0.0,0.1436,0.1436,0.2424,0.2869,0.3405,0.4208,0.4656,0.5037,0.5448,0.5293,0.4933,0.4454,0.3681,0.299,0.2198,0.0934,0.0184,0.0,0.0,0.0,0.0,0.0,0.0,0.0,0.0,0.0,0.0086,0.0418,0.1309,0.2323,0.0,0.0,0.0,0.0,0.0,0.0,0.0,0.0,0.0,0.0,0.0,0.0,0.0,0.0,0.0,0.0,0.0,0.0,0.0,0.0,-0.027,-0.0723,-0.0783,-0.0842,-0.0898,-0.0926,-0.0884,-0.0878,-0.0911,-0.1115,-0.1529,-0.2099,-0.2711,-0.3449,-0.4177,-0.4704,-0.5022,-0.5008,-0.5003,-0.4874,-0.4721,-0.4579,-0.4519,0.0,-0.4519,-0.4519,-0.4519,-0.4572,-0.4762,-0.4974,-0.4957,-0.4745,-0.47,-0.4346,-0.3942,-0.3813,-0.3503,-0.3231,-0.316,-0.299,-0.2822,-0.2821,-0.2622,-0.232,-0.2117,-0.2101,-0.1908,-0.1228,-0.0488,0.0,0.0,0.0,0.0,0.0,0.0,0.0,0.0,0.0,0.0,0.0,0.0,0.009,0.018,0.1077,0.1974,0.2784,0.2154,0.2064,0.2873,0.3138,0.3764,0.475,0.5013,0.5235,0.5611,0.5254,0.4937,0.4555,0.351,0.3012,0.3057,0.1476,0.0457,0.0,0.0,0.0,0.0,0.0,0.0,0.0,0.0176,0.0258,0.042,0.1153,0.2333,0.3544,0.0,0.0,0.0,0.0,0.0,0.0,0.0,0.0,0.0,0.0,0.0,0.0,0.0,0.0,0.0,0.0,0.0,0.0,0.0,0.0,0.0,0.0215,-0.0276,-0.0617,-0.0898,-0.0892,-0.0895,-0.0905,-0.09,-0.1033,-0.1258,-0.1673,-0.2185,-0.2937,-0.3559,-0.4117,-0.4606,-0.471,-0.4752,-0.4718,-0.4565,-0.4539,-0.4519,-0.4519,0.0,0.0,-0.4519,-0.4643,-0.4847,-0.4892,-0.4767,-0.4564,-0.4591,-0.4032,-0.3342,-0.3491,-0.3231,-0.2795,-0.2633,-0.2589,-0.2459,-0.247,-0.2356,-0.2242,-0.2125,-0.2125,-0.195,-0.1081,-0.0419,0.0,0.0,0.0,0.0,0.0,0.0,0.0,0.0,0.0,0.0,0.0,0.0,0.0269,0.1077,0.2064,0.0,0.0,0.3051,0.3318,0.3229,0.3583,0.4208,0.5282,0.5463,0.5563,0.5402,0.5218,0.4903,0.4459,0.3438,0.3064,0.3056,0.1455,0.045,0.0,0.0,0.0,0.0,0.0,0.0,0.009,0.0894,0.157,0.2022,0.1843,0.2198,0.2826,0.0,0.0,0.0,0.0,0.0,0.0,0.0,0.0,0.0,0.0,0.0,0.0,0.0,0.0,0.0,0.0,0.0,0.0,0.0,0.0,0.0,0.0547,0.0164,-0.022,-0.0617,-0.0827,-0.0882,-0.0898,0.0,-0.1001,-0.1149,-0.1493,-0.1908,-0.2404,-0.2986,-0.3452,-0.3801,-0.4086,-0.4289,-0.4342,-0.4327,-0.4408,-0.4519,-0.4519,0.0,0.0,-0.4519,-0.4606,-0.47,-0.4661,-0.4333,-0.3926,-0.4146,-0.3711,-0.3149,-0.3004,-0.2497,-0.1962,-0.1862,-0.1691,-0.1443,-0.1388,-0.1383,-0.1313,-0.1273,-0.1414,-0.1422,-0.0965,-0.0398,0.0,0.0,0.0,0.0,0.0,0.0,0.0,0.0,0.0,0.0,0.0,0.0449,0.1077,0.2064,0.2424,0.2693,0.2871,0.3496,0.3764,0.3583,0.4297,0.4924,0.5371,0.5555,0.5552,0.5191,0.506,0.4725,0.4095,0.3458,0.3002,0.273,0.1441,0.0718,0.0359,0.0359,0.0359,0.0359,0.0359,0.0539,0.0807,0.1241,0.1918,0.2653,0.245,0.2904,0.3664,0.0,0.0,0.0,0.0,0.0,0.0,0.0,0.0,0.0,0.0,0.0,0.0,0.0,0.0,0.0,0.0,0.0,0.0,0.0,0.0,0.0,0.0,0.0601,0.0218,-0.0224,0.0,0.0,-0.0898,-0.0873,0.0,0.0,0.0,0.0,0.0,-0.2573,-0.2907,-0.3021,-0.3519,-0.3799,0.0,0.0,-0.4265,-0.4455,0.0,0.0,0.0,0.0,-0.4445,-0.4413,-0.4342,-0.3846,-0.3319,-0.3401,-0.3218,-0.285,-0.2372,-0.1801,-0.128,-0.1101,-0.0729,-0.0433,-0.0413,-0.0389,-0.0367,-0.0415,-0.0545,-0.0699,-0.0723,-0.0332,0.0,0.0,0.0,0.0,0.0,0.0,0.0,0.0,0.0,0.0087,0.0267,0.1343,0.0,0.2784,0.2784,0.0,0.3405,0.3941,0.4206,0.4206,0.5013,0.546,0.5463,0.5644,0.5463,0.5099,0.5099,0.4746,0.4036,0.3585,0.3047,0.2597,0.1792,0.1345,0.1165,0.1165,0.1165,0.1165,0.1165,0.1345,0.1701,0.176,0.2356,0.3125,0.3069,0.3632,0.4543,0.0,0.0,0.0,0.0,0.0,0.0,0.0,0.0,0.0,0.0,0.0,0.0,0.0,0.0,0.0,0.0,0.0,0.0,0.0,0.0,0.0,0.0,0.0,0.0,0.0,0.0,0.0,-0.0898,-0.0895,0.0,0.0,0.0,0.0,0.0,0.0,-0.2633,-0.2747,-0.3246,0.0,0.0,0.0,0.0,0.0,0.0,0.0,0.0,0.0,-0.4392,-0.417,-0.3943,-0.3435,-0.2793,-0.2313,-0.2157,-0.2034,-0.1563,-0.1388,-0.113,-0.0367,-0.0073,-0.0072,-0.007,-0.0066,-0.0061,-0.0059,-0.0054,-0.01,-0.0096,-0.0046,0.0,0.0,0.0,0.0,0.0,0.0,0.0,0.0,0.0,0.0333,0.113,0.0,0.0,0.2513,0.3501,0.4036,0.3849,0.4743,0.5282,0.5282,0.5371,0.5463,0.5644,0.5733,0.5552,0.5371,0.5371,0.5104,0.4661,0.4119,0.3582,0.3227,0.2868,0.2688,0.2688,0.2688,0.2688,0.0,0.2688,0.2688,0.2777,0.3041,0.3536,0.4084,0.3815,0.4018,0.4448,0.0,0.0,0.0,0.0,0.0,0.0,0.0,0.0,0.0,0.0,0.0,0.0,0.0,0.0,0.0,0.0,0.0,0.0,0.0,0.0,0.0,0.0,0.0,0.0,0.0,0.0,-0.017,-0.0636,-0.0867,0.0,0.0,0.0,0.0,0.0,0.0,-0.1964,-0.2076,-0.2519,0.0,0.0,0.0,0.0,0.0,0.0,0.0,0.0,0.0,0.0,-0.3758,-0.3416,-0.2795,-0.2148,-0.1818,-0.1549,-0.1331,-0.0953,-0.0695,-0.0426,-0.0072,0.0,0.0,0.0,0.0,0.0,0.0,0.0,0.0,0.0,0.0,0.0,0.0,0.0,0.0,0.0,0.0,0.0206,0.0723,0.1229,0.1631,0.1815,0.2805,0.0,0.0,0.0,0.43,0.4743,0.5193,0.5463,0.5552,0.5552,0.5644,0.5733,0.5733,0.5644,0.5371,0.5371,0.5193,0.4835,0.4567,0.43,0.4123,0.3673,0.3492,0.3492,0.3401,0.3312,0.0,0.3312,0.3401,0.3492,0.3582,0.4011,0.4515,0.4339,0.4664,0.5063,0.0,0.0,0.0,0.0,0.0,0.0,0.0,0.0,0.0,0.0,0.0,0.0,0.0,0.0,0.0,0.0,0.0,0.0,0.0,0.0,0.0,0.0,0.0,0.0,0.0,0.0,0.0231,-0.0418,-0.0836,-0.0956,0.0,0.0,-0.1176,-0.1139,0.0,0.0,0.0,0.0,0.0,0.0,0.0,0.0,0.0,0.0,0.0,0.0,0.0,0.0,0.0,0.0,0.0,-0.1676,-0.1469,-0.1217,-0.0913,-0.0711,-0.0333,0.0,0.0,0.0,0.0,0.0,0.0,0.0,0.0,0.0,0.0,0.0,0.0,0.0,0.0,0.0,0.0,0.0,0.0188,0.0603,0.1415,0.2101,0.2463,0.2265,0.0,0.3587,0.0,0.4285,0.4654,0.546,0.5463,0.5552,0.5733,0.5733,0.5733,0.5733,0.5733,0.5644,0.5463,0.5463,0.5371,0.5191,0.5015,0.4928,0.4926,0.4476,0.4206,0.4206,0.4115,0.4026,0.0,0.4026,0.4115,0.4206,0.4206,0.4476,0.4928,0.4928,0.5196,0.5463,0.0,0.0,0.0,0.0,0.0,0.0,0.0,0.0,0.0,0.0,0.0,0.0,0.0,0.0,0.0,0.0,0.0,0.0,0.0,0.0,0.0,0.0,0.0,0.0,0.0,0.0,0.0,-0.0309,-0.0741,-0.0988,-0.0988,-0.1112,-0.1215,-0.1178,0.0,0.0,0.0,0.0,0.0,0.0,0.0,0.0,-0.3449,0.0,0.0,0.0,0.0,0.0,0.0,0.0,0.0,0.0,0.0,-0.1066,-0.0911,-0.0911,-0.0451,0.0,0.0,0.0,0.0,0.0,0.0,0.0,0.0,0.0,0.0,0.0,0.0,0.0,0.0,0.0,0.0,0.0,0.0605,0.1326,0.2072,0.2386,0.2526,0.0,0.0,0.4348,0.3824,0.4777,0.5463,0.5644,0.5733,0.0,0.5733,0.5733,0.5733,0.5733,0.5733,0.5733,0.5733,0.5733,0.5733,0.5733,0.5463,0.5371,0.5371,0.5099,0.501,0.501,0.501,0.5008,0.0,0.5008,0.501,0.501,0.501,0.5191,0.5371,0.5371,0.5552,0.5733,0.0,0.0,0.0,0.0,0.0,0.0,0.0,0.0,0.0,0.0,0.0,0.0,0.0,0.0,0.0,0.0,0.0,0.0,0.0,0.0,0.0,0.0,0.0,0.0,0.0,0.0,0.0,0.0,-0.0764,-0.1019,-0.1019,-0.1019,-0.1065,-0.1033,-0.1071,-0.1055,0.0,0.0,0.0,0.0,0.0,-0.2462,-0.2937,0.0,0.0,0.0,0.0,0.0,0.0,0.0,0.0,0.0,0.0,0.0,0.0,-0.0886,-0.0485,0.0,0.0,0.0,0.0,0.0,0.0,0.0,0.0,0.0,0.0,0.0,0.0,0.0,0.0,0.0387,0.092,0.1411,0.1566,0.1793,0.2275,0.2921,0.0,0.3352,0.4389,0.5056,0.0,0.0,0.5644,0.5733,0.5733,0.5733,0.5733,0.5733,0.5733,0.5733,0.5733,0.5733,0.5733,0.5733,0.5733,0.5733,0.5644,0.5644,0.5644,0.5552,0.5463,0.5463,0.5463,0.5463,0.5463,0.5463,0.5463,0.5463,0.5463,0.5552,0.5644,0.5644,0.5644,0.5733,0.0,0.0,0.0,0.0,0.0,0.0,0.0,0.0,0.0,0.0,0.0,0.0,0.0,0.0,0.0,0.0,0.0,0.0,0.0,0.0,0.0,0.0,0.0,0.0,0.0,0.0,0.0,0.0,0.0,0.0,-0.1049,-0.1049,-0.1033,-0.1005,-0.0986,-0.091,0.0,0.0,0.0,0.0,-0.163,-0.1919,-0.2412,0.0,0.0,0.0,0.0,0.0,0.0,0.0,0.0,0.0,0.0,0.0,0.0,0.0,-0.0289,0.0,0.0,0.0,0.0,0.0,0.0,0.0,0.0,0.0,0.0,0.0,0.0,0.0111,0.0388,0.1043,0.1687,0.2134,0.2131,0.2242,0.2724,0.3327,0.0,0.4303,0.0,0.0,0.0,0.5644,0.5733,0.5733,0.5733,0.5733,0.5733,0.5733,0.5733,0.5733,0.5733,0.5733,0.5733,0.5733,0.5733,0.5733,0.5733,0.5733,0.5733,0.5733,0.5733,0.5733,0.5733,0.5733,0.0,0.5733,0.5733,0.5733,0.5733,0.5733,0.5733,0.5733,0.5733,0.5733,0.0,0.0,0.0,0.0,0.0,0.0,0.0,0.0,0.0,0.0,0.0,0.0,0.0,0.0,0.0,0.0,0.0,0.0,0.0,0.0,0.0,0.0,0.0,0.0,0.0,0.0,0.0,0.0,-0.0741,-0.1078,-0.1076,0.0,-0.1061,-0.1036,-0.097,-0.1018,0.0,0.0,0.0,0.0,-0.1263,-0.1547,0.0,0.0,0.0,0.0,0.0,0.0,0.0,0.0,0.0,0.0,0.0,0.0,0.0,0.0,0.0,0.0,0.0,0.0,0.0,0.0,0.0,0.0,0.0,0.0,0.0,0.0,0.0058,0.0295,0.1123,0.1761,0.2192,0.2253,0.2324,0.2666,0.3441,0.3614,0.0,0.0,0.5208,0.0,0.5633,0.5741,0.5741,0.5733,0.5741,0.5741,0.5733,0.5733,0.5733,0.5733,0.5733,0.5733,0.5733,0.5733,0.5733,0.5733,0.5733,0.5733,0.5733,0.5733,0.5733,0.0,0.5733,0.5733,0.5733,0.5733,0.5733,0.5733,0.5733,0.5733,0.5733,0.5733,0.5733,0.5733,0.0,0.0,0.0,0.0,0.0,0.0,0.0,0.0,0.0,0.0,0.0,0.0,0.0,0.0,0.0,0.0,0.0,0.0,0.0,0.0,0.0,0.0,0.0,0.0,0.0,0.0,0.0,0.0337,-0.0607,-0.1079,-0.1078,-0.1076,0.0,0.0,0.0,0.0,0.0,0.0,0.0,0.0,-0.114,-0.1277,0.0,0.0,0.0,0.0,-0.1481,-0.1377,0.0,0.0,0.0,0.0,0.0,0.0,0.0,0.0,0.0,0.0,0.0,0.0,0.0,0.0,0.0,0.0,0.0,0.0,0.0,0.0,0.0469,0.1247,0.25,0.2256,0.219,0.3051,0.3122,0.3249,0.3776,0.4349,0.0,0.5355,0.5545,0.5612,0.573,0.5812,0.5825,0.5741,0.5814,0.5825,0.5738,0.5733,0.5733,0.5733,0.5733,0.5733,0.5733,0.5733,0.5733,0.5733,0.5733,0.5733,0.5733,0.5733,0.5733,0.5733,0.5733,0.5733,0.5733,0.5733,0.5733,0.5733,0.5733,0.5733,0.5733,0.5733,0.5733,0.5733,0.0,0.0,0.0,0.0,0.0,0.0,0.0,0.0,0.0,0.0,0.0,0.0,0.0,0.0,0.0,0.0,0.0,0.0,0.0,0.0,0.0,0.0,0.0,0.0,0.0,0.0,0.0,0.0,0.0,-0.0944,0.0,0.0,0.0,0.0,0.0,0.0,0.0,0.0,0.0,-0.1076,-0.1076,0.0,0.0,0.0,0.0,0.0,-0.1249,-0.1211,0.0,-0.0965,-0.0729,-0.0449,0.0,0.0,0.0,0.0,0.0,0.0,0.0,0.0,0.0,0.0,0.0,0.0,0.0,0.0,0.0118,0.042,0.1097,0.1794,0.2453,0.2479,0.2626,0.3213,0.3511,0.3843,0.4418,0.0,0.5326,0.5531,0.5692,0.5733,0.0,0.5787,0.5801,0.5738,0.579,0.5798,0.5735,0.5733,0.5733,0.5733,0.5733,0.5733,0.5733,0.5733,0.5733,0.5733,0.5733,0.5733,0.5733,0.5733,0.5733,0.5733,0.5733,0.5733,0.5733,0.5733,0.5733,0.5733,0.5733,0.5733,0.5738,0.5793,0.5812,0.582,0.0,0.0,0.0,0.0,0.0,0.0,0.0,0.0,0.0,0.0,0.0,0.0,0.0,0.0,0.0,0.0,0.0,0.0,0.0,0.0,0.0,0.0,0.0,0.0,0.0,0.0,0.0,0.0,0.0,0.0,0.0,0.0,-0.1012,0.0,0.0,0.0,0.0,0.0,-0.1076,-0.1076,-0.1076,0.0,0.0,0.0,0.0,0.0,0.0,0.0,0.0,-0.0794,-0.0449,0.0,0.0,0.0,0.0,0.0,0.0,0.0,0.0,0.0,0.0,0.0,0.0126,0.0189,0.0188,0.0125,0.0249,0.0933,0.1651,0.2138,0.2086,0.2647,0.3163,0.3345,0.3869,0.4403,0.5098,0.5398,0.5507,0.5719,0.5733,0.0,0.5733,0.5749,0.5752,0.5735,0.5749,0.5752,0.5735,0.5733,0.5733,0.5733,0.5733,0.5733,0.5733,0.5733,0.5733,0.5733,0.5733,0.5733,0.5733,0.5733,0.5733,0.5733,0.5733,0.0,0.5733,0.5733,0.5733,0.5735,0.5754,0.576,0.5773,0.5888,0.5931,0.5947,0.0,0.0,0.0,0.0,0.0,0.0,0.0,0.0,0.0,0.0,0.0,0.0,0.0,0.0,0.0,0.0,0.0,0.0,0.0,0.0,0.0,0.0,0.0,0.0,0.0,0.0,0.0,0.0,0.0,0.0,-0.0607,-0.0607,-0.0742,-0.1079,0.0,0.0,0.0,0.0,-0.1078,-0.1078,-0.1078,0.0,0.0,0.0,0.0,0.0,0.0,0.0,0.0,-0.034,-0.0056,0.0,0.0,0.0,0.0,0.0,0.0,0.0,0.0,0.0,0.0,0.0,0.0541,0.1095,0.0937,0.0653,0.0578,0.1027,0.1479,0.2159,0.3088,0.3136,0.3365,0.4273,0.489,0.5258,0.0,0.0,0.5507,0.5719,0.0,0.5733,0.5733,0.582,0.5836,0.5741,0.5822,0.5836,0.5738,0.5733,0.5733,0.5733,0.5733,0.5733,0.5733,0.5733,0.5733,0.5733,0.5733,0.5733,0.5733,0.5733,0.5733,0.5733,0.0,0.5733,0.5733,0.5733,0.5733,0.5744,0.5839,0.5877,0.589,0.6013,0.6056,0.6075,0.0,0.0,0.0,0.0,0.0,0.0,0.0,0.0,0.0,0.0,0.0,0.0,0.0,0.0,0.0,0.0,0.0,0.0,0.0,0.0,0.0,0.0,0.0,0.0,0.0,0.0,0.0,0.0,0.0,-0.0067,-0.0202,-0.0202,-0.0404,-0.0809,0.0,0.0,0.0,0.0,-0.0809,-0.0809,0.0,0.0,0.0,0.0,0.0,0.0,0.0,0.0,0.0,0.0,0.0,0.0,0.0,0.0,0.0,0.0,0.0,0.0,0.0,0.0,0.0,0.0,0.0639,0.1428,0.1765,0.1534,0.1313,0.1797,0.2141,0.2572,0.3278,0.3589,0.4031,0.4916,0.5269,0.5485,0.5456,0.5521,0.567,0.0,0.0,0.5733,0.5733,0.5779,0.579,0.5738,0.5782,0.5787,0.5735,0.5733,0.5733,0.5733,0.5733,0.5733,0.5733,0.5733,0.5733,0.5733,0.5733,0.5733,0.5733,0.5733,0.5733,0.5733,0.5733,0.5733,0.5733,0.5733,0.5771,0.5831,0.5882,0.5945,0.6015,0.614,0.6222,0.6285,0.0,0.0,0.0,0.0,0.0,0.0,0.0,0.0,0.0,0.0,0.0,0.0,0.0,0.0,0.0,0.0,0.0,0.0,0.0,0.0,0.0,0.0,0.0,0.0,0.0,0.0,0.2284,0.1614,0.0605,0.0067,0.0,0.0,-0.0135,-0.0404,0.0,0.0,0.0,0.0,-0.0404,-0.0404,0.0,0.0,0.0,0.0,0.0,0.0,0.0,0.0,0.0,0.0,0.0,0.0,0.0,0.0,0.0,0.0,0.0,0.0,0.0,0.0,0.0,0.0,0.0588,0.141,0.2376,0.2228,0.2001,0.2505,0.2795,0.3085,0.3453,0.4076,0.4686,0.5293,0.5515,0.5505,0.5505,0.5673,0.5733,0.5733,0.5733,0.5733,0.5733,0.5733,0.5733,0.5733,0.5733,0.5733,0.5733,0.5733,0.5733,0.5733,0.5733,0.5733,0.5733,0.5733,0.5733,0.5733,0.5733,0.5733,0.5733,0.5733,0.5733,0.5733,0.5733,0.5749,0.5773,0.5773,0.5841,0.5947,0.5977,0.6062,0.6179,0.6274,0.6363,0.6437,0.0,0.0,0.0,0.0,0.0,0.0,0.0,0.0,0.0,0.0,0.0,0.0,0.0,0.0,0.0,0.0,0.0,0.0,0.0,0.0,0.0,0.0,0.0,0.0,0.0,0.3159,0.2554,0.1817,0.0874,0.0336,0.0,0.0,-0.0,-0.0067,0.0,0.0,0.0,0.0,-0.0067,-0.0067,-0.0067,0.0,0.0,0.0,0.0,0.0,0.0,0.0,0.0,0.0,0.0,0.0,0.0,0.0,0.0,0.0,0.0,0.0,0.0,0.0,0.0,0.0,0.0302,0.1016,0.2421,0.2341,0.2171,0.2882,0.3242,0.3539,0.4138,0.4785,0.5388,0.5432,0.564,0.5722,0.5722,0.0,0.5733,0.5733,0.5733,0.5733,0.5733,0.5733,0.5733,0.5733,0.5733,0.5733,0.5733,0.5733,0.5733,0.5733,0.5733,0.5733,0.5733,0.5733,0.5733,0.5733,0.5733,0.5733,0.5733,0.5733,0.5733,0.5733,0.5733,0.5793,0.589,0.589,0.5961,0.6083,0.6198,0.6312,0.6412,0.642,0.6429,0.6437,0.0,0.0,0.0,0.0,0.0,0.0,0.0,0.0,0.0,0.0,0.0,0.0,0.0,0.0,0.0,0.0,0.0,0.0,0.0,0.0,0.0,0.0,0.0,0.4167,0.383,0.3496,0.3025,0.2487,0.0941,0.0135,0.0,0.0,0.0,0.0,0.0,0.0,0.0,0.0,0.0,0.0,0.0,0.0,0.0,0.0,0.0,0.0,0.0,0.0,0.0,0.0,0.0,0.0,0.0,0.0,0.0,0.0,0.0334,0.0674,0.0674,0.0481,0.0353,0.0362,0.0823,0.1393,0.2151,0.2245,0.2409,0.3311,0.3639,0.4059,0.4769,0.516,0.5434,0.5632,0.5703,0.5733,0.5733,0.5733,0.5733,0.5733,0.5733,0.5733,0.5733,0.5733,0.5733,0.5733,0.5733,0.5733,0.5733,0.5733,0.5733,0.5733,0.5733,0.5733,0.5733,0.5733,0.5733,0.5733,0.5733,0.5733,0.5733,0.5733,0.5733,0.5733,0.5733,0.5798,0.5904,0.5904,0.6021,0.6211,0.6328,0.6399,0.6437,0.6437,0.6437,0.6437,0.0,0.0,0.0,0.0,0.0,0.0,0.0,0.0,0.0,0.0,0.0,0.0,0.0,0.0,0.0,0.0,0.0,0.0,0.0,0.0,0.0,0.0,0.0,0.4233,0.4097,0.383,0.3429,0.2956,0.1209,0.0202,0.0,0.0,0.0,0.0,0.0,0.0,0.0,0.0,0.0,0.0,0.0,0.0,0.0,0.0,0.0,0.0,0.0,0.0,0.0,0.0,0.0,0.0,0.0,0.0,0.0067,0.027,0.0876,0.1418,0.1362,0.1106,0.0919,0.0951,0.1504,0.2017,0.2359,0.2546,0.2976,0.3888,0.4305,0.4653,0.5183,0.5395,0.5494,0.0,0.5733,0.5733,0.5733,0.5733,0.5733,0.5733,0.5733,0.5733,0.5733,0.5697,0.5676,0.5676,0.564,0.5635,0.5673,0.5676,0.5695,0.5733,0.5733,0.5733,0.5733,0.5733,0.5733,0.5733,0.5733,0.5733,0.5733,0.5733,0.5733,0.5733,0.5733,0.582,0.5961,0.5961,0.6105,0.6328,0.6404,0.6437,0.6437,0.6437,0.6437,0.6437,0.0,0.0,0.0,0.0,0.0,0.0,0.0,0.0,0.0,0.0,0.0,0.0,0.0,0.0,0.0,0.0,0.0,0.0,0.0,0.0,0.0,0.0,0.0,0.43,0.43,0.4097,0.3692,0.3023,0.1747,0.074,0.0,0.0,0.0,0.0,0.0,0.0,0.0,0.0,0.0,0.0,0.0,0.0,0.0,0.0,0.0,0.0,0.0,0.0,0.0,0.0,0.0,0.0,0.0,0.0,0.0135,0.0877,0.1617,0.2168,0.188,0.1824,0.1777,0.1797,0.2238,0.2783,0.3167,0.3365,0.3722,0.4669,0.5117,0.5409,0.5529,0.5464,0.5505,0.5714,0.5733,0.5733,0.5733,0.5733,0.5733,0.5733,0.5733,0.573,0.573,0.5619,0.5462,0.5462,0.5436,0.5423,0.5456,0.5462,0.5518,0.5727,0.573,0.5733,0.5733,0.5733,0.5733,0.5733,0.5733,0.5733,0.5733,0.5733,0.5733,0.5733,0.5733,0.5866,0.6086,0.6089,0.6225,0.6437,0.6437,0.6437,0.6437,0.6437,0.6437,0.6437,0.0,0.0,0.0,0.0,0.0,0.0,0.0,0.0,0.0,0.0,0.0,0.0,0.0,0.0,0.0,0.0,0.0,0.0,0.0,0.0,0.3939,0.0,0.0,0.0,0.0,0.0,0.3491,0.282,0.1882,0.1076,0.0,0.0,0.0,0.0,0.0,0.0,0.0,0.0,0.0,0.0,0.0,0.0,0.0,0.0,0.0,0.0,0.0,0.0,0.0,0.0,0.0,0.0,0.0269,0.0539,0.0812,0.1172,0.1663,0.2091,0.222,0.2338,0.2387,0.2388,0.2765,0.3268,0.3732,0.3824,0.4068,0.5036,0.5321,0.5534,0.5657,0.5521,0.5505,0.5714,0.5733,0.5733,0.5733,0.5733,0.57,0.5529,0.5518,0.557,0.5485,0.5445,0.5423,0.5423,0.539,0.5385,0.542,0.5423,0.5439,0.5474,0.5561,0.5518,0.5518,0.5689,0.5733,0.5733,0.5733,0.5733,0.5733,0.5733,0.5733,0.5733,0.5733,0.5866,0.6097,0.6263,0.6374,0.6437,0.6437,0.6437,0.6437,0.6437,0.6437,0.6437,0.0,0.0,0.0,0.0,0.0,0.0,0.0,0.0,0.0,0.0,0.3642,0.3743,0.0,0.0,0.0,0.0,0.0,0.0,0.0,0.0,0.3841,0.4037,0.4091,0.4175,0.4298,0.4028,0.3625,0.3023,0.0,0.0,0.0,0.0,0.0,0.0,0.0,0.0,0.0,0.0,0.0,0.0,0.0,0.0,0.0,0.0,0.0,0.0,0.0,0.0,0.0,0.0,0.0,0.0,0.074,0.1018,0.1443,0.1605,0.1977,0.2363,0.2648,0.2863,0.3009,0.3084,0.3504,0.397,0.4517,0.4554,0.4725,0.5369,0.5585,0.5646,0.5719,0.5673,0.0,0.5722,0.5733,0.5733,0.5733,0.5733,0.5689,0.5478,0.5464,0.5502,0.5379,0.5325,0.5295,0.5295,0.5254,0.5249,0.5295,0.5295,0.532,0.5368,0.5439,0.5502,0.5464,0.5624,0.5687,0.5733,0.5733,0.5733,0.5733,0.5733,0.5733,0.5738,0.5833,0.598,0.6173,0.6358,0.6437,0.6437,0.6437,0.6437,0.6437,0.6437,0.6437,0.6437,0.0,0.0,0.0,0.0,0.0,0.0,0.0,0.0,0.0,0.0,0.3585,0.3585,0.0,0.0,0.0,0.0,0.0,0.0,0.0,0.0,0.3797,0.3867,0.4064,0.4186,0.4298,0.4097,0.383,0.3565,0.2691,0.0,0.0,0.0,0.0067,0.0067,0.0,0.0,0.0,0.0,0.0,0.0064,0.0065,0.0066,0.0134,0.0633,0.0,0.0,0.0,0.0,0.0,0.0,0.0,0.0,0.1277,0.1509,0.1964,0.2251,0.2581,0.2941,0.3176,0.3409,0.3649,0.3901,0.4311,0.4826,0.5364,0.5559,0.5603,0.5668,0.5733,0.5733,0.5733,0.5733,0.5733,0.5733,0.5733,0.573,0.5719,0.5716,0.5667,0.5448,0.5432,0.5469,0.5349,0.5238,0.517,0.517,0.5075,0.5061,0.5165,0.517,0.5222,0.5333,0.5347,0.5412,0.5532,0.5459,0.5526,0.5733,0.5733,0.5733,0.5733,0.5733,0.5738,0.5763,0.5988,0.6154,0.6276,0.6391,0.6437,0.6437,0.6437,0.6437,0.6437,0.6437,0.6437,0.6437,0.0,0.0,0.0,0.0,0.0,0.0,0.0,0.0,0.0,0.0,0.0,0.0,0.0,0.0,0.0,0.0,0.0,0.0,0.0,0.0,0.3716,0.3864,0.4145,0.4273,0.43,0.4097,0.3961,0.3894,0.3293,0.0,0.0,0.0,0.0,0.0403,0.0,0.0,0.0,0.0,0.0255,0.0688,0.0832,0.0648,0.0391,0.0514,0.0899,0.0,0.0,0.0,0.0,0.0,0.0,0.0,0.2018,0.2196,0.2536,0.2802,0.3015,0.3404,0.3872,0.4227,0.4495,0.4683,0.5039,0.5476,0.5769,0.5794,0.578,0.5757,0.5733,0.5733,0.5733,0.5733,0.5733,0.5733,0.5733,0.57,0.5518,0.5502,0.551,0.529,0.5265,0.5219,0.5105,0.5069,0.5053,0.5053,0.5031,0.5029,0.5053,0.5053,0.5064,0.5091,0.5178,0.5284,0.5407,0.5502,0.5526,0.5733,0.5733,0.5733,0.5733,0.5733,0.5782,0.5874,0.6024,0.6154,0.6276,0.6391,0.6437,0.6437,0.6437,0.6437,0.6437,0.6437,0.6437,0.6437,0.0,0.0,0.0,0.0,0.0,0.0,0.0,0.0,0.0,0.0,0.0,0.0,0.0,0.0,0.0,0.0,0.0,0.0,0.0,0.0,0.0,0.0,0.417,0.43,0.43,0.4164,0.4097,0.4028,0.0,0.0,0.0,0.0,0.0,0.1008,0.0,0.0597,0.0258,0.0258,0.0448,0.0758,0.1156,0.1303,0.1315,0.1298,0.1562,0.1974,0.1816,0.0,0.0,0.0,0.0,0.0,0.0,0.0,0.3168,0.3325,0.3483,0.3743,0.4405,0.4702,0.4992,0.5247,0.5505,0.5707,0.5833,0.5863,0.5871,0.5757,0.5733,0.5733,0.5733,0.5733,0.5733,0.5733,0.5684,0.5624,0.5472,0.5499,0.5396,0.5208,0.5186,0.514,0.5029,0.5067,0.5097,0.5097,0.5151,0.5159,0.5102,0.5097,0.5097,0.5097,0.5156,0.5273,0.5455,0.5518,0.5526,0.5733,0.5733,0.5763,0.5814,0.5814,0.5912,0.6081,0.6146,0.6241,0.6352,0.6412,0.6437,0.6437,0.6437,0.6437,0.6437,0.6437,0.6437,0.6437,0.0,0.0,0.0,0.0,0.0,0.0,0.0,0.0,0.0,0.0,0.0,0.0,0.0,0.0,0.0,0.0,0.0,0.0,0.0,0.0,0.0,0.0,0.4234,0.4364,0.4364,0.4364,0.4231,0.4028,0.0,0.0,0.0,0.0,0.0,0.1816,0.0,0.1259,0.0645,0.0646,0.0644,0.0705,0.1289,0.1834,0.22,0.2158,0.2306,0.2551,0.2358,0.2438,0.2684,0.282,0.0,0.0,0.0,0.0,0.379,0.3949,0.3988,0.4201,0.4811,0.5061,0.5312,0.5617,0.5817,0.5852,0.5779,0.582,0.5847,0.5754,0.5733,0.5733,0.5733,0.5733,0.5733,0.5733,0.5648,0.5489,0.5467,0.5445,0.5325,0.52,0.517,0.5121,0.5026,0.5121,0.5186,0.5186,0.5301,0.5325,0.5222,0.5216,0.5216,0.5216,0.5216,0.5325,0.5462,0.5464,0.5526,0.5733,0.5754,0.5822,0.5934,0.5956,0.6078,0.6268,0.6268,0.6333,0.6437,0.6437,0.6437,0.6437,0.6437,0.6437,0.6437,0.6437,0.6437,0.6437,0.0,0.0,0.0,0.0,0.0,0.0,0.0,0.0,0.0,0.0,0.3585,0.3585,0.0,0.0,0.0,0.0,0.0,0.0,0.3585,0.0,0.0,0.4122,0.4426,0.4558,0.4558,0.4558,0.4428,0.4233,0.0,0.0,0.0,0.0,0.0,0.2552,0.0,0.0,0.1289,0.1098,0.1146,0.1308,0.166,0.1875,0.2145,0.232,0.0,0.2956,0.2878,0.3213,0.3623,0.3623,0.3889,0.0,0.0,0.0,0.4333,0.449,0.4656,0.4811,0.5286,0.5518,0.5628,0.5847,0.5817,0.5776,0.586,0.5814,0.5752,0.5735,0.5733,0.5733,0.5733,0.5733,0.5733,0.5733,0.5719,0.567,0.548,0.5445,0.5325,0.52,0.5099,0.5034,0.5018,0.5121,0.5186,0.5186,0.5301,0.5363,0.5344,0.5344,0.5344,0.5344,0.5344,0.5412,0.5462,0.5464,0.5526,0.5735,0.5833,0.5945,0.6064,0.617,0.6238,0.6268,0.6268,0.6333,0.6437,0.6437,0.6437,0.6437,0.6437,0.6437,0.6437,0.6437,0.6437,0.6437,0.0,0.0,0.0,0.0,0.0,0.0,0.0,0.0,0.0,0.0,0.0,0.3585,0.0,0.0,0.0,0.3585,0.3585,0.3638,0.3691,0.3924,0.4119,0.4302,0.4555,0.4694,0.4694,0.4694,0.4628,0.0,0.0,0.0,0.0,0.4281,0.3834,0.0,0.0,0.0,0.0,0.2046,0.1967,0.1883,0.2168,0.2441,0.2644,0.0,0.0,0.0,0.0,0.0,0.4225,0.4225,0.4489,0.4755,0.4625,0.0,0.0,0.0,0.4953,0.511,0.5514,0.5712,0.5832,0.5779,0.5771,0.5746,0.5798,0.5768,0.5733,0.5733,0.5733,0.5733,0.5733,0.5733,0.5733,0.5733,0.5676,0.5526,0.5472,0.5445,0.5349,0.5295,0.5246,0.5214,0.5214,0.532,0.539,0.539,0.5504,0.5542,0.5474,0.5472,0.5472,0.5472,0.5472,0.5529,0.5651,0.5654,0.5681,0.5735,0.5918,0.6034,0.6092,0.6279,0.6363,0.6363,0.6363,0.6391,0.6437,0.6437,0.6437,0.6437,0.6437,0.6437,0.6437,0.6437,0.6437,0.6437,0.0,0.0,0.0,0.0,0.0,0.0,0.0,0.0,0.0,0.0,0.0,0.0,0.0,0.0,0.0,0.0,0.3585,0.3635,0.3796,0.4098,0.4302,0.4482,0.4745,0.4894,0.4894,0.4894,0.0,0.0,0.0,0.0,0.4827,0.4956,0.4662,0.0,0.3913,0.0,0.0,0.0,0.0,0.2423,0.2776,0.3107,0.0,0.0,0.0,0.0,0.0,0.0,0.0,0.0,0.4986,0.5156,0.5027,0.5027,0.0,0.0,0.0,0.5377,0.5577,0.5725,0.5789,0.5657,0.5687,0.5695,0.5727,0.5733,0.5733,0.5733,0.5733,0.5733,0.5733,0.5733,0.5733,0.5733,0.5657,0.551,0.551,0.5491,0.5415,0.5415,0.5388,0.5368,0.5368,0.548,0.5464,0.5464,0.5665,0.5695,0.5515,0.551,0.551,0.551,0.551,0.564,0.5733,0.5733,0.5746,0.5779,0.5988,0.6102,0.614,0.6344,0.6437,0.6437,0.6437,0.6437,0.6437,0.6437,0.6437,0.6437,0.6437,0.6437,0.6437,0.6437,0.6437,0.6437,0.0,0.0,0.0,0.0,0.0,0.0,0.0,0.0,0.0,0.0,0.0,0.0,0.0,0.3585,0.3585,0.3585,0.3585,0.3635,0.3796,0.4151,0.4482,0.4668,0.4939,0.0,0.509,0.509,0.0,0.0,0.0,0.0,0.4969,0.5095,0.5086,0.4896,0.4399,0.3785,0.3165,0.0,0.0,0.0,0.0,0.0,0.0,0.0,0.0,0.0,0.0,0.0,0.0,0.0,0.0,0.0,0.0,0.5362,0.5362,0.0,0.0,0.0,0.5378,0.5526,0.5664,0.5532,0.5475,0.5502,0.5706,0.5733,0.5733,0.5733,0.5733,0.5733,0.5733,0.5733,0.5733,0.5733,0.5727,0.5725,0.5725,0.5619,0.5454,0.5454,0.5439,0.5368,0.5368,0.548,0.5464,0.5464,0.5665,0.573,0.5725,0.5725,0.5725,0.5725,0.5725,0.5727,0.5733,0.5733,0.5787,0.5896,0.6024,0.6146,0.6263,0.6382,0.6437,0.6437,0.6437,0.6437,0.6437,0.6437,0.6437,0.6437,0.6437,0.6437,0.6437,0.6437,0.6437,0.6437,0.0,0.0,0.0,0.0,0.0,0.0,0.0,0.0,0.0,0.0,0.0,0.0,0.0,0.374,0.3724,0.3803,0.3929,0.4107,0.434,0.4574,0.4806,0.4928,0.5185,0.5292,0.5292,0.5292,0.0,0.0,0.0,0.5171,0.5171,0.5309,0.5303,0.5171,0.4891,0.4519,0.4209,0.4178,0.0,0.0,0.0,0.0,0.0,0.0,0.0,0.0,0.0,0.0,0.0,0.0,0.0,0.0,0.0,0.0,0.5449,0.5481,0.5617,0.5718,0.5573,0.5607,0.5691,0.5488,0.5434,0.5466,0.5589,0.5529,0.5638,0.5716,0.5733,0.5733,0.5733,0.5733,0.5733,0.5733,0.5733,0.5733,0.5733,0.5695,0.5667,0.5667,0.5629,0.5602,0.5602,0.5643,0.5667,0.5667,0.5708,0.5733,0.5733,0.5733,0.5733,0.5733,0.5733,0.5733,0.5733,0.5806,0.586,0.5907,0.6108,0.6227,0.6274,0.6385,0.6437,0.6437,0.6437,0.6437,0.6437,0.6437,0.6437,0.6437,0.6437,0.6437,0.6437,0.6437,0.6437,0.6437,0.0,0.0,0.0,0.0,0.0,0.0,0.0,0.0,0.0,0.0,0.0,0.0,0.0,0.0,0.3906,0.3992,0.4244,0.4488,0.4668,0.4866,0.5008,0.5068,0.5277,0.5428,0.5428,0.5428,0.0,0.0,0.0,0.0,0.0,0.5405,0.5398,0.5303,0.517,0.5033,0.0,0.0,0.0,0.4885,0.0,0.0,0.5225,0.0,0.0,0.0,0.0,0.0,0.0,0.0,0.0,0.0,0.0,0.0,0.0,0.0,0.0,0.5785,0.5582,0.5665,0.5636,0.544,0.5306,0.5349,0.5513,0.5464,0.5499,0.5708,0.5733,0.5733,0.5733,0.5733,0.5733,0.5733,0.5733,0.5733,0.5733,0.5733,0.5746,0.5784,0.579,0.5806,0.5847,0.5852,0.5852,0.5852,0.5852,0.5852,0.5852,0.5852,0.5852,0.5852,0.5852,0.5852,0.5852,0.5926,0.5986,0.6029,0.6192,0.6287,0.6328,0.6401,0.6437,0.6437,0.6437,0.6437,0.6437,0.6437,0.6437,0.6437,0.6437,0.6437,0.6437,0.6437,0.6437,0.6545,0.0,0.0,0.0,0.0,0.0,0.0,0.0,0.0,0.0,0.0,0.0,0.0,0.0,0.0,0.0,0.4192,0.4497,0.4742,0.4742,0.4994,0.5138,0.5138,0.5281,0.5428,0.5428,0.5428,0.5428,0.0,0.0,0.0,0.0,0.0,0.5428,0.5428,0.5428,0.5163,0.4849,0.0,0.5148,0.5129,0.0,0.5648,0.5535,0.0,0.0,0.0,0.604,0.604,0.0,0.0,0.0,0.0,0.0,0.0,0.0,0.0,0.0,0.0,0.0,0.0,0.0,0.5234,0.5181,0.5243,0.5485,0.5456,0.5494,0.5703,0.573,0.5733,0.5733,0.5733,0.5733,0.5733,0.5733,0.5733,0.5733,0.5735,0.5779,0.589,0.5907,0.5956,0.6075,0.6086,0.6086,0.6086,0.6086,0.6086,0.6086,0.6086,0.6086,0.6086,0.6086,0.6086,0.6086,0.6089,0.6151,0.6268,0.6271,0.6331,0.6437,0.6437,0.6437,0.6437,0.6437,0.6437,0.6437,0.6437,0.6437,0.6437,0.6437,0.6437,0.6437,0.6439,0.6645,0.6965,0.0,0.0,0.0,0.0,0.0,0.0,0.0,0.0,0.0,0.0,0.0,0.0,0.0,0.0,0.0,0.4709,0.4852,0.5039,0.5172,0.5277,0.5298,0.5298,0.5338,0.5428,0.5428,0.5428,0.5428,0.5428,0.5428,0.5428,0.5428,0.5428,0.5428,0.0,0.5428,0.5362,0.5243,0.5431,0.0,0.0,0.5845,0.5996,0.0,0.0,0.0,0.0,0.0,0.6349,0.6366,0.0,0.6346,0.6088,0.0,0.0,0.0,0.0,0.0,0.0,0.5641,0.0,0.0,0.0,0.0,0.0,0.5254,0.5355,0.5455,0.5575,0.567,0.5733,0.5733,0.5733,0.5733,0.5733,0.5733,0.5733,0.5733,0.5803,0.5869,0.5899,0.5983,0.6048,0.6083,0.6086,0.6086,0.6086,0.6086,0.6086,0.6086,0.6086,0.6086,0.6086,0.6086,0.6086,0.6086,0.6173,0.6236,0.6271,0.635,0.6404,0.6437,0.6437,0.6437,0.6437,0.6437,0.6437,0.6437,0.6437,0.6437,0.6437,0.6639,0.6642,0.6751,0.7247,0.7687,0.8011,0.0,0.0,0.0,0.0,0.0,0.0,0.0,0.0,0.0,0.0,0.0,0.0,0.0,0.0,0.0,0.0,0.5202,0.5359,0.5365,0.5428,0.5428,0.5428,0.5428,0.5428,0.5428,0.5428,0.5428,0.5428,0.5428,0.5428,0.5428,0.5428,0.5428,0.5428,0.0,0.0,0.0,0.0,0.0,0.0,0.6003,0.0,0.0,0.6338,0.6338,0.0,0.0,0.0,0.6495,0.6651,0.6505,0.0,0.0,0.0,0.0,0.0,0.0,0.0,0.0,0.0,0.0,0.0,0.0,0.0,0.5399,0.5524,0.5655,0.5783,0.5821,0.5908,0.5908,0.5733,0.5733,0.5733,0.5773,0.5803,0.5803,0.586,0.5942,0.6043,0.6119,0.6179,0.6227,0.623,0.623,0.623,0.623,0.623,0.623,0.623,0.623,0.623,0.623,0.623,0.623,0.6304,0.6339,0.6339,0.6404,0.6437,0.6437,0.6437,0.6437,0.6437,0.6437,0.6437,0.6437,0.6539,0.6539,0.6639,0.6842,0.7175,0.7535,0.8225,0.8702,0.9293,0.0,0.0,0.0,0.0,0.0,0.0,0.0,0.0,0.0,0.0,0.0,0.0,0.0,0.0,0.0,0.0,0.554,0.5555,0.542,0.5463,0.0,0.0,0.0,0.5446,0.5428,0.5446,0.5446,0.5428,0.5428,0.5428,0.5428,0.5428,0.5428,0.5428,0.0,0.0,0.0,0.0,0.0,0.5817,0.5986,0.6146,0.0,0.0,0.6312,0.0,0.6471,0.6522,0.6546,0.6678,0.6539,0.0,0.0,0.0,0.0,0.0,0.6054,0.0,0.0,0.0,0.0,0.0,0.5637,0.0,0.5781,0.5912,0.6047,0.6169,0.6138,0.6151,0.6151,0.5899,0.5733,0.5733,0.5828,0.5904,0.5904,0.5926,0.6024,0.6244,0.6279,0.6325,0.6426,0.6437,0.6437,0.6437,0.6437,0.6437,0.6437,0.6437,0.6437,0.6437,0.6437,0.6437,0.6437,0.6437,0.6437,0.6437,0.6437,0.6437,0.6437,0.6437,0.6437,0.6437,0.6437,0.6437,0.6437,0.6642,0.6845,0.6842,0.7238,0.7821,0.8561,0.9184,0.9915,1.0724,0.0,0.0,0.0,0.0,0.0,0.0,0.0,0.0,0.0,0.0,0.0,0.0,0.0,0.0,0.0,0.0,0.0,0.5745,0.5718,0.0,0.0,0.0,0.0,0.5488,0.5432,0.5484,0.5484,0.5428,0.5428,0.5428,0.5428,0.5428,0.5428,0.5428,0.5428,0.0,0.0,0.0,0.0,0.5827,0.6105,0.0,0.6444,0.6569,0.6614,0.6634,0.6783,0.6841,0.6844,0.0,0.6763,0.6586,0.0,0.0,0.0,0.0,0.0,0.0,0.0,0.0,0.0,0.0,0.0,0.0,0.5671,0.5775,0.5875,0.5903,0.602,0.6192,0.6192,0.6186,0.6169,0.6083,0.6102,0.6182,0.5904,0.6072,0.6217,0.6263,0.6347,0.6412,0.6434,0.6437,0.6437,0.6437,0.6437,0.6437,0.6437,0.6437,0.6437,0.6437,0.6437,0.6437,0.6437,0.6437,0.6437,0.6437,0.6437,0.6437,0.6437,0.6437,0.6437,0.6437,0.6437,0.6437,0.6437,0.6642,0.6942,0.7238,0.8131,0.8822,0.9486,1.0852,1.1661,1.2298,0.0,0.0,0.0,0.0,0.0,0.0,0.0,0.0,0.0,0.0,0.0,0.0,0.0,0.0,0.0,0.0,0.0,0.0,0.0,0.0,0.0,0.0,0.0,0.5657,0.5583,0.5586,0.5552,0.5477,0.5466,0.5428,0.5428,0.5428,0.5428,0.5428,0.5428,0.5428,0.0,0.0,0.5735,0.5827,0.6139,0.0,0.6488,0.6644,0.6702,0.6719,0.6875,0.6973,0.7024,0.6953,0.6878,0.0,0.0,0.6424,0.6352,0.0,0.6338,0.6338,0.0,0.0,0.0,0.6099,0.0,0.0,0.0,0.6054,0.6151,0.6151,0.6242,0.6244,0.6395,0.6378,0.6268,0.6245,0.6333,0.6273,0.6177,0.6247,0.629,0.6344,0.6401,0.6437,0.6437,0.6437,0.6437,0.6437,0.6437,0.6437,0.6437,0.6437,0.6437,0.6437,0.6437,0.6437,0.6437,0.6437,0.6437,0.6437,0.6437,0.6437,0.6437,0.6437,0.6437,0.6437,0.6437,0.6437,0.6437,0.6936,0.7475,0.8039,0.884,0.9847,1.095,1.2195,1.3046,1.3688,0.3894,0.0,0.0,0.0,0.0,0.0,0.0,0.0,0.0,0.0,0.0,0.0,0.0,0.0,0.0,0.0,0.0,0.0,0.0,0.0,0.0,0.0,0.5861,0.5844,0.5844,0.5732,0.5647,0.5589,0.5467,0.5456,0.5428,0.5428,0.5446,0.5473,0.5473,0.542,0.0,0.0,0.0,0.5871,0.0,0.6369,0.6488,0.6644,0.6719,0.6763,0.6915,0.7024,0.7082,0.6966,0.0,0.6841,0.6593,0.6498,0.0,0.0,0.0,0.0,0.0,0.0,0.0,0.0,0.0,0.6338,0.0,0.0,0.0,0.643,0.6413,0.6405,0.6603,0.6497,0.6396,0.6502,0.6453,0.642,0.642,0.6345,0.6285,0.642,0.6437,0.6437,0.6437,0.6418,0.6412,0.6434,0.6418,0.6415,0.6434,0.6437,0.6437,0.6437,0.6437,0.6437,0.6437,0.6437,0.6437,0.6437,0.6437,0.6437,0.6437,0.6437,0.6437,0.6437,0.6437,0.6437,0.6539,0.7363,0.8143,0.8962,0.9669,1.0821,1.2195,1.3331,1.4183,1.4826,0.3961,0.4164,0.0,0.0,0.0,0.0,0.0,0.0,0.0,0.0,0.0,0.0,0.0,0.0,0.0,0.0,0.0,0.0,0.6407,0.0,0.0,0.0,0.0,0.0,0.6003,0.5986,0.585,0.5589,0.5572,0.5494,0.5428,0.5428,0.5433,0.5562,0.5562,0.0,0.0,0.0,0.6003,0.0,0.6329,0.6458,0.0,0.6644,0.6783,0.6922,0.7065,0.7044,0.6949,0.0,0.6841,0.6719,0.0,0.658,0.6468,0.0,0.0,0.0,0.0,0.0,0.0,0.0,0.6338,0.0,0.0,0.0,0.6285,0.6285,0.0,0.6622,0.6722,0.0,0.0,0.6792,0.665,0.6477,0.6296,0.6219,0.6189,0.641,0.6437,0.6437,0.6437,0.6344,0.6328,0.6429,0.6344,0.6331,0.6431,0.6437,0.6437,0.6437,0.6437,0.6437,0.6437,0.6437,0.6437,0.6437,0.6437,0.6437,0.6437,0.6437,0.6437,0.6437,0.6437,0.6539,0.6851,0.7572,0.8445,0.9482,1.0589,1.1737,1.3041,1.4135,1.4941,1.5511,0.4193,0.433,0.0,0.0,0.0,0.0,0.0,0.0,0.0,0.0,0.0,0.0,0.0,0.0,0.0,0.0,0.0,0.6766,0.0,0.0,0.0,0.0,0.0,0.0,0.0,0.6207,0.6057,0.5844,0.5755,0.5681,0.5616,0.5616,0.565,0.5711,0.5711,0.0,0.5942,0.0,0.621,0.0,0.0,0.0,0.0,0.6675,0.6797,0.6949,0.7088,0.7048,0.6943,0.0,0.6953,0.0,0.0,0.0,0.0,0.0,0.0,0.0,0.0,0.0,0.0,0.0,0.0,0.0,0.6383,0.0,0.6515,0.0,0.0,0.0,0.0,0.0,0.0,0.0,0.6911,0.6731,0.6548,0.638,0.6309,0.6219,0.6233,0.6233,0.6233,0.6189,0.6184,0.6227,0.6255,0.629,0.6336,0.6401,0.6437,0.6437,0.6437,0.6437,0.6437,0.6437,0.6437,0.6437,0.6437,0.6437,0.6437,0.6437,0.6437,0.6437,0.6539,0.6742,0.715,0.8393,0.943,1.0355,1.1916,1.2914,1.363,1.4512,1.5363,1.603,0.4485,0.0,0.0,0.0,0.0,0.0,0.0,0.0,0.0,0.0,0.0,0.0,0.683,0.7092,0.0,0.0,0.0,0.7031,0.0,0.0,0.6803,0.0,0.0,0.0,0.0,0.0,0.6224,0.603,0.5918,0.584,0.58,0.58,0.5823,0.5864,0.5864,0.5949,0.6101,0.0,0.0,0.6481,0.6593,0.6664,0.6705,0.6749,0.6831,0.6949,0.7088,0.7048,0.6946,0.7048,0.7014,0.0,0.6929,0.0,0.0,0.0,0.0,0.0,0.6702,0.0,0.0,0.0,0.0,0.0,0.0,0.0,0.0,0.0,0.0,0.0,0.0,0.0,0.0,0.7126,0.0,0.6859,0.6672,0.648,0.6287,0.6078,0.6086,0.6086,0.6086,0.6053,0.6048,0.6083,0.6168,0.6233,0.6268,0.6374,0.6437,0.6437,0.6437,0.6437,0.6437,0.6437,0.6437,0.6437,0.6437,0.6437,0.6437,0.6437,0.6539,0.6539,0.6839,0.726,0.7902,0.9161,1.036,1.139,1.2971,1.3811,1.4261,1.4866,1.5628,1.629,0.4702,0.4727,0.0,0.0,0.0,0.0,0.0,0.0,0.0,0.0,0.0,0.0,0.0,0.0,0.0,0.0,0.0,0.7448,0.7146,0.0,0.7065,0.0,0.0,0.6698,0.0,0.0,0.0,0.603,0.6023,0.5945,0.58,0.58,0.5881,0.6023,0.6023,0.6108,0.6254,0.6257,0.6342,0.6471,0.6478,0.6569,0.6715,0.0,0.6926,0.6949,0.7088,0.0,0.0,0.6932,0.6932,0.0,0.0,0.0,0.0,0.0,0.0,0.0,0.0,0.0,0.0,0.6695,0.0,0.0,0.0,0.0,0.6702,0.0,0.0,0.0,0.0,0.0,0.0,0.0,0.6972,0.0,0.0,0.6358,0.6096,0.6059,0.6086,0.6086,0.6086,0.5977,0.5958,0.6078,0.6089,0.6143,0.6263,0.6374,0.6437,0.6437,0.6437,0.6437,0.6437,0.6437,0.6437,0.6437,0.6437,0.6437,0.6437,0.6642,0.6745,0.6842,0.7335,0.821,0.9169,0.9852,1.1081,1.2664,1.3414,1.4261,1.503,1.5369,1.5851,1.632,0.0,0.0,0.0,0.0,0.0,0.0,0.0,0.5965,0.0,0.0,0.0,0.0,0.0,0.0,0.7522,0.0,0.0,0.7556,0.7451,0.7444,0.0,0.0,0.0,0.7095,0.0,0.0,0.0,0.0,0.6227,0.6156,0.6105,0.6105,0.6132,0.6183,0.6183,0.6264,0.0,0.0,0.0,0.0,0.0,0.6946,0.6987,0.0,0.6929,0.6949,0.7088,0.7048,0.0,0.7037,0.7007,0.6946,0.7041,0.7068,0.7068,0.7068,0.7034,0.699,0.0,0.0,0.6851,0.6851,0.0,0.0,0.0,0.0,0.0,0.0,0.0,0.0,0.0,0.0,0.0,0.0,0.0,0.6966,0.0,0.6523,0.6287,0.6286,0.6031,0.5852,0.5852,0.5814,0.5809,0.585,0.5923,0.6018,0.614,0.626,0.6361,0.6434,0.6437,0.6437,0.6437,0.6437,0.6437,0.6437,0.6539,0.6642,0.6642,0.6939,0.7138,0.7341,0.8234,0.9116,0.9807,1.1453,1.2585,1.3319,1.4404,1.5041,1.5392,1.567,1.6118,1.6622,0.4814,0.0,0.0,0.0,0.0,0.0,0.0,0.0,0.0,0.0,0.718,0.0,0.7441,0.0,0.7675,0.0,0.7726,0.7733,0.7678,0.7675,0.0,0.76,0.7455,0.0,0.0,0.0,0.0,0.0,0.0,0.6312,0.6338,0.6338,0.6338,0.6338,0.6338,0.6312,0.6396,0.0,0.6573,0.0,0.0,0.7139,0.0,0.0,0.7004,0.7014,0.0,0.7082,0.7017,0.7109,0.7082,0.7021,0.7112,0.7139,0.7139,0.7139,0.7139,0.7139,0.7139,0.7075,0.0,0.7004,0.7044,0.0,0.72,0.0,0.0,0.0,0.0,0.0,0.0,0.0,0.0,0.0,0.0,0.7054,0.0,0.6612,0.652,0.6428,0.6083,0.5819,0.5819,0.5733,0.5733,0.5733,0.5839,0.5937,0.6015,0.6179,0.6301,0.6374,0.6415,0.6437,0.6437,0.6437,0.6437,0.6539,0.6742,0.6845,0.6942,0.7341,0.7633,0.8137,0.9198,1.012,1.1123,1.2616,1.3662,1.4289,1.5204,1.5642,1.5851,1.6017,1.6414,1.6905,0.0,0.0,0.0,0.0,0.528,0.0,0.0,0.0,0.6884,0.0,0.7421,0.7611,0.7611,0.7736,0.7821,0.7821,0.7957,0.0,0.7831,0.7821,0.0,0.0,0.7468,0.7316,0.7166,0.0,0.0,0.0,0.0,0.6403,0.6271,0.6264,0.6338,0.6338,0.6338,0.0,0.6338,0.6338,0.643,0.6725,0.7014,0.7132,0.7139,0.7139,0.7139,0.7139,0.7139,0.7139,0.7139,0.7139,0.7139,0.7139,0.7139,0.7139,0.7139,0.7139,0.7139,0.7139,0.7139,0.7139,0.7143,0.7149,0.7261,0.0,0.0,0.0,0.7611,0.0,0.0,0.0,0.0,0.0,0.0,0.0,0.7146,0.7054,0.6884,0.6795,0.6707,0.6441,0.626,0.6171,0.6083,0.5908,0.5733,0.5733,0.5833,0.5896,0.5904,0.6124,0.6257,0.6268,0.6372,0.6431,0.6437,0.6437,0.6539,0.6845,0.6845,0.6942,0.7238,0.7846,0.8347,0.8947,1.0033,1.1332,1.2766,1.332,1.4294,1.5482,1.5482,1.5856,1.6302,1.6314,1.6658,1.7147,0.4696,0.5004,0.5253,0.0,0.5635,0.59,0.0,0.0,0.0,0.0,0.757,0.7756,0.7756,0.7889,0.798,0.798,0.8018,0.0,0.0,0.0,0.0,0.7929,0.7678,0.7522,0.7482,0.7119,0.0,0.681,0.0,0.6454,0.6417,0.6312,0.6338,0.6338,0.6338,0.6338,0.6338,0.6338,0.643,0.6715,0.6905,0.7048,0.7139,0.0,0.7139,0.7139,0.7139,0.7139,0.7139,0.7139,0.7139,0.7139,0.7139,0.7139,0.7139,0.7139,0.7139,0.7139,0.7139,0.7139,0.717,0.7282,0.7343,0.7431,0.0,0.0,0.0,0.0,0.0,0.0,0.0,0.0,0.0,0.0,0.0,0.0,0.0,0.0,0.0,0.7115,0.6857,0.6526,0.6343,0.6083,0.5997,0.5997,0.5847,0.5814,0.5899,0.5961,0.6081,0.6263,0.6295,0.6352,0.6434,0.6639,0.6742,0.6845,0.7244,0.7543,0.7842,0.8456,0.9213,1.0033,1.139,1.2516,1.343,1.4523,1.5209,1.5482,1.5684,1.6181,1.6616,1.6815,1.7098,1.7394,0.4696,0.0,0.0,0.5936,0.0,0.0,0.6647,0.0,0.0,0.7543,0.7767,0.0,0.7913,0.7987,0.8038,0.8038,0.8038,0.0,0.8038,0.0,0.0,0.7943,0.7723,0.7567,0.7502,0.7183,0.0,0.6929,0.0,0.6505,0.638,0.6298,0.6224,0.6162,0.623,0.6338,0.6271,0.6396,0.6549,0.6719,0.6936,0.7068,0.0,0.7139,0.7139,0.7139,0.7139,0.7139,0.7139,0.7139,0.7139,0.7139,0.7139,0.7139,0.7139,0.7139,0.7139,0.7139,0.7139,0.7139,0.7177,0.7333,0.7421,0.7533,0.7756,0.7862,0.7936,0.0,0.8038,0.7991,0.0,0.0,0.0,0.0,0.0,0.0,0.0,0.0,0.0,0.0,0.7305,0.707,0.6976,0.6502,0.6257,0.6257,0.6083,0.6025,0.6003,0.6107,0.6136,0.6184,0.6287,0.6374,0.6539,0.6742,0.6945,0.7144,0.7447,0.7875,0.8542,0.9135,1.0132,1.1346,1.2506,1.3504,1.4256,1.5157,1.5589,1.5708,1.6048,1.6501,1.6905,1.7165,1.7358,1.7485,0.0,0.0,0.0,0.0,0.0,0.0,0.0,0.7352,0.0,0.7794,0.0,0.8018,0.8038,0.8021,0.8018,0.8038,0.0,0.8031,0.8011,0.8011,0.794,0.779,0.7645,0.7509,0.7373,0.7221,0.0,0.0,0.0,0.6569,0.6318,0.6278,0.619,0.6064,0.62,0.6271,0.0,0.6563,0.6695,0.6753,0.701,0.7126,0.7139,0.7139,0.7139,0.7139,0.7139,0.7139,0.7139,0.7139,0.7139,0.7139,0.7139,0.7139,0.7139,0.7139,0.7139,0.7139,0.7139,0.7139,0.7183,0.7356,0.7502,0.7641,0.7804,0.7943,0.8038,0.8038,0.8038,0.7997,0.7865,0.0,0.0,0.0,0.0,0.0,0.0,0.0,0.0,0.0,0.0,0.0,0.7628,0.691,0.6474,0.6459,0.6456,0.6364,0.6171,0.6305,0.6347,0.6178,0.6314,0.6539,0.6845,0.6859,0.7163,0.7646,0.7666,0.814,0.9078,0.9835,1.0959,1.2373,1.3236,1.4184,1.5141,1.5382,1.5708,1.5994,1.6537,1.6887,1.7123,1.7382,1.7485,1.7485,0.0,0.0,0.0,0.0,0.0,0.7106,0.7409,0.7665,0.7784,0.7807,0.7834,0.7899,0.8024,0.7926,0.7902,0.8028,0.8038,0.0,0.0,0.0,0.0,0.7645,0.7492,0.74,0.737,0.7221,0.7129,0.0,0.6831,0.6675,0.6617,0.6376,0.6247,0.622,0.6247,0.6325,0.6437,0.6488,0.0,0.6895,0.6946,0.7037,0.7139,0.7139,0.7139,0.7139,0.7139,0.7139,0.7139,0.7139,0.7139,0.7139,0.7139,0.7139,0.7139,0.7139,0.7139,0.7139,0.7139,0.7139,0.7207,0.7489,0.758,0.7672,0.7936,0.8021,0.8038,0.8038,0.8038,0.8031,0.8004,0.0,0.0,0.0,0.0,0.0,0.0,0.0,0.0,0.0,0.0,0.7645,0.7763,0.7331,0.6999,0.6888,0.6784,0.6551,0.6349,0.6315,0.6354,0.6361,0.6611,0.6845,0.6845,0.7452,0.7655,0.765,0.7968,0.8547,0.9086,1.0193,1.1292,1.2288,1.3789,1.4646,1.5079,1.566,1.6018,1.6266,1.6815,1.705,1.7123,1.7382,1.7485,1.7485,0.0,0.0,0.0,0.0,0.0,0.0,0.0,0.7767,0.7811,0.7811,0.7811,0.7811,0.7811,0.7746,0.7733,0.7804,0.7811,0.778,0.7706,0.7702,0.7634,0.7489,0.7411,0.0,0.7255,0.7177,0.7139,0.7139,0.6922,0.6736,0.658,0.6519,0.6363,0.6146,0.6302,0.6454,0.0,0.0,0.6793,0.6936,0.7007,0.7078,0.7139,0.7139,0.7139,0.7139,0.7139,0.7139,0.7139,0.7139,0.7139,0.7139,0.7139,0.7139,0.7139,0.7139,0.7139,0.7139,0.7139,0.72,0.7316,0.7543,0.7655,0.7767,0.7987,0.8038,0.8038,0.8038,0.8038,0.8038,0.8038,0.798,0.0,0.0,0.0,0.0,0.0,0.0,0.0,0.0,0.0,0.0,0.0,0.7768,0.7508,0.7214,0.7096,0.694,0.6618,0.6721,0.6677,0.6646,0.6905,0.7175,0.7345,0.7715,0.7958,0.8067,0.8347,0.8834,0.965,1.0445,1.1541,1.2832,1.4121,1.4894,1.5464,1.6035,1.6465,1.673,1.699,1.7177,1.731,1.7436,1.7485,1.7485,0.0,0.6308,0.0,0.0,0.7359,0.0,0.7753,0.779,0.7811,0.7811,0.7756,0.7689,0.7607,0.757,0.7563,0.7597,0.76,0.7587,0.7553,0.755,0.7482,0.7329,0.7322,0.7265,0.7143,0.7139,0.7139,0.0,0.6997,0.6807,0.6569,0.6661,0.6512,0.6183,0.6417,0.6607,0.6756,0.6878,0.6946,0.6983,0.7095,0.7139,0.7139,0.7139,0.7163,0.719,0.719,0.721,0.7238,0.7238,0.7193,0.7139,0.7139,0.7139,0.7139,0.7139,0.7163,0.719,0.719,0.7302,0.7455,0.7607,0.7729,0.7851,0.8004,0.8038,0.8038,0.8038,0.8038,0.8038,0.8038,0.8038,0.0,0.0,0.0,0.0,0.0,0.0,0.0,0.0,0.0,0.0,0.8038,0.8038,0.7879,0.7495,0.7438,0.7249,0.689,0.706,0.7117,0.6935,0.7223,0.7535,0.7849,0.7981,0.8157,0.8482,0.8516,0.9016,0.9888,1.0605,1.1693,1.3168,1.419,1.52,1.6074,1.6564,1.6905,1.7098,1.7153,1.7298,1.7485,1.7485,1.7485,1.7485,0.0,0.0,0.0,0.0,0.0,0.0,0.7638,0.7729,0.7811,0.7811,0.758,0.7461,0.7587,0.7475,0.7448,0.7587,0.76,0.7539,0.74,0.7394,0.7322,0.717,0.7163,0.7153,0.7139,0.7139,0.7139,0.0,0.6997,0.6915,0.6881,0.6759,0.6678,0.6637,0.6668,0.6763,0.6909,0.6922,0.7004,0.7122,0.7136,0.7139,0.7139,0.7139,0.7227,0.735,0.735,0.7441,0.7556,0.7556,0.7373,0.7139,0.7139,0.7139,0.7139,0.7139,0.7241,0.735,0.735,0.7461,0.7611,0.7756,0.7801,0.7851,0.8004,0.8038,0.8038,0.8038,0.8038,0.8038,0.8038,0.8038,0.8038,0.0,0.0,0.0,0.0,0.0,0.0,0.0,0.0,0.0,0.8038,0.8038,0.7963,0.7784,0.7651,0.7451,0.7068,0.7148,0.7211,0.7117,0.7614,0.7837,0.7849,0.829,0.8469,0.8482,0.8621,0.8911,0.9363,1.0422,1.1578,1.2613,1.4153,1.5502,1.6682,1.6948,1.7068,1.7117,1.7352,1.7461,1.7485,1.7485,1.7485,1.7485,0.0,0.0,0.0,0.0,0.0,0.0,0.0,0.757,0.7546,0.7546,0.7444,0.736,0.7329,0.7268,0.7258,0.7319,0.7322,0.7299,0.7238,0.7234,0.7204,0.7143,0.7139,0.7139,0.7139,0.7139,0.7139,0.0,0.0,0.701,0.6929,0.6953,0.6963,0.6963,0.6963,0.7048,0.72,0.7292,0.7363,0.7417,0.7417,0.7417,0.7417,0.7417,0.7455,0.7509,0.7509,0.7546,0.76,0.76,0.7519,0.7417,0.7417,0.7417,0.7417,0.7417,0.7461,0.7509,0.7509,0.7614,0.774,0.7797,0.7879,0.7963,0.8024,0.8038,0.8038,0.8038,0.8038,0.8038,0.8038,0.8038,0.8038,0.8038,0.0,0.0,0.0,0.0,0.0,0.0,0.0,0.0,0.0,0.8038,0.7977,0.7824,0.7756,0.7597,0.7295,0.7466,0.7492,0.7409,0.7743,0.8008,0.8287,0.8452,0.8574,0.8757,0.8818,0.9003,0.9421,1.0551,1.2019,1.3964,1.5107,1.6132,1.6954,1.7219,1.7328,1.7334,1.7443,1.7485,1.7485,1.7485,1.7485,1.7485,0.6463,0.0,0.7578,0.0,0.76,0.7584,0.7539,0.7441,0.7356,0.7309,0.7302,0.7261,0.7153,0.7139,0.7139,0.7139,0.7139,0.7139,0.7139,0.7139,0.7139,0.7139,0.7139,0.0,0.7139,0.7139,0.7139,0.7139,0.7139,0.7088,0.6993,0.7139,0.7207,0.721,0.7255,0.7336,0.7444,0.7553,0.76,0.76,0.76,0.76,0.76,0.76,0.7628,0.7662,0.7662,0.7692,0.7729,0.7729,0.7729,0.7712,0.7628,0.76,0.76,0.76,0.7631,0.7662,0.7662,0.7767,0.7879,0.7879,0.796,0.8038,0.8038,0.8038,0.8038,0.8038,0.8038,0.8038,0.8038,0.8038,0.8038,0.8038,0.0,0.0,0.0,0.8038,0.0,0.0,0.8038,0.8038,0.8038,0.8038,0.7994,0.7885,0.7879,0.775,0.7455,0.7675,0.7767,0.7665,0.7909,0.818,0.8479,0.8482,0.8635,0.894,0.8981,0.9167,0.9493,1.083,1.2689,1.4986,1.5853,1.6628,1.7219,1.7406,1.7485,1.7485,1.7485,1.7485,1.7485,1.7485,1.7485,1.7485,0.6477,0.723,0.7767,0.7624,0.76,0.755,0.7397,0.7373,0.7316,0.7163,0.7143,0.7143,0.7139,0.7139,0.7139,0.7139,0.7139,0.7139,0.7139,0.7139,0.7139,0.0,0.0,0.7139,0.7139,0.7139,0.7139,0.7139,0.0,0.0,0.7139,0.7295,0.7366,0.7373,0.7526,0.7594,0.7597,0.76,0.76,0.76,0.76,0.76,0.76,0.76,0.7685,0.7811,0.7811,0.7906,0.8035,0.8035,0.8035,0.7984,0.7692,0.76,0.76,0.76,0.7699,0.7811,0.7811,0.7919,0.8035,0.8035,0.8038,0.8038,0.8038,0.8038,0.8038,0.8038,0.8038,0.8038,0.8038,0.8038,0.8038,0.8038,0.0,0.0,0.0,0.8038,0.0,0.8038,0.8038,0.8038,0.8038,0.8038,0.8038,0.8038,0.8035,0.7909,0.7611,0.7733,0.7811,0.7811,0.796,0.0,0.8479,0.8482,0.8635,0.894,0.9083,0.915,0.9274,1.1433,1.3471,1.5105,1.6059,1.6885,1.7479,1.7485,1.7485,1.7485,1.7485,1.7485,1.7485,1.7485,1.7485,1.7485,0.6351,0.6994,0.7426,0.7468,0.7444,0.7394,0.7238,0.7214,0.7197,0.7146,0.7139,0.7139,0.7139,0.7139,0.7139,0.0,0.7139,0.7139,0.0,0.7139,0.7139,0.7139,0.7139,0.7139,0.7139,0.7139,0.7139,0.7139,0.0,0.7193,0.7302,0.7455,0.7529,0.7533,0.7678,0.7743,0.775,0.7855,0.7899,0.7899,0.7899,0.7899,0.7899,0.7899,0.7926,0.7967,0.7967,0.7997,0.8038,0.8038,0.8038,0.8024,0.7929,0.7899,0.7899,0.7899,0.7933,0.7967,0.7967,0.8004,0.8038,0.8038,0.8038,0.8038,0.8038,0.8038,0.8038,0.8038,0.8038,0.8038,0.8038,0.8038,0.8038,0.8038,0.8038,0.0,0.8038,0.0,0.8038,0.8038,0.8038,0.8038,0.8038,0.8038,0.8038,0.8038,0.8038,0.7953,0.7753,0.7885,0.0,0.0,0.8116,0.0,0.8635,0.8743,0.8893,0.9086,0.9235,0.9824,1.0868,1.2276,1.3856,1.5477,1.6183,1.6891,1.7485,1.7485,1.7485,1.7485,1.7485,1.7485,1.7485,1.7485,1.7485,1.7485,0.6034,0.6761,0.7184,0.7312,0.7285,0.7251,0.7153,0.7139,0.7139,0.7139,0.7139,0.7139,0.7139,0.7139,0.0,0.7139,0.7139,0.7139,0.7139,0.7139,0.7139,0.7139,0.7139,0.7139,0.7139,0.7139,0.7139,0.7139,0.72,0.7278,0.7377,0.7584,0.7678,0.7685,0.7831,0.7896,0.7902,0.7997,0.8038,0.8038,0.8038,0.8038,0.8038,0.8038,0.8038,0.8038,0.8038,0.8038,0.8038,0.8038,0.8038,0.8038,0.8038,0.8038,0.8038,0.8038,0.8038,0.8038,0.8038,0.8038,0.8038,0.8038,0.8038,0.8038,0.8038,0.8038,0.8038,0.8038,0.8038,0.8038,0.8038,0.8038,0.8038,0.8038,0.8038,0.8038,0.8038,0.0,0.8038,0.0,0.0,0.8038,0.8038,0.8038,0.8038,0.8038,0.8092,0.0,0.0,0.0,0.815,0.8204,0.8299,0.8492,0.8794,0.8893,0.9039,0.9242,0.9624,1.0601,1.1959,1.291,1.4282,1.5833,1.6301,1.6891,1.7485,1.7485,1.7485,1.7485,1.7485,1.7485,1.7485,1.7485,1.7485,1.7485,0.5729,0.6441,0.6953,0.7078,0.7139,0.7139,0.7139,0.7139,0.7139,0.7139,0.7139,0.7139,0.7139,0.7139,0.7139,0.7139,0.7139,0.0,0.7139,0.7139,0.7139,0.7139,0.7139,0.7139,0.7139,0.7139,0.7146,0.7156,0.7312,0.7394,0.7407,0.7692,0.7828,0.7834,0.7977,0.8038,0.8038,0.8038,0.8038,0.8038,0.8038,0.8038,0.8038,0.8038,0.8038,0.8038,0.8038,0.8038,0.8038,0.8038,0.8038,0.8038,0.8038,0.8038,0.8038,0.8038,0.8038,0.8038,0.8038,0.8038,0.8038,0.8038,0.8038,0.8038,0.8038,0.8038,0.8038,0.8038,0.8038,0.8038,0.8038,0.8038,0.8038,0.8038,0.8038,0.8038,0.8038,0.8038,0.8038,0.8038,0.8038,0.0,0.8055,0.8055,0.8058,0.8069,0.8204,0.8289,0.0,0.0,0.836,0.8496,0.8509,0.8655,0.895,0.8974,0.913,0.9531,1.0262,1.1363,1.2719,1.3444,1.4639,1.6177,1.6419,1.6891,1.7485,1.7485,1.7485,1.7485,1.7485,1.7485,1.7485,1.7485,1.7485,1.7485,0.525,0.595,0.6474,0.6969,0.7139,0.7139,0.7139,0.7139,0.7139,0.7139,0.7139,0.7139,0.7139,0.7139,0.7139,0.7139,0.7139,0.7139,0.7139,0.7139,0.7139,0.7139,0.7139,0.7139,0.7139,0.7139,0.72,0.7316,0.7472,0.76,0.7712,0.7899,0.7984,0.7987,0.8024,0.8038,0.8038,0.8038,0.8038,0.8038,0.8038,0.8038,0.8038,0.8038,0.8038,0.8038,0.8038,0.8038,0.8038,0.8038,0.8038,0.8038,0.8038,0.8038,0.8038,0.8038,0.8038,0.8038,0.8038,0.8038,0.8038,0.8038,0.8038,0.8038,0.8038,0.8038,0.8038,0.8038,0.8038,0.8038,0.8038,0.8038,0.8038,0.8038,0.8038,0.8038,0.8038,0.8038,0.8038,0.8038,0.8038,0.8085,0.8204,0.8214,0.8262,0.8367,0.8411,0.8587,0.8917,0.903,0.8835,0.8655,0.8771,0.892,0.91,0.9334,0.9776,1.0437,1.1435,1.2316,1.3084,1.4282,1.5229,1.6177,1.6661,1.7132,1.7485,1.7485,1.7485,1.7485,1.7485,1.7485,1.7485,1.7485,1.7485,1.7485,0.4667,0.5549,0.626,0.6877,0.7054,0.7139,0.7139,0.7139,0.7139,0.7139,0.7139,0.7139,0.7139,0.7139,0.7139,0.7139,0.7139,0.7139,0.7139,0.7139,0.7139,0.7139,0.7139,0.7139,0.7139,0.7139,0.7217,0.737,0.7522,0.7672,0.7814,0.7967,0.8038,0.8038,0.8038,0.8038,0.8038,0.8038,0.8038,0.8038,0.8038,0.8038,0.8038,0.8038,0.8038,0.8038,0.8038,0.8038,0.8038,0.8038,0.8038,0.8038,0.8038,0.8038,0.8038,0.8038,0.8038,0.8038,0.8038,0.8038,0.8038,0.8038,0.8038,0.8038,0.8038,0.8038,0.8038,0.8038,0.8038,0.8038,0.8038,0.8038,0.8038,0.8038,0.8038,0.8038,0.8038,0.8038,0.8065,0.8136,0.8143,0.8204,0.8353,0.8367,0.8397,0.8476,0.8652,0.0,0.9137,0.949,0.946,0.913,0.9213,0.9253,0.9361,0.971,1.0346,1.1273,1.1997,1.296,1.4157,1.4997,1.5709,1.6537,1.6903,1.7138,1.7485,1.7485,1.7485,1.7485,1.7485,1.7485,1.7485,1.7485,1.7485,1.7485,0.4139,0.5216,0.6192,0.6707,0.6986,0.7177,0.7177,0.7177,0.7177,0.7177,0.7153,0.7139,0.7139,0.7139,0.7139,0.7139,0.7139,0.7139,0.7139,0.7139,0.7139,0.7139,0.7139,0.7139,0.7139,0.7139,0.7227,0.7407,0.7536,0.7685,0.7848,0.7977,0.8038,0.8038,0.8038,0.8038,0.8038,0.8038,0.8038,0.8038,0.8038,0.8038,0.8038,0.8038,0.8038,0.8038,0.8038,0.8038,0.8038,0.8038,0.8038,0.8038,0.8038,0.8038,0.8038,0.8038,0.8038,0.8038,0.8038,0.8038,0.8038,0.8038,0.8038,0.8038,0.8038,0.8038,0.8038,0.8038,0.8038,0.8038,0.8038,0.8038,0.8038,0.8038,0.8038,0.8038,0.8038,0.8058,0.8123,0.8255,0.8289,0.836,0.8503,0.8516,0.8526,0.8656,0.9012,0.9316,0.9428,0.9817,0.9986,0.9784,0.9674,0.9701,0.9758,1.0244,1.091,1.1997,1.2599,1.3679,1.5116,1.5477,1.6076,1.6903,1.702,1.7138,1.7485,1.7485,1.7485,1.7485,1.7485,1.7485,1.7485,1.7485,1.7485,1.7485,0.4045,0.4959,0.5839,0.6637,0.7072,0.7336,0.7336,0.7336,0.7336,0.7336,0.7221,0.7139,0.7139,0.7139,0.7139,0.7139,0.7139,0.7139,0.7139,0.7139,0.7139,0.7139,0.7139,0.7139,0.7139,0.7139,0.7278,0.7563,0.7587,0.774,0.8004,0.8028,0.8038,0.8038,0.8038,0.8038,0.8038,0.8038,0.8038,0.8038,0.8038,0.8038,0.8038,0.8038,0.8038,0.8038,0.8038,0.8038,0.8038,0.8038,0.8038,0.8038,0.8038,0.8038,0.8038,0.8038,0.8038,0.8038,0.8038,0.8038,0.8038,0.8038,0.8038,0.8038,0.8038,0.8038,0.8038,0.8038,0.8038,0.8038,0.8038,0.8038,0.8038,0.8038,0.8038,0.8038,0.8038,0.815,0.8245,0.8269,0.8377,0.8509,0.8659,0.8676,0.8834,0.9184,0.9443,0.9756,1.0324,1.0277,1.0327,1.0355,1.0126,1.0094,1.0148,1.0778,1.1635,1.2599,1.3569,1.4406,1.5116,1.572,1.6194,1.6537,1.6903,1.7138,1.7485,1.7485,1.7485,1.7485,1.7485,1.7485,1.7485,1.7485,1.7485,1.7485,0.3569,0.4648,0.5715,0.6465,0.7011,0.74,0.7482,0.7424,0.737,0.737,0.7238,0.7139,0.7139,0.7214,0.7265,0.7265,0.7265,0.7265,0.7265,0.7187,0.7139,0.7139,0.7139,0.7139,0.7139,0.7139,0.7292,0.76,0.76,0.775,0.8038,0.8038,0.8038,0.8038,0.8038,0.8038,0.8038,0.8038,0.8038,0.8038,0.8038,0.8038,0.8038,0.8038,0.8038,0.8038,0.8038,0.8038,0.8038,0.8038,0.8038,0.8038,0.8038,0.8038,0.8038,0.8038,0.8038,0.8038,0.8038,0.8038,0.8038,0.8038,0.8038,0.8038,0.8038,0.8038,0.8062,0.8147,0.8163,0.8187,0.8265,0.8279,0.8279,0.8279,0.8279,0.8279,0.8279,0.834,0.8414,0.8496,0.8564,0.8696,0.8927,0.895,0.9123,0.9617,0.9806,1.0074,1.0421,1.0581,1.059,1.0195,1.0039,0.9995,1.0304,1.091,1.1877,1.296,1.3808,1.465,1.5601,1.5963,1.6318,1.6779,1.6903,1.7138,1.7485,1.7485,1.7485,1.7485,1.7485,1.7485,1.7485,1.7485,1.7485,1.7485,0.307,0.435,0.5533,0.6253,0.6963,0.7419,0.7631,0.755,0.7461,0.7431,0.7288,0.7193,0.7193,0.7299,0.7387,0.7421,0.7424,0.7411,0.7373,0.7258,0.7177,0.7143,0.7139,0.7156,0.7193,0.7193,0.7343,0.7648,0.7648,0.7784,0.8038,0.8038,0.8038,0.8038,0.8038,0.8038,0.8038,0.8038,0.8038,0.8038,0.8038,0.8038,0.8038,0.8038,0.8038,0.8038,0.8038,0.8038,0.8038,0.8038,0.8038,0.8038,0.8038,0.8038,0.8038,0.8038,0.8038,0.8038,0.8038,0.8038,0.8038,0.8038,0.8038,0.8048,0.8085,0.8092,0.8136,0.8289,0.8319,0.8353,0.8462,0.8482,0.8482,0.8482,0.8482,0.8482,0.8482,0.8513,0.8577,0.8696,0.8771,0.8903,0.913,0.9184,0.9367,0.9834,1.0109,1.0244,1.036,1.0635,1.0606,1.0133,0.9882,1.0061,1.0547,1.1152,1.2118,1.3444,1.3933,1.4888,1.5963,1.5844,1.6194,1.6903,1.6903,1.7132,1.7485,1.7485,1.7485,1.7485,1.7485,1.7485,1.7485,1.7485,1.7485,1.7485,0.2932,0.4001,0.5039,0.6189,0.6933,0.7498,0.7794,0.7787,0.7733,0.76,0.7451,0.7353,0.7353,0.7363,0.7431,0.757,0.7584,0.7522,0.738,0.736,0.7288,0.7146,0.7139,0.7207,0.7353,0.7353,0.7499,0.7794,0.7794,0.7879,0.8038,0.8038,0.8038,0.8038,0.8038,0.8038,0.8038,0.8038,0.8038,0.8038,0.8038,0.8038,0.8038,0.8038,0.8038,0.8038,0.8038,0.8038,0.8038,0.8038,0.8038,0.8038,0.8038,0.8038,0.8038,0.8038,0.8038,0.8038,0.8038,0.8038,0.8038,0.8038,0.8038,0.8075,0.8221,0.8252,0.8292,0.8435,0.8465,0.8469,0.8479,0.8482,0.8482,0.8482,0.8482,0.8482,0.8482,0.8604,0.8699,0.871,0.8954,0.9127,0.915,0.9283,0.9483,0.9841,0.998,1.0181,1.0417,1.0445,1.0286,1.0286,0.9937,1.0304,1.1273,1.1635,1.2599,1.4172,1.4172,1.465,1.5596,1.5359,1.5709,1.6537,1.6537,1.6891,1.7485,1.7485,1.7485,1.7485,1.7485,1.7485,1.7485,1.7485,1.7485,1.7485,0.2495,0.3557,0.4708,0.5907,0.6669,0.7356,0.7838,0.7872,0.779,0.7736,0.7604,0.7512,0.7512,0.759,0.7668,0.7726,0.7729,0.7706,0.7648,0.756,0.74,0.7149,0.7231,0.7312,0.737,0.7465,0.7611,0.7811,0.7811,0.7889,0.8038,0.8038,0.8038,0.8038,0.8038,0.8038,0.8038,0.8038,0.8038,0.8038,0.8038,0.8038,0.8038,0.8038,0.8038,0.8038,0.8038,0.8038,0.8038,0.8038,0.8038,0.8038,0.8038,0.8038,0.8038,0.8038,0.8106,0.8184,0.8184,0.8113,0.8062,0.816,0.8184,0.8221,0.8367,0.8401,0.8442,0.8591,0.8625,0.8679,0.8862,0.8899,0.8899,0.8899,0.8899,0.8899,0.8899,0.8947,0.9018,0.9113,0.9225,0.9334,0.9425,0.949,0.9679,1.0123,1.0187,1.0219,1.0339,1.0272,1.0425,1.0547,1.091,1.1273,1.1635,1.2231,1.326,1.4367,1.4744,1.5304,1.6038,1.5519,1.5811,1.676,1.6606,1.6891,1.7485,1.7485,1.7485,1.7485,1.7485,1.7485,1.7485,1.7485,1.7485,1.7485,0.222,0.3194,0.4267,0.5627,0.6369,0.703,0.7726,0.7855,0.7865,0.7818,0.7726,0.7665,0.7665,0.7753,0.7831,0.7879,0.7882,0.7862,0.7814,0.7678,0.7506,0.7295,0.7387,0.7465,0.7509,0.7611,0.7736,0.7882,0.7882,0.7936,0.8038,0.8038,0.8038,0.8038,0.8038,0.8038,0.8038,0.8038,0.8038,0.8038,0.8038,0.8038,0.8038,0.8038,0.8038,0.8038,0.8038,0.8038,0.8038,0.8038,0.8038,0.8038,0.8038,0.8072,0.8119,0.8163,0.8255,0.8336,0.8336,0.8258,0.8204,0.8309,0.8336,0.8374,0.852,0.8554,0.8611,0.8808,0.8849,0.8927,0.9178,0.9225,0.9225,0.9225,0.9225,0.9225,0.9225,0.9225,0.9262,0.9367,0.9422,0.9493,0.9598,0.9649,0.9837,1.0176,1.0183,1.0183,1.0304,1.0425,1.0668,1.1273,1.1877,1.2363,1.2599,1.303,1.3741,1.4612,1.4824,1.5431,1.6183,1.5648,1.5894,1.6897,1.6726,1.6967,1.7485,1.7485,1.7485,1.7485,1.7485,1.7485,1.7485,1.7485,1.7485,1.7485,0.222,0.2822,0.3726,0.5334,0.6037,0.6639,0.7444,0.7842,0.7984,0.7831,0.7814,0.7814,0.7814,0.7814,0.7875,0.8024,0.8038,0.7974,0.7824,0.7682,0.7604,0.7604,0.76,0.7665,0.7807,0.7814,0.7885,0.8038,0.8038,0.8038,0.8038,0.8038,0.8038,0.8038,0.8038,0.8038,0.8038,0.8038,0.8038,0.8038,0.8038,0.8038,0.8038,0.8038,0.8038,0.8038,0.8038,0.8038,0.8038,0.8038,0.8038,0.8041,0.8041,0.8147,0.8299,0.8442,0.8482,0.8482,0.8482,0.8486,0.8486,0.8482,0.8482,0.8523,0.8679,0.8713,0.8798,0.9093,0.9154,0.9201,0.9354,0.9384,0.9384,0.9384,0.9384,0.9384,0.9384,0.9384,0.9384,0.9384,0.9517,0.9612,0.9612,0.9737,0.9822,0.9822,0.9822,0.994,1.0304,1.0668,1.1273,1.2234,1.284,1.3569,1.4172,1.3765,1.3991,1.4983,1.4586,1.4812,1.581,1.5426,1.5915,1.6908,1.6908,1.7124,1.7485,1.7485,1.7485,1.7485,1.7485,1.7485,1.7485,1.7485,1.7485,1.7485,0.1717,0.2423,0.3327,0.4529,0.5334,0.6137,0.7138,0.7543,0.7726,0.7878,0.797,0.797,0.797,0.797,0.7991,0.8035,0.8038,0.8021,0.7974,0.7933,0.7909,0.7909,0.7804,0.7767,0.7811,0.7916,0.7994,0.8038,0.8038,0.8038,0.8038,0.8038,0.8038,0.8038,0.8038,0.8038,0.8038,0.8038,0.8038,0.8038,0.8038,0.8038,0.8038,0.8038,0.8038,0.8038,0.8038,0.8038,0.8038,0.8038,0.8113,0.8218,0.8319,0.8381,0.8428,0.8469,0.8557,0.8642,0.8642,0.872,0.8777,0.8669,0.8642,0.871,0.8964,0.9022,0.9076,0.9273,0.9313,0.9361,0.9513,0.954,0.954,0.954,0.954,0.954,0.954,0.954,0.9578,0.968,0.973,0.9758,0.9758,0.9795,0.9822,0.9822,0.9822,0.994,1.0304,1.1031,1.1877,1.2844,1.3918,1.4759,1.5126,1.4978,1.5166,1.5582,1.5554,1.5996,1.6658,1.6207,1.6393,1.7165,1.7051,1.7203,1.7485,1.7485,1.7485,1.7485,1.7485,1.7485,1.7485,1.7485,1.7485,1.7485,0.1516,0.2121,0.2826,0.3929,0.4732,0.5634,0.6736,0.7241,0.7746,0.7942,0.8038,0.8038,0.8038,0.8038,0.8038,0.8038,0.8038,0.8038,0.8038,0.8038,0.8038,0.8038,0.795,0.7899,0.7899,0.7991,0.8038,0.8038,0.8038,0.8038,0.8038,0.8038,0.8038,0.8038,0.8038,0.8038,0.8038,0.8038,0.8038,0.8038,0.8038,0.8038,0.8038,0.8038,0.8038,0.8038,0.8038,0.8038,0.8048,0.8109,0.8231,0.8381,0.8526,0.857,0.8594,0.8713,0.8815,0.8899,0.896,0.9042,0.9089,0.8998,0.893,0.8947,0.9188,0.9242,0.9286,0.9439,0.9469,0.9517,0.9666,0.9693,0.9693,0.9693,0.9693,0.9693,0.9693,0.9693,0.9727,0.9812,0.9822,0.9822,0.9822,0.9822,0.9822,0.9822,0.9822,1.0061,1.0668,1.1514,1.2475,1.3679,1.4873,1.5634,1.5856,1.5876,1.5772,1.5427,1.5523,1.6001,1.6722,1.6484,1.6684,1.752,1.7235,1.7233,1.7485,1.7485,1.7485,1.7485,1.7485,1.7485,1.7485,1.7485,1.7485,1.7485,0.1516,0.1819,0.2323,0.3327,0.4232,0.5135,0.6237,0.7042,0.7646,0.7942,0.8038,0.8038,0.8038,0.8038,0.8038,0.8038,0.8038,0.8038,0.8038,0.8038,0.8038,0.8038,0.8038,0.8038,0.8038,0.8038,0.8038,0.8038,0.8038,0.8038,0.8038,0.8038,0.8038,0.8038,0.8038,0.8038,0.8038,0.8038,0.8038,0.8038,0.8038,0.8038,0.8038,0.8038,0.8038,0.8041,0.8055,0.8062,0.8085,0.8255,0.8394,0.853,0.8699,0.875,0.8804,0.9089,0.9174,0.9205,0.9344,0.9381,0.9384,0.9398,0.9296,0.9228,0.9371,0.9401,0.9445,0.9598,0.9629,0.9666,0.9795,0.9822,0.9822,0.9822,0.9822,0.9822,0.9822,0.9822,0.9822,0.9822,0.9822,0.9822,0.9822,0.9832,0.9836,0.9822,0.9836,1.0325,1.1296,1.2018,1.2991,1.4565,1.5645,1.6237,1.6464,1.647,1.5994,1.5044,1.4998,1.5332,1.6297,1.63,1.6926,1.7766,1.749,1.747,1.7485,1.7485,1.7485,1.7485,1.7485,1.7485,1.7485,1.7485,1.7485,1.7485,0.1415,0.1617,0.1919,0.2825,0.3828,0.4832,0.5939,0.6739,0.7441,0.7939,0.8038,0.8038,0.8038,0.8038,0.8038,0.8038,0.8038,0.8038,0.8038,0.8038,0.8038,0.8038,0.8038,0.8038,0.8038,0.8038,0.8038,0.8038,0.8038,0.8038,0.8038,0.8038,0.8038,0.8038,0.8038,0.8038,0.8038,0.8038,0.8038,0.8038,0.8038,0.8038,0.8038,0.8038,0.8038,0.8055,0.8177,0.8221,0.8262,0.8526,0.8635,0.8706,0.8971,0.9059,0.9093,0.9276,0.9334,0.934,0.9371,0.9381,0.9408,0.953,0.9537,0.952,0.9554,0.9561,0.9602,0.9744,0.9774,0.9785,0.9815,0.9822,0.9822,0.9822,0.9822,0.9822,0.9822,0.9822,0.9822,0.9822,0.9822,0.9822,0.9822,0.993,0.9951,0.9829,1.0176,1.074,1.1483,1.2699,1.3873,1.515,1.6396,1.6915,1.6719,1.6462,1.6188,1.5867,1.5792,1.6191,1.6786,1.7002,1.7302,1.776,1.7536,1.7539,1.7485,1.7485,1.7485,1.7485,1.7485,1.7485,1.7485,1.7485,1.7485,1.7485,0.0707,0.1212,0.1818,0.2422,0.3428,0.4531,0.5639,0.6639,0.7437,0.7939,0.8038,0.8038,0.8038,0.8038,0.8038,0.8038,0.8038,0.8038,0.8038,0.8038,0.8038,0.8038,0.8038,0.8038,0.8038,0.8038,0.8038,0.8038,0.8038,0.8038,0.8038,0.8038,0.8038,0.8038,0.8038,0.8038,0.8038,0.8038,0.8038,0.8038,0.8038,0.8038,0.8038,0.8038,0.8085,0.816,0.8241,0.836,0.8506,0.8659,0.8804,0.895,0.9103,0.9205,0.9293,0.9445,0.949,0.9503,0.9574,0.9591,0.9629,0.9781,0.9819,0.9798,0.9727,0.9768,0.9839,0.9914,0.9988,1.0039,1.0039,1.0039,1.0039,1.0039,1.0039,1.0039,1.0039,1.0039,1.0039,1.0039,1.0039,1.0039,1.0039,1.0114,1.0127,1.0046,1.0364,1.0911,1.1662,1.2777,1.406,1.5297,1.6307,1.6863,1.6974,1.6593,1.6329,1.6306,1.5955,1.6097,1.6829,1.7099,1.7613,1.8191,1.7901,1.7666,1.766,1.7533,1.7485,1.7485,1.7485,1.7485,1.7485,1.7485,1.7563,1.7666,0.0,0.0707,0.1515,0.2118,0.3226,0.4332,0.5436,0.6537,0.7437,0.7939,0.8038,0.8038,0.8038,0.8038,0.8038,0.8038,0.8038,0.8038,0.8038,0.8038,0.8038,0.8038,0.8038,0.8038,0.8038,0.8038,0.8038,0.8038,0.8038,0.8038,0.8038,0.8038,0.8038,0.8038,0.8038,0.8038,0.8038,0.8038,0.8038,0.8038,0.8038,0.8038,0.8041,0.8069,0.816,0.8279,0.8326,0.852,0.8754,0.8777,0.895,0.9161,0.9215,0.9317,0.9449,0.9602,0.9646,0.9673,0.9788,0.9839,0.989,1.0019,1.007,1.0056,0.9927,0.9998,1.009,1.009,1.0192,1.028,1.028,1.028,1.028,1.028,1.028,1.028,1.028,1.028,1.028,1.028,1.028,1.028,1.028,1.03,1.0307,1.0283,1.0686,1.1078,1.1714,1.272,1.3865,1.5162,1.5925,1.6527,1.6981,1.6721,1.6562,1.6494,1.5849,1.6019,1.6843,1.723,1.7853,1.8656,1.8161,1.7943,1.7925,1.7708,1.7593,1.7551,1.7551,1.7521,1.7491,1.7533,1.769,1.7883,0.0,0.0101,0.0606,0.2017,0.3126,0.4232,0.5434,0.6537,0.7437,0.7939,0.8038,0.8038,0.8038,0.8038,0.8038,0.8038,0.8038,0.8038,0.8038,0.8038,0.8038,0.8038,0.8038,0.8038,0.8038,0.8038,0.8038,0.8038,0.8038,0.8038,0.8038,0.8038,0.8038,0.8038,0.8038,0.8038,0.8038,0.8038,0.8038,0.8038,0.8038,0.8038,0.8055,0.8187,0.8252,0.8303,0.856,0.876,0.8927,0.9052,0.912,0.9198,0.9462,0.9561,0.9605,0.9751,0.9791,0.9795,0.9815,0.9917,1.0022,1.0042,1.0151,1.0243,1.0226,1.0236,1.0249,1.0249,1.0266,1.028,1.028,1.028,1.028,1.028,1.028,1.028,1.028,1.028,1.028,1.028,1.028,1.028,1.028,1.0392,1.0412,1.029,1.0777,1.1106,1.1626,1.2527,1.3504,1.4447,1.5739,1.6539,1.6586,1.6834,1.685,1.6499,1.6684,1.6931,1.7345,1.7477,1.8017,1.8668,1.8366,1.8233,1.8233,1.8197,1.804,1.7823,1.7823,1.7678,1.7509,1.7738,1.7847,1.7907,0.0,0.0,0.0404,0.1613,0.2923,0.4232,0.5434,0.6537,0.7437,0.7939,0.8038,0.8038,0.8038,0.8116,0.817,0.817,0.8241,0.8286,0.8286,0.8286,0.8286,0.8286,0.8286,0.8286,0.8286,0.8286,0.8286,0.8286,0.8119,0.8038,0.8038,0.8038,0.8038,0.8038,0.8038,0.8038,0.8045,0.8133,0.817,0.8177,0.8255,0.8286,0.8296,0.8364,0.8442,0.8557,0.8852,0.9001,0.9083,0.9228,0.9337,0.9432,0.9568,0.9663,0.9741,0.9802,0.9822,0.9839,0.9924,0.9998,1.0086,1.0256,1.0348,1.0422,1.0507,1.0527,1.05,1.0415,1.0466,1.0527,1.0527,1.0527,1.0527,1.0527,1.0527,1.0527,1.0527,1.0527,1.0527,1.0527,1.0527,1.0527,1.0527,1.0582,1.0595,1.0531,1.0843,1.1144,1.1406,1.2322,1.3274,1.4137,1.5308,1.6094,1.6239,1.6494,1.6623,1.6499,1.6623,1.7012,1.7529,1.7936,1.8395,1.8891,1.8625,1.8511,1.8505,1.8354,1.8221,1.8106,1.8106,1.804,1.795,1.8064,1.8203,1.8342]}]]